[[{"header":{"parameterUnit":"m.s-1","parameterCategory":1,"la1":30.6,"la2":28.766,"lo1":-90.7593,"lo2":-88.6598,"dy":0.0162,"dx":0.0183,"nx":116,"ny":114,"refTime":"2023-06-16T06:00:00:Z","depth":0,"parameterNumber":2,"parameterNumberName":"U-component_of_WINDS"},"data":[0.0,0.0,0.0,0.0,0.0,0.0,0.0,0.0,0.0,0.0,0.0,0.0,0.0,0.0,0.0,0.0,0.0,0.0,0.0,0.0,0.0,0.0,0.0,0.0,0.0,0.0,0.0,0.0,0.0,0.0,0.0,0.0,0.0,0.0,0.0,0.0,0.0,0.0,0.0,0.0,0.0,0.0,0.0,0.0,0.0,0.0,0.0,0.0,0.0,0.0,0.0,0.0,0.0,0.0,0.0,0.0,0.0,0.0,0.0,0.0,0.0,0.0,0.0,0.0,0.0,0.0,0.0,0.0,0.0,0.0,0.0,0.0,0.0,0.0,0.0,0.0,0.0,0.0,0.0,0.0,0.0,0.0,0.0,0.0,0.0,0.0,0.0,0.0,0.0,0.0,0.0,0.0,0.0,0.0,0.0,0.0,0.0,0.0,0.0,0.0,0.0,0.0,0.0,0.0,0.0,0.0,0.0,0.0,0.0,0.0,0.0,0.0,0.0,0.0,0.0,0.0,0.0,0.0,0.0,0.0,0.0,0.0,0.0,0.0,0.0,0.0,0.0,0.0,0.0,0.0,0.0,0.0,0.0,0.0,0.0,0.0,0.0,0.0,0.0,0.0,0.0,0.0,0.0,0.0,0.0,0.0,0.0,0.0,0.0,0.0,0.0,0.0,0.0,0.0,0.0,0.0,0.0,0.0,0.0,0.0,0.0,0.0,0.0,0.0,0.0,0.0,0.0,0.0,0.0,0.0,0.0,0.0,0.0,0.0,0.0,0.0,0.0,0.0,0.0,0.0,0.0,0.0,0.0,0.0,0.0,0.0,0.0,0.0,0.0,0.0,0.0,0.0,0.0,0.0,0.0,0.0,0.0,0.0,0.0,0.0,0.0,0.0,0.0,0.0,0.0,0.0,0.0,0.0,0.0,0.0,0.0,0.0,0.0,0.0,0.0,0.0,0.0,0.0,0.0,0.0,0.0,0.0,0.0,0.0,0.0,0.0,0.0,0.0,0.0,0.0,0.0,0.0,0.0,0.0,0.0,0.0,0.0,0.0,0.0,0.0,0.0,0.0,0.0,0.0,0.0,0.0,0.0,0.0,0.0,0.0,0.0,0.0,0.0,0.0,0.0,0.0,0.0,0.0,0.0,0.0,0.0,0.0,0.0,0.0,0.0,0.0,0.0,0.0,0.0,0.0,0.0,0.0,0.0,0.0,0.0,0.0,0.0,0.0,0.0,0.0,0.0,0.0,0.0,0.0,0.0,0.0,0.0,0.0,0.0,0.0,0.0,0.0,0.0,0.0,0.0,0.0,0.0,0.0,0.0,0.0,0.0,0.0,0.0,0.0,0.0,0.0,0.0,0.0,0.0,0.0,0.0,0.0,0.0,0.0,0.0,0.0,0.0,0.0,0.0,0.0,0.0,0.0,0.0,0.0,0.0,0.0,0.0,0.0,0.0,0.0,0.0,0.0,0.0,0.0,0.0,0.0,0.0,0.0,0.0,0.0,0.0,0.0,0.0,0.0,0.0,0.0,0.0,0.0,0.0,0.0,0.0,0.0,0.0,0.0,0.0,0.0,0.0,0.0,0.0,0.0,0.0,0.0,0.0,0.0,0.0,0.0,0.0,0.0,0.0,0.0,0.0,0.0,0.0,0.0,0.0,0.0,0.0,0.0,0.0,0.0,0.0,0.0,0.0,0.0,0.0,0.0,0.0,0.0,0.0,0.0,0.0,0.0,0.0,0.0,0.0,0.0,0.0,0.0,0.0,0.0,0.0,0.0,0.0,0.0,0.0,0.0,0.0,0.0,0.0,0.0,0.0,0.0,0.0,0.0,0.0,0.0,0.0,0.0,0.0,0.0,0.0,0.0,0.0,0.0,0.0,0.0,0.0,0.0,0.0,0.0,0.0,0.0,0.0,0.0,0.0,0.0,0.0,0.0,0.0,0.0,0.0,0.0,0.0,0.0,0.0,0.0,0.0,0.0,0.0,0.0,0.0,0.0,0.0,0.0,0.0,0.0,0.0,0.0,0.0,0.0,0.0,0.0,0.0,0.0,0.0,0.0,0.0,0.0,0.0,0.0,0.0,0.0,0.0,0.0,0.0,0.0,0.0,0.0,0.0,0.0,0.0,0.0,0.0,0.0,0.0,0.0,0.0,0.0,0.0,0.0,0.0,0.0,0.0,0.0,0.0,0.0,0.0,0.0,0.0,0.0,0.0,0.0,0.0,0.0,0.0,0.0,0.0,0.0,0.0,0.0,0.0,0.0,0.0,0.0,0.0,0.0,0.0,0.0,0.0,0.0,0.0,0.0,0.0,0.0,0.0,0.0,0.0,0.0,0.0,0.0,0.0,0.0,0.0,0.0,0.0,0.0,0.0,0.0,0.0,0.0,0.0,0.0,0.0,0.0,0.0,0.0,0.0,0.0,0.0,0.0,0.0,0.0,0.0,0.0,0.0,0.0,0.0,0.0,0.0,0.0,0.0,0.0,0.0,0.0,0.0,0.0,0.0,0.0,0.0,0.0,0.0,0.0,0.0,0.0,0.0,0.0,0.0,0.0,0.0,0.0,0.0,0.0,0.0,0.0,0.0,0.0,0.0,0.0,0.0,0.0,0.0,0.0,0.0,0.0,0.0,0.0,0.0,0.0,0.0,0.0,0.0,0.0,0.0,0.0,0.0,0.0,0.0,0.0,0.0,0.0,0.0,0.0,0.0,0.0,0.0,0.0,0.0,0.0,0.0,0.0,0.0,0.0,0.0,0.0,0.0,0.0,0.0,0.0,0.0,0.0,0.0,0.0,0.0,0.0,0.0,0.0,0.0,0.0,0.0,0.0,0.0,0.0,0.0,0.0,0.0,0.0,0.0,0.0,0.0,0.0,0.0,0.0,0.0,0.0,0.0,0.0,0.0,0.0,0.0,0.0,0.0,0.0,0.0,0.0,0.0,0.0,0.0,0.0,0.0,0.0,0.0,0.0,0.0,0.0,0.0,0.0,0.0,0.0,0.0,0.0,0.0,0.0,0.0,0.0,0.0,0.0,0.0,0.0,0.0,0.0,0.0,0.0,0.0,0.0,0.0,0.0,0.0,0.0,0.0,0.0,0.0,0.0,0.0,0.0,0.0,0.0,0.0,0.0,0.0,0.0,0.0,0.0,0.0,0.0,0.0,0.0,0.0,0.0,0.0,0.0,0.0,0.0,0.0,0.0,0.0,0.0,0.0,0.0,0.0,0.0,0.0,0.0,0.0,0.0,0.0,0.0,0.0,0.0,0.0,0.0,0.0,0.0,0.0,0.0,0.0,0.0,0.0,0.0,0.0,0.0,0.0,0.0,0.0,0.0,0.0,0.0,0.0,0.0,0.0,0.0,0.0,0.0,0.0,0.0,0.0,0.0,0.0,0.0,0.0,0.0,0.0,0.0,0.0,0.0,0.0,0.0,0.0,0.0,0.0,0.0,0.0,0.0,0.0,0.0,0.0,0.0,0.0,0.0,0.0,0.0,0.0,0.0,0.0,0.0,0.0,0.0,0.0,0.0,0.0,0.0,0.0,0.0,0.0,0.0,0.0,0.0,0.0,0.0,0.0,0.0,0.0,0.0,0.0,0.0,0.0,0.0,0.0,0.0,0.0,0.0,0.0,0.0,0.0,0.0,0.0,0.0,0.0,0.0,0.0,0.0,0.0,0.0,0.0,0.0,0.0,0.0,0.0,0.0,0.0,0.0,0.0,0.0,0.0,0.0,0.0,0.0,0.0,0.0,0.0,0.0,0.0,0.0,0.0,0.0,0.0,0.0,0.0,0.0,0.0,0.0,0.0,0.0,0.0,0.0,0.0,0.0,0.0,0.0,0.0,0.0,0.0,0.0,0.0,0.0,0.0,0.0,0.0,0.0,0.0,0.0,0.0,0.0,0.0,0.0,0.0,0.0,0.0,0.0,0.0,0.0,0.0,0.0,0.0,0.0,0.0,0.0,0.0,0.0,0.0,0.0,0.0,0.0,0.0,0.0,0.0,0.0,0.0,0.0,0.0,0.0,0.0,0.0,0.0,0.0,0.0,0.0,0.0,0.0,0.0,0.0,0.0,0.0,0.0,0.0,0.0,0.0,0.0,0.0,0.0,0.0,0.0,0.0,0.0,0.0,0.0,0.0,0.0,0.0,0.0,0.0,0.0,0.0,0.0,0.0,0.0,0.0,0.0,0.0,0.0,0.0,0.0,0.0,0.0,0.0,0.0,0.0,0.0,0.0,0.0,0.0,0.0,0.0,0.0,0.0,0.0,0.0,0.0,0.0,0.0,0.0,0.0,0.0,0.0,0.0,0.0,0.0,0.0,0.0,0.0,0.0,0.0,0.0,0.0,0.0,0.0,0.0,0.0,0.0,0.0,0.0,0.0,0.0,0.0,0.0,0.0,0.0,0.0,0.0,0.0,0.0,0.0,0.0,0.0,0.0,0.0,0.0,0.0,0.0,0.0,0.0,0.0,0.0,0.0,0.0,0.0,0.0,0.0,0.0,0.0,0.0,0.0,0.0,0.0,0.0,0.0,0.0,0.0,0.0,0.0,0.0,0.0,0.0,0.0,0.0,0.0,0.0,0.0,0.0,0.0,0.0,0.0,0.0,0.0,0.0,0.0,0.0,0.0,0.0,0.0,0.0,0.0,0.0,0.0,0.0,0.0,0.0,0.0,0.0,0.0,0.0,0.0,0.0,0.0,0.0,0.0,0.0,0.0,0.0,0.0,0.0,0.0,0.0,0.0,0.0,0.0,0.0,0.0,0.0,0.0,0.0,0.0,0.0,0.0,0.0,0.0,0.0,0.0,0.0,0.0,0.0,0.0,0.0,0.0,0.0,0.0,0.0,0.0,0.0,0.0,0.0,0.0,0.0,0.0,0.0,0.0,0.0,0.0,0.0,0.0,0.0,0.0,0.0,0.0,0.0,0.0,0.0,0.0,0.0,0.0,0.0,0.0,0.0,0.0,0.0,0.0,0.0,0.0,0.0,0.0,0.0,0.0,0.0,0.0,0.0,0.0,0.0,0.0,0.0,0.0,0.0,0.0,0.0,0.0,0.0,0.0,0.0,0.0,0.0,0.0,0.0,0.0,0.0,0.0,0.0,0.0,0.0,0.0,0.0,0.0,0.0,0.0,0.0,0.0,0.0,0.0,0.0,0.0,0.0,0.0,0.0,0.0,0.0,0.0,0.0,0.0,0.0,0.0,0.0,0.0,0.0,0.0,0.0,0.0,0.0,0.0,0.0,0.0,0.0,0.0,0.0,0.0,0.0,0.0,0.0,0.0,0.0,0.0,0.0,0.0,0.0,0.0,0.0,0.0,0.0,0.0,0.0,0.0,0.0,0.0,0.0,0.0,0.0,0.0,0.0,0.0,0.0,0.0,0.0,0.0,0.0,0.0,0.0,0.0,0.0,0.0,0.0,0.0,0.0,0.0,0.0,0.0,0.0,0.0,0.0,0.0,0.0,0.0,0.0,0.0,0.0,0.0,0.0,0.0,0.0,0.0,0.0,0.0,0.0,0.0,0.0,0.0,0.0,0.0,0.0,0.0,0.0,0.0,0.0,0.0,0.0,0.0,0.0,0.0,0.0,0.0,0.0,0.0,0.0,0.0,0.0,0.0,0.0,0.0,0.0,0.0,0.0,0.0,0.0,0.0,0.0,0.0,0.0,0.0,0.0,0.0,0.0,0.0,0.0,0.0,0.0,0.0,0.0,0.0,0.0,0.0,0.0,0.0,0.0,0.0,0.0,0.0,0.0,0.0,0.0,0.0,0.0,0.0,0.0,0.0,0.0,0.0,0.0,0.0,0.0,0.0,0.0,0.0,0.0,0.0,0.0,0.0,0.0,0.0,0.0,0.0,0.0,0.0,0.0,0.0,0.0,0.0,0.0,0.0,0.0,0.0,0.0,0.0,0.0,0.0,0.0,0.0,0.0,0.0,0.0,0.0,0.0,0.0,0.0,0.0,0.0,0.0,0.0,0.0,0.0,0.0,0.0,0.0,0.0,0.0,0.0,0.0,0.0,0.0,0.0,0.0,0.0,0.0,0.0,0.0,0.0,0.0,0.0,0.0,0.0,0.0,0.0,0.0,0.0,0.0,0.0,2.2752,0.0,0.0,0.0,0.0,0.0,0.0,0.0,0.0,0.0,0.0,0.0,0.0,0.0,0.0,0.0,0.0,0.0,0.0,0.0,0.0,0.0,0.0,0.0,0.0,0.0,0.0,0.0,0.0,0.0,0.0,0.0,0.0,0.0,0.0,0.0,0.0,0.0,0.0,0.0,0.0,0.0,0.0,0.0,0.0,0.0,0.0,0.0,0.0,0.0,0.0,0.0,0.0,0.0,0.0,0.0,0.0,0.0,0.0,0.0,0.0,0.0,0.0,0.0,0.0,0.0,0.0,0.0,0.0,0.0,0.0,0.0,0.0,0.0,0.0,0.0,0.0,0.0,0.0,0.0,0.0,0.0,0.0,0.0,0.0,0.0,0.0,0.0,0.0,0.0,0.0,0.0,0.0,0.0,0.0,0.0,0.0,0.0,0.0,0.0,0.0,0.0,0.0,0.0,0.0,0.0,0.0,0.0,0.0,0.0,0.0,0.0,0.0,0.0,0.0,0.0,0.0,2.0027,0.0,0.0,0.0,0.0,0.0,0.0,0.0,0.0,0.0,0.0,0.0,0.0,0.0,0.0,0.0,0.0,0.0,0.0,0.0,0.0,0.0,0.0,0.0,0.0,0.0,0.0,0.0,0.0,0.0,0.0,0.0,0.0,0.0,0.0,0.0,0.0,0.0,0.0,0.0,0.0,0.0,0.0,0.0,0.0,0.0,0.0,0.0,0.0,0.0,0.0,0.0,0.0,0.0,0.0,0.0,0.0,0.0,0.0,0.0,0.0,0.0,0.0,0.0,0.0,0.0,0.0,0.0,0.0,0.0,0.0,0.0,0.0,0.0,0.0,0.0,0.0,0.0,0.0,0.0,0.0,0.0,0.0,0.0,0.0,0.0,0.0,0.0,0.0,0.0,0.0,0.0,0.0,0.0,0.0,0.0,0.0,0.0,0.0,0.0,0.0,0.0,0.0,0.0,0.0,0.0,0.0,0.0,0.0,0.0,3.2509,3.357,3.2132,2.9526,2.6108,2.4643,2.0703,1.5306,0.0,0.0,0.0,0.0,0.0,0.0,0.0,0.0,0.0,0.0,0.0,0.0,0.0,0.0,0.0,0.0,0.0,0.0,0.0,0.0,0.0,0.0,0.0,0.0,0.0,0.0,0.0,0.0,0.0,0.0,0.0,0.0,0.0,0.0,0.0,0.0,0.0,0.0,0.0,-0.3916,-0.308,-0.2415,-0.1805,0.1528,0.0,0.445,0.0,0.0,0.0,0.0,0.0,0.0,0.0,0.0,0.0,0.0,0.0,0.0,0.0,0.0,0.0,0.0,0.0,0.0,0.0,0.0,0.0,0.0,0.0,0.0,0.0,0.0,0.0,0.0,0.0,0.0,0.0,0.0,0.0,0.0,0.0,0.0,0.0,0.0,0.0,0.0,0.0,1.0848,0.8527,0.0,0.0,0.0,0.0,0.0,0.0,0.0,0.0,0.0,0.0,0.0,0.0,0.0,0.0,3.3476,3.405,3.4199,3.395,3.2531,3.1479,3.0682,3.0458,2.879,2.5897,2.3531,0.0,1.4824,1.4522,0.0,0.0,0.0,0.0,0.0,0.0,0.0,0.0,0.0,0.0,0.0,0.0,0.0,0.0,0.0,0.0,0.0,0.0,0.0,0.0,0.0,0.0,0.0,0.0,0.0,0.0,0.0,0.0,0.0,0.0,0.0,0.0,0.0,0.0,0.0,0.0,-0.4422,-0.5125,-0.546,-0.5242,-0.4788,-0.4152,-0.3025,-0.1221,0.1023,0.0759,0.0,0.0,0.0,0.0,0.0,0.0,0.0,0.0,0.0,0.0,0.0,0.0,0.0,0.0,0.0,0.0,0.0,0.0,0.0,0.0,0.0,0.0,0.0,0.0,0.0,0.0,0.0,0.0,0.0,0.0,0.0,0.0,0.0,0.0,0.0,0.0,0.0,0.0,0.0,1.0604,0.9076,0.7189,0.6576,0.5966,0.0,0.0,0.0,0.0,0.0,0.0,0.0,0.0,0.0,2.5771,3.0032,3.1297,2.9007,3.2744,3.4459,3.4009,3.3263,3.259,3.1803,3.123,2.9303,2.6014,2.4746,2.0931,1.5221,1.3558,1.1801,0.9761,0.0,0.0,0.0,0.0,0.0,-0.6529,0.0,0.0,0.0,0.0,0.0,0.0,0.0,0.0,0.0,0.0,0.0,0.0,0.0,0.0,0.0,-0.335,0.0,0.0,0.0,0.0,0.0,0.0,0.0,0.0,0.0,0.0,0.0,-0.6666,-0.7045,-0.7068,-0.6649,-0.6877,-0.6659,-0.5927,-0.647,-0.5023,-0.213,-0.2067,-0.1618,-0.096,0.0,0.0,0.0,0.0,0.0,0.0,0.0,0.0,0.0,0.0,0.0,0.0,0.0,0.0,0.0,0.0,0.0,0.0,0.0,0.0,0.0,0.0,0.0,0.0,0.0,0.0,0.0,0.0,0.0,0.0,0.0,0.0,0.0,0.0,0.0,0.0,0.0,0.8272,0.6793,0.5147,0.383,0.3045,0.0,0.0,0.0,0.0,0.0,0.0,1.2767,1.7244,2.0456,2.1929,2.74,2.8794,2.5601,3.0895,3.3542,3.3506,3.3914,3.3912,3.3601,3.269,3.0143,2.6594,2.5365,2.1354,1.5455,1.2499,0.9202,0.563,0.2135,0.0311,-0.0914,-0.619,-0.9043,-1.0893,0.0,0.0,0.0,0.0,0.0,0.0,0.0,0.0,0.0,0.0,0.0,0.0,0.0,0.0,-0.3964,-0.4553,-0.4818,-0.5201,0.0,0.0,0.0,0.0,0.0,0.0,0.0,0.0,0.0,-0.9196,-0.922,-0.884,-0.7918,-0.8079,-0.8079,-0.7846,-0.7769,-0.6498,-0.4553,-0.4462,-0.4325,-0.4081,-0.4234,0.0,0.0,0.0,0.0,0.0,0.0,0.0,0.0,0.0,0.0,0.0,0.0,0.0,0.0,0.0,0.0,0.0,0.0,0.0,0.0,0.0,0.0,0.0,0.0,0.0,0.0,0.0,0.0,0.0,0.0,0.0,0.0,0.0,0.0,0.0,0.0,0.0,0.0,0.0516,0.1064,0.0,0.0,0.0,0.0,0.1479,0.043,0.2188,0.782,0.9673,1.4082,2.2055,2.4771,2.6899,2.8506,2.9819,3.1217,3.2934,3.4295,3.507,3.522,3.3896,3.125,2.7748,2.3852,1.9475,1.4952,1.2026,0.975,0.7527,0.078,-0.1411,-0.1466,-0.6749,-1.0142,-1.2745,0.0,0.0,0.0,0.0,0.0,0.0,0.0,0.0,0.0,0.0,0.0,0.0,0.0,0.0,-0.2412,-0.2757,-0.4288,-0.4894,-0.409,0.0,0.0,0.0,0.0,0.0,0.0,0.0,-0.9638,-0.951,-0.986,-0.9442,-0.8472,-0.8628,-0.8669,-0.8615,-0.8461,-0.7884,-0.7125,-0.6305,-0.5621,-0.507,-0.5873,-0.5671,0.0,0.0,0.0,0.0,0.0,0.0,0.0,0.0,0.0,0.0,0.0,0.0,0.0,0.0,0.0,0.0,0.0,0.0,0.0,0.0,0.0,0.0,0.0,0.0,0.0,0.0,0.0,0.0,0.0,0.0,0.0,0.0,0.0,0.0,0.0,0.0,0.0,-0.0,-0.0454,0.0,-0.2444,-0.2792,-0.269,-0.2011,-0.2174,-0.0584,0.3569,0.7324,1.1098,1.4713,1.9365,2.2009,2.2387,2.5092,2.7782,3.0244,3.2634,3.385,3.3886,3.3633,3.0888,2.6251,2.3289,1.9181,1.444,1.1487,0.7054,0.1747,-0.0795,-0.2971,-0.5018,-0.7892,-0.9572,-1.1019,0.0,0.0,0.0,0.0,0.0,0.0,0.0,0.0,0.0,0.0,0.0,0.0,0.0,0.0,0.0,0.0,-0.3901,-0.4596,-0.4075,0.0,0.0,0.0,0.0,0.0,0.0,-1.0236,-1.0422,-1.0388,-1.0248,-0.9686,-0.8635,-0.8791,-0.8859,-0.8859,-0.8696,-0.8595,-0.8428,-0.7535,-0.6854,-0.6301,-0.7114,-0.7143,-0.6776,0.0,0.0,0.0,0.0,0.0,0.0,0.0,0.0,0.0,0.0,0.0,0.0,0.0,0.0,0.0,0.0,0.0,0.0,0.0,0.0,0.0,0.0,0.0,0.0,0.0,0.0,0.0,0.0,0.0,0.0,0.0,0.0,0.0,0.0,0.0,-0.0,-0.0696,-0.1438,-0.2425,-0.3771,-0.4506,-0.4641,-0.403,-0.3759,-0.235,0.088,0.4548,0.715,0.8285,1.2553,1.4623,1.4313,1.7769,2.1149,2.4286,2.7991,3.0588,3.2118,3.2435,3.0148,2.5977,2.3524,1.923,1.3842,1.1224,0.6428,0.0491,-0.0234,-0.203,-0.4501,-0.5275,-0.5543,-0.6505,0.0,0.0,0.0,0.0,0.0,0.0,0.0,0.0,0.0,0.0,0.0,0.0,0.0,0.0,0.0,0.0,0.0,-0.4541,-0.5713,-0.7033,0.0,0.0,0.0,0.0,-1.117,-1.0207,-1.0297,-1.17,-1.0672,-0.9533,-0.8499,-0.8648,-0.8716,-0.8723,-0.8536,-0.8414,-0.8291,-0.8069,-0.7941,-0.8072,-0.8058,-0.8147,-0.8262,0.0,0.0,0.0,0.0,0.0,0.0,0.0,0.0,0.0,0.0,0.0,0.0,0.0,0.0,0.0,0.0,0.0,0.0,0.0,0.0,0.0,0.0,0.0,0.0,0.0,0.0,0.0,0.0,0.0,0.0,0.0,0.0,0.0,-0.1944,-0.1887,-0.1939,-0.1977,-0.2007,-0.2515,-0.3954,-0.4447,-0.4475,-0.4284,-0.4606,-0.3377,-0.0263,0.0933,0.2158,0.3554,0.4577,0.5238,0.5179,0.8277,1.16,1.5286,2.0272,2.5296,2.9974,3.0187,2.9148,2.6945,2.4517,1.9625,1.3413,1.1675,0.848,0.4544,0.294,0.1526,0.0457,0.148,0.1805,0.0553,0.0,0.0,0.0,0.0,0.0,0.0,0.0,0.0,0.0,0.0,0.0,0.0,0.0,0.0,0.0,0.0,0.0,0.0,-0.4794,0.0,0.0,0.0,0.0,0.0,-1.0196,-0.9933,-1.0111,-1.0754,-0.9723,-0.9029,-0.8811,-0.8859,-0.8872,-0.8879,-0.8809,-0.8803,-0.8776,-0.8765,-0.885,-0.8818,-0.8282,-0.8079,-0.8203,0.0,0.0,0.0,0.0,0.0,0.0,0.0,0.0,0.0,0.0,0.0,0.0,0.0,0.0,0.0,0.0,0.0,0.0,0.0,0.0,0.0,0.0,0.0,0.0,0.0,0.0,0.0,0.0,0.0,0.0,0.0,0.0,-0.5707,-0.2322,-0.281,-0.3177,-0.2197,-0.2138,-0.2701,-0.3947,-0.4812,-0.5104,-0.4628,-0.5265,-0.4661,-0.2204,-0.0684,0.0273,0.0959,0.2296,0.2967,0.301,0.4594,0.7655,1.1858,1.5683,2.0237,2.5375,2.7312,2.821,2.8074,2.5092,2.2409,1.9686,1.6445,1.3208,1.0012,0.6055,0.4754,0.5104,0.6242,0.6152,0.4318,0.0,0.0,0.0,0.0,0.0,0.0,0.0,0.0,0.0,0.0,0.0,0.0,0.0,0.0,0.0,0.0,0.0,0.0,0.0,0.0,0.0,0.0,0.0,-0.906,-1.0095,-0.9648,-0.9785,-1.0517,-0.95,-0.8994,-0.894,-0.894,-0.894,-0.894,-0.9001,-0.8994,-0.8954,-0.9164,-0.9245,-0.9232,-0.8923,-0.8699,-0.862,-0.8521,-0.8492,-0.83,-0.8137,-0.82,-0.8166,-0.7471,0.0,0.0,0.0,0.0,0.0,0.0,0.0,0.0,0.0,0.0,0.0,0.0,0.0,0.0,0.0,0.0,0.0,0.0,0.0,0.0,0.0,0.0,0.0,0.0,-0.869,-0.8251,-0.524,-0.4888,-0.451,-0.3426,-0.2671,-0.2834,-0.4177,-0.4908,-0.5184,-0.4833,-0.5285,-0.4759,-0.2943,-0.1937,-0.138,-0.1256,-0.0547,-0.0136,-0.0138,0.1226,0.3362,0.6519,0.9786,1.4085,1.9203,2.2451,2.4762,0.0,2.6023,2.41,2.1209,1.9398,1.6712,0.0,0.0,0.0,0.0,0.0,0.9476,0.6701,0.0,0.0,0.0,0.0,0.0,0.0,0.0,0.0,0.0,0.0,0.0,0.0,0.0,0.0,0.0,0.0,0.0,0.0,0.0,0.0,0.0,-0.7821,-0.7997,-0.8794,-1.0404,-0.9618,-0.9706,-1.0924,-0.9868,-0.9314,-0.9182,-0.8981,-0.8981,-0.8967,-0.9096,-0.9089,-0.9008,-0.9273,-0.9388,-0.9422,-0.9571,-0.953,-0.9354,-0.9089,-0.8967,-0.892,-0.8764,-0.8567,-0.8364,-0.7795,0.0,0.0,0.0,0.0,0.0,0.0,0.0,0.0,0.0,0.0,0.0,0.0,0.0,0.0,0.0,0.0,0.0,0.0,0.0,0.0,0.0,0.0,0.0,0.0,-1.0211,-1.0904,-0.9484,-0.7674,-0.5953,-0.4933,-0.3504,-0.3065,-0.4075,-0.461,-0.4718,-0.4712,-0.4808,-0.4358,-0.2957,0.0,0.0,0.0,0.0,-0.3318,-0.3365,-0.1795,-0.0403,0.0388,0.3757,0.7668,1.2192,1.6298,1.9929,2.2941,2.6034,2.4765,2.0703,2.0882,1.8908,1.5703,1.4159,1.2776,1.1935,1.2912,1.1012,0.0,0.0,0.0,0.0,0.0,0.0,0.0,0.0,0.0,0.0,0.0,0.0,0.0,0.0,0.0,0.0,0.0,0.0,0.0,0.0,0.0,-0.7685,-0.7984,-0.8255,-0.9017,-1.0519,-1.0373,-1.1075,-1.2441,-1.1148,-1.0595,-1.0683,-0.9695,-0.9232,-0.911,-0.9144,-0.9205,-0.93,-0.9129,-0.9222,-0.9578,-0.9366,-0.938,-0.9374,-0.932,-0.915,-0.892,-0.8764,-0.8825,-0.8927,-0.8249,-0.8156,-0.8285,-0.7842,-0.7801,0.0,0.0,0.0,0.0,0.0,0.0,0.0,0.0,0.0,0.0,0.0,0.0,0.0,0.0,0.0,0.0,0.0,0.0,0.0,-1.0115,-1.1401,-1.2414,-1.2757,-1.0041,-0.7088,-0.5173,-0.4583,-0.3976,-0.2771,-0.3054,-0.3325,-0.329,-0.3886,-0.4049,-0.3329,-0.3575,0.0,-0.3432,-0.3345,-0.3318,-0.3365,-0.2871,-0.2431,-0.2027,0.0,0.0,0.5635,1.0614,1.5587,2.0601,2.0967,2.2751,2.4963,2.2257,1.8776,1.5228,1.4721,1.23,0.922,0.9526,0.6689,0.1907,0.0,0.0,0.0,0.0,0.0,0.0,0.0,0.0,0.0,0.0,0.0,0.0,0.0,0.0,0.0,0.0,0.0,0.0,0.0,-0.8925,-0.9501,-0.9961,-1.0231,-1.0674,-1.1406,-1.1687,-1.2163,-1.2831,-1.237,-1.2188,-1.2099,-1.0938,-1.0364,-1.0174,-0.9687,-0.9265,-0.9155,-0.8994,-0.9058,-0.9136,-0.92,-0.9307,-0.9367,-0.9479,-0.9462,-0.9252,-0.9103,-0.9049,-0.9008,-0.8458,-0.8432,-0.8587,-0.8399,-0.8488,-0.8779,0.0,0.0,0.0,0.0,0.0,0.0,0.0,0.0,0.0,0.0,0.0,0.0,0.0,0.0,-0.7621,0.0,0.0,-1.0232,-1.0377,-1.1104,-1.1585,-1.1231,-0.9602,-0.7973,-0.6705,-0.5007,-0.3625,-0.2852,-0.2983,-0.3252,-0.3502,-0.3958,-0.3962,-0.3502,-0.3747,-0.3875,-0.3467,-0.3824,-0.3923,-0.3923,-0.3735,-0.3816,-0.4289,-0.2884,-0.1294,0.0386,0.4431,0.9362,1.4876,1.7474,1.989,2.1767,1.9261,1.5941,1.2185,1.082,0.8443,0.5655,0.3712,0.0356,-0.3925,0.0,0.0,0.0,0.0,0.0,0.0,0.0,0.0,0.0,0.0,0.0,0.0,0.0,0.0,0.0,0.0,0.0,0.0,0.0,-1.0499,-1.1277,-1.1878,-1.2135,-1.2364,-1.2801,-1.3141,-1.3389,-1.3628,-1.3759,-1.3722,-1.3546,-1.233,-1.1752,-1.1611,-1.0369,-0.9669,-0.9352,-0.9084,-0.8778,-0.8689,-0.8922,-0.9112,-0.9214,-0.9546,-0.9587,-0.9585,-0.9401,-0.9164,-0.8816,-0.8646,-0.8669,-0.9047,-0.9377,-0.9551,-0.9747,-1.0023,-0.9856,0.0,0.0,0.0,0.0,0.0,0.0,0.0,0.0,0.0,-0.7545,-0.7808,-0.8256,-0.9085,-1.0187,-1.0856,-1.1048,-1.0541,-1.0684,-1.0462,-0.89,-0.8645,-0.8443,-0.7946,-0.5417,-0.3548,-0.324,-0.3501,-0.3754,-0.4015,-0.4149,-0.3978,-0.3648,-0.3898,-0.404,-0.3791,-0.4318,-0.4545,-0.4482,-0.4195,-0.4661,-0.5935,-0.5544,-0.4972,-0.386,-0.1276,0.2671,0.7795,1.35,1.5833,1.5721,1.4438,1.1803,0.8044,0.4668,0.2023,-0.0368,-0.2996,-0.6428,-1.0155,0.0,0.0,0.0,0.0,0.0,0.0,0.0,0.0,0.0,0.0,0.0,0.0,0.0,0.0,0.0,0.0,0.0,0.0,0.0,-1.0915,-1.1331,-1.1775,-1.2172,-1.3029,-1.4361,-1.4414,-1.5087,-1.6653,-1.555,-1.4972,-1.5055,-1.3976,-1.3377,-1.3073,-1.1585,-1.0963,-1.0951,-0.9042,-0.848,-0.883,-0.8593,-0.872,-0.8964,-0.884,-0.9142,-0.9571,-0.9286,-0.9076,-0.8899,-0.8621,-0.9133,-0.9762,-0.9255,-1.0214,-1.1372,-1.0814,-1.1098,-1.1429,-1.1235,-1.108,-1.0923,-1.0905,-0.9934,-0.9096,0.0,0.0,-0.9537,-0.9829,-1.0893,-1.1956,-1.2282,-1.262,-1.245,-1.1267,-1.1556,-1.1301,-0.9786,-0.8534,-0.7484,-0.6938,-0.6312,-0.5237,-0.37,-0.3625,-0.3574,-0.3718,-0.3969,-0.4087,-0.408,-0.4366,-0.4657,-0.4519,-0.4605,-0.4545,-0.4482,-0.4433,-0.4913,-0.5897,-0.6027,-0.6374,-0.6931,-0.5342,-0.2828,0.0631,0.658,0.9619,1.023,0.9065,0.6907,0.3627,-0.2439,-0.7702,-1.1622,-0.9477,-1.2269,-1.7414,0.0,0.0,0.0,0.0,0.0,0.0,0.0,0.0,0.0,0.0,0.0,0.0,0.0,0.0,0.0,0.0,0.0,0.0,-1.1641,-1.2544,-1.3303,-1.3942,-1.4294,-1.4808,-1.5615,-1.5777,-1.6257,-1.7092,-1.6774,-1.6599,-1.6599,-1.5408,-1.4331,-1.3532,-1.2217,-1.0982,-0.9951,-0.9113,-0.8617,-0.8476,-0.8476,-0.8553,-0.8587,-0.861,-0.8615,-0.8626,-0.87,-0.8816,0.0,0.0,-0.887,-0.9399,-0.8891,-0.9863,-1.1081,-1.0551,-1.099,-1.1595,-1.1387,-1.1409,-1.1456,0.0,-1.1304,-1.1036,-1.1232,-1.1217,-1.1286,-1.1522,-1.2177,-1.2816,-1.3003,-1.3417,-1.2909,0.0,-1.0447,-0.9764,-0.7225,-0.634,-0.6179,-0.6857,-0.685,-0.6094,-0.4119,-0.3904,-0.4456,-0.5493,-0.5756,-0.6158,-0.6684,-0.6253,-0.5967,-0.5673,-0.5072,-0.458,-0.4482,-0.4461,-0.5084,-0.6176,-0.7107,-0.7715,-0.8128,-0.8107,-0.6319,-0.303,-0.0511,0.1021,0.1646,0.1036,-0.078,-0.361,-0.7899,-1.254,-1.6819,-1.6144,-1.8387,-2.188,0.0,0.0,0.0,0.0,0.0,0.0,0.0,0.0,0.0,0.0,0.0,0.0,0.0,0.0,0.0,0.0,0.0,0.0,0.0,-1.372,-1.4582,-1.5442,-1.5664,0.0,-1.6272,-1.6549,-1.6863,-1.7201,-1.7382,-1.7479,-1.7479,-1.6172,-1.5126,-1.411,-1.2437,-1.09,-0.9436,-0.907,-0.8649,-0.8008,-0.8284,-0.8312,-0.8113,-0.809,-0.7991,-0.7797,-0.8221,-0.8314,0.0,0.0,-0.8787,-0.9381,-0.8999,-1.0006,-1.1268,-1.0715,-1.1051,-1.1491,-1.1397,-1.1671,0.0,-1.1955,-1.2276,-1.2595,-1.2532,-1.2521,-1.2588,-1.2816,-1.3068,-1.3287,-1.3425,-1.3766,-1.3169,-1.0426,-1.0214,-0.9319,-0.6586,-0.6111,-0.6524,-0.748,-0.7573,-0.6961,-0.5651,-0.5641,-0.6079,-0.6969,-0.7534,-0.8066,-0.8853,-0.8131,-0.7557,-0.7263,-0.6398,-0.5894,-0.5737,-0.5318,-0.5794,-0.6978,-0.8071,-0.8823,-0.9098,-1.0439,-0.95,-0.6795,-0.7311,-0.7027,-0.623,-0.645,-0.7806,-1.0075,-1.2363,-1.5529,-1.9038,-2.0264,-2.2236,-2.4361,0.0,0.0,0.0,0.0,0.0,0.0,0.0,0.0,0.0,0.0,0.0,0.0,0.0,0.0,0.0,0.0,0.0,0.0,0.0,-1.3994,-1.4321,-1.5261,-1.5481,-1.5753,-1.6272,-1.6549,-1.696,-1.7467,-1.7479,-1.7479,-1.7479,-1.6172,-1.5449,-1.5155,-1.2233,-1.0769,-1.0411,-0.8811,-0.8095,-0.7888,-0.8008,-0.7845,-0.7502,-0.7258,-0.7231,-0.7328,-0.7868,0.0,0.0,0.0,-0.8939,-1.0151,-0.9928,-1.1132,0.0,-1.1916,-1.1671,-1.1557,-1.1746,-1.2106,-1.2302,-1.2143,-1.2566,-1.2906,-1.2824,-1.2946,-1.3173,-1.3539,-1.362,-1.3628,-1.3636,-1.3652,-1.3146,-1.1579,-1.1703,-1.1294,-0.9644,-0.925,-0.8993,-0.9023,-0.8813,-0.8578,0.0,-0.9034,-0.8578,-0.726,-0.8489,-0.9291,-0.9291,-0.9291,-0.9291,-0.9147,-0.9147,-0.9029,-0.8788,-0.74,-0.7301,-0.8573,-0.8682,-0.9484,-1.0683,-1.2689,-1.279,-1.1348,-1.3341,-1.3518,-1.2164,-1.1996,-1.2824,-1.4547,-1.5479,-1.6877,-1.8518,-2.0348,-2.2628,-2.5151,0.0,0.0,0.0,0.0,0.0,0.0,0.0,0.0,0.0,0.0,0.0,0.0,0.0,0.0,0.0,0.0,0.0,0.0,0.0,-1.3707,-1.4121,-1.4567,-1.4996,-1.5403,-1.5753,-1.603,-1.6332,-1.6682,-1.6875,-1.6471,-1.5682,-1.5216,-1.4103,-1.2365,-1.1495,-1.0426,-0.9311,-0.8817,-0.8469,-0.7981,-0.7867,-0.7698,-0.7464,-0.6986,-0.6757,-0.6648,0.0,0.0,0.0,-0.7196,-0.8193,-0.9316,-0.9037,-1.0149,-1.1531,-1.1468,-1.1557,-1.1794,-1.2134,-1.2413,-1.2767,-1.2943,-1.319,-1.3375,-1.3271,-1.3417,-1.3457,-1.3465,-1.3173,-1.2889,-1.2775,-1.2848,-1.2484,-1.1111,-1.1342,-1.1078,-0.9766,-0.9457,-0.9742,-1.0223,-1.0536,0.0,0.0,0.0,0.0,-0.9925,-1.0462,-1.1305,-1.2316,-1.1442,-1.0868,-1.0868,-0.9867,-0.9209,-0.9046,-0.8547,-0.8469,-0.8944,-0.985,-1.0839,-1.2157,-1.4482,-1.5107,-1.4385,-1.6639,-1.7185,-1.6431,-1.656,-1.685,-1.7451,-1.7503,-1.8432,-1.9683,-1.8617,-1.8158,-1.8479,0.0,0.0,0.0,0.0,0.0,0.0,0.0,0.0,0.0,0.0,0.0,0.0,0.0,0.0,0.0,0.0,0.0,0.0,0.0,0.0,-1.3516,-1.395,-1.4098,-1.4301,-1.4546,-1.4596,-1.4698,-1.4964,-1.4984,-1.4514,-1.3578,-1.3163,-1.2186,-1.0514,-1.025,-0.9471,-0.8296,-0.838,-0.824,-0.772,-0.7568,-0.7355,-0.7084,-0.666,-0.6372,0.0,0.0,0.0,0.0,-0.693,-0.7814,-0.8825,-0.8792,-0.9828,-1.1047,-1.1246,-1.1605,-1.202,-1.2446,-1.2772,-1.3143,-1.3541,-1.3592,-1.3679,-1.3579,-1.3539,-1.3376,-1.3133,-1.2702,-1.2304,-1.206,-1.2052,-1.1846,-1.1207,-1.144,-1.1559,-1.1002,-1.0831,-1.1266,-1.2587,-1.2866,-1.3279,0.0,0.0,0.0,-1.2894,-1.3467,-1.4356,-1.5443,-1.4574,-1.3713,-1.3294,-1.2294,-1.1368,-1.0805,-1.0101,-0.971,-0.9757,-1.1077,-1.2059,-1.2832,-1.5327,-1.6244,-1.5876,-1.8924,-1.9834,-1.9345,-1.9415,-1.9561,-1.9536,-1.8526,-1.8252,-1.8213,-1.6332,-1.4207,-1.2862,0.0,0.0,0.0,0.0,0.0,0.0,0.0,0.0,0.0,0.0,0.0,0.0,0.0,0.0,0.0,0.0,0.0,0.0,0.0,0.0,0.0,-1.3361,-1.2768,-1.2574,-1.2898,-1.2548,-1.2363,-1.2453,-1.2048,-1.1726,-1.1447,-1.0444,-0.9906,-0.9638,-0.8396,-0.7774,-0.753,-0.753,-0.7442,-0.7127,-0.7116,-0.6733,-0.6321,-0.6198,0.0,0.0,0.0,0.0,0.0,-0.6994,-0.7939,-0.8931,-0.9221,-1.0216,-1.1274,-1.1482,-1.185,-1.2285,-1.2729,-1.3223,-1.3689,-1.384,-1.3806,-1.3838,-1.3579,-1.3327,-1.2954,-1.2596,-1.2215,-1.1841,0.0,0.0,-1.1479,-1.2045,-1.2307,-1.2767,-1.3678,-1.3513,-1.4019,0.0,0.0,0.0,0.0,0.0,0.0,-1.6058,0.0,-1.8026,-1.839,-1.8401,-1.77,-1.6291,-1.615,-1.5502,-1.3792,-1.2212,-1.1274,-1.0836,-1.2342,-1.3011,-1.2964,-1.5465,-1.638,-1.6382,-1.9986,-2.1351,-2.106,-2.0802,-2.0758,-2.0779,-1.8738,-1.668,-1.468,-1.3918,-1.1325,-0.8764,0.0,0.0,0.0,0.0,0.0,0.0,0.0,0.0,0.0,0.0,0.0,0.0,0.0,0.0,0.0,0.0,0.0,0.0,0.0,0.0,0.0,0.0,0.0,0.0,0.0,0.0,0.0,0.0,0.0,-1.1227,-1.0129,-0.9004,-0.793,-0.6951,-0.6398,-0.6084,-0.5934,-0.5934,-0.5887,-0.5798,0.0,-0.5464,-0.5309,0.0,0.0,0.0,0.0,0.0,0.0,-0.7384,-0.86,-0.9987,-1.0547,-1.1107,-1.1699,-1.1917,-1.2163,-1.2643,-1.3601,-1.3816,-1.3776,-1.4437,-1.406,-1.3653,-1.3287,-1.2856,-1.241,-1.2052,-1.2061,-1.1964,0.0,0.0,0.0,-1.3003,-1.3439,0.0,-1.5575,-1.5919,0.0,-1.784,0.0,-1.8735,-1.9776,-1.9953,0.0,0.0,-1.9678,-1.8573,-1.8638,-1.8638,-1.8421,-1.783,-1.783,-1.7658,-1.7187,-1.557,-1.384,-1.2305,-1.3014,-1.3671,-1.439,-1.6002,-1.7036,-1.7749,-1.9548,-2.0096,-1.9822,-1.9809,-1.9747,-1.9672,-1.7609,-1.6529,-1.559,-1.3168,-1.0997,-0.9348,0.0,0.0,0.0,0.0,0.0,0.0,0.0,0.0,0.0,0.0,0.0,0.0,0.0,0.0,0.0,0.0,0.0,0.0,0.0,0.0,0.0,0.0,0.0,0.0,0.0,0.0,0.0,0.0,0.0,0.0,0.0,-0.7177,-0.6339,-0.5459,-0.5311,-0.5226,-0.5218,-0.5174,0.0,0.0,0.0,0.0,0.0,0.0,0.0,0.0,0.0,0.0,0.0,0.0,0.0,-1.0399,-1.1281,-1.1793,-1.207,-1.2376,-1.2551,-1.3166,-1.476,-1.5158,-1.5275,-1.6341,-1.6125,-1.5428,-1.479,-1.4131,-1.3463,-1.2878,-1.2663,-1.2501,-1.2193,-1.2829,0.0,0.0,0.0,0.0,-1.7086,-1.742,-1.8112,0.0,-2.0146,0.0,-2.1799,-2.2027,-2.2525,0.0,-2.1882,-2.0793,-2.1042,-2.1054,-2.0556,-1.9838,-1.9685,-1.9256,-1.8239,-1.7607,-1.6432,-1.479,-1.5199,-1.5769,-1.6227,-1.7435,-1.8209,-1.8577,0.0,-2.053,-1.9676,-2.0815,-2.0845,-2.0127,-1.9299,-1.8577,-1.765,-1.5747,-1.38,-1.2386,0.0,0.0,0.0,0.0,0.0,0.0,0.0,0.0,0.0,0.0,0.0,0.0,0.0,0.0,0.0,0.0,0.0,0.0,0.0,0.0,0.0,0.0,0.0,0.0,0.0,0.0,0.0,0.0,0.0,0.0,0.0,0.0,0.0,0.0,0.0,0.0,0.0,0.0,0.0,0.0,0.0,0.0,0.0,0.0,0.0,0.0,0.0,0.0,0.0,0.0,-1.0255,-1.0673,-1.17,-1.211,-1.2284,-1.2822,-1.3215,-1.4016,-1.6054,-1.6833,-1.7449,-1.8648,-1.8539,-1.7686,-1.6772,-1.585,-1.4906,-1.4017,-1.3605,-1.3268,-1.2953,-1.3091,-1.3612,-1.4625,0.0,-1.6153,-1.816,-1.8479,-1.9541,-2.1849,-2.2162,-2.2612,-2.3731,-2.4263,-2.4501,-2.4526,-2.4195,-2.4145,-2.4093,-2.4419,-2.395,-2.2418,-2.2443,-2.1371,-1.882,-1.9189,-1.8805,-1.7554,-1.8101,-1.845,-1.8474,-1.9603,-1.9986,-1.9903,0.0,0.0,-2.0496,-2.2674,-2.272,-2.1472,-2.2023,-2.1395,-2.0197,-1.969,-1.8262,-1.6839,0.0,0.0,0.0,0.0,0.0,0.0,0.0,0.0,0.0,0.0,-1.6319,-1.6154,0.0,0.0,0.0,0.0,0.0,0.0,0.0,0.0,0.0,0.0,0.0,0.0,0.0,0.0,0.0,0.0,0.0,0.0,0.0,0.0,0.0,0.0,0.0,0.0,0.0,0.0,0.0,0.0,0.0,0.0,0.0,0.0,0.0,0.0,0.0,-0.9107,-0.9613,-1.0694,-1.1362,-1.1693,-1.188,-1.2276,-1.2689,-1.3233,-1.4208,-1.5463,-1.6651,-1.7736,-1.8595,-1.8749,-1.8014,-1.7109,-1.6122,-1.5123,0.0,-1.3713,-1.3883,-1.3956,-1.3673,-1.4703,-1.5614,-1.5611,-1.6284,-1.7514,-1.9551,-2.0012,-2.1163,0.0,-2.4616,-2.4901,-2.4582,-2.653,0.0,0.0,0.0,0.0,-2.6084,-2.762,-2.8067,-2.72,-2.7461,-2.5974,-2.2631,-2.2349,-2.0984,-1.8178,-1.931,-2.0416,-2.1384,-2.2994,-2.3823,-2.4163,0.0,0.0,-2.3021,-2.3368,-2.3292,-2.2717,-2.2466,-2.2088,-2.1726,-2.1665,-2.1665,-2.1726,0.0,0.0,0.0,0.0,0.0,0.0,0.0,-1.6317,-1.6333,-1.6683,-1.673,-1.6566,-1.6237,-1.6237,-1.556,0.0,0.0,0.0,0.0,0.0,0.0,0.0,0.0,0.0,0.0,0.0,0.0,0.0,0.0,0.0,0.0,0.0,0.0,0.0,0.0,0.0,0.0,0.0,0.0,0.0,0.0,0.0,0.0,0.0,0.0,0.0,0.0,0.0,-1.0126,-1.0815,-1.1203,-1.1611,-1.1994,-1.225,-1.261,-1.3071,-1.4381,-1.6037,-1.7663,-1.9226,-2.0425,-2.1028,-2.0099,-1.8961,-1.7867,0.0,0.0,-1.5258,-1.523,-1.523,-1.5042,-1.5668,-1.6295,-1.6453,-1.7313,-1.8437,-2.0234,-2.0958,-2.2167,-2.4595,-2.5412,-2.6164,0.0,0.0,0.0,0.0,0.0,0.0,-2.8259,-2.912,-2.9489,-2.9138,-2.9297,-2.8333,-2.6349,-2.6364,-2.5331,-2.3324,-2.3854,-2.4372,-2.4745,-2.5388,-2.5778,-2.5961,0.0,0.0,-2.4515,-2.5425,-2.5167,-2.4232,-2.4548,-2.4384,-2.4088,-2.4088,-2.4593,-2.5237,0.0,0.0,0.0,0.0,0.0,0.0,0.0,-1.6254,-1.6333,-1.6683,-1.673,-1.673,-1.673,-1.673,-1.5891,0.0,0.0,0.0,0.0,0.0,0.0,0.0,0.0,0.0,0.0,0.0,0.0,0.0,0.0,0.0,0.0,0.0,0.0,0.0,0.0,0.0,0.0,0.0,0.0,0.0,0.0,0.0,0.0,0.0,0.0,0.0,0.0,0.0,-1.0408,-1.0395,-1.0741,-1.1141,-1.1518,-1.2004,-1.2373,-1.319,-1.4744,-1.6692,-1.8823,-2.065,-2.2224,-2.3113,-2.2069,-2.0645,-1.9503,-1.8365,-1.726,-1.67,-1.6358,-1.6129,-1.6129,-1.613,-1.637,0.0,-1.7662,-1.8744,-2.0267,-2.1189,-2.2599,0.0,-2.5869,0.0,-2.8506,0.0,0.0,0.0,0.0,0.0,0.0,-3.1006,-3.0973,-3.0891,-3.0956,-3.0549,-2.977,-2.9965,-2.9466,-2.8269,-2.8325,-2.8186,-2.7749,-2.7736,-2.78,-2.7619,0.0,0.0,0.0,-2.7445,-2.7218,-2.5874,-2.6499,-2.6463,-2.6096,-2.6096,-2.6717,-2.7649,0.0,0.0,0.0,0.0,0.0,0.0,0.0,-1.6412,-1.6333,-1.6683,-1.673,-1.673,-1.673,-1.673,-1.6221,0.0,0.0,0.0,0.0,0.0,0.0,0.0,0.0,0.0,0.0,0.0,0.0,0.0,0.0,0.0,0.0,0.0,0.0,0.0,0.0,0.0,0.0,0.0,0.0,0.0,0.0,0.0,0.0,0.0,0.0,0.0,0.0,0.0,0.0,0.0,0.0,-1.0399,-1.0402,-1.0962,-1.1918,-1.3861,0.0,0.0,-2.032,-2.2241,-2.3545,-2.3394,-2.179,-2.0147,-1.9462,0.0,-1.6718,-1.6658,-1.6364,-1.6077,-1.5906,-1.5749,-1.5859,-1.6357,-1.6874,-1.7889,-1.9639,-2.0414,-2.182,-2.4727,0.0,0.0,0.0,0.0,0.0,0.0,0.0,0.0,0.0,-3.5066,-3.4885,-3.4541,-3.4867,-3.4248,-3.2339,-3.2193,-3.1086,-2.9234,-3.0316,-3.0327,-2.9628,-3.0954,-3.1081,-3.0393,0.0,0.0,0.0,-2.8783,-2.8205,-2.7048,-2.7141,-2.6885,-2.6536,-2.6536,-2.758,-2.8926,0.0,0.0,0.0,0.0,0.0,0.0,-1.6349,-1.6301,-1.6333,-1.6683,-1.673,-1.673,-1.673,-1.673,-1.6221,-1.513,0.0,0.0,0.0,0.0,0.0,0.0,0.0,0.0,0.0,0.0,0.0,0.0,0.0,0.0,0.0,0.0,0.0,0.0,0.0,0.0,0.0,0.0,0.0,0.0,0.0,0.0,0.0,0.0,0.0,0.0,0.0,0.0,0.0,0.0,0.0,0.0,-1.1658,-1.2001,0.0,0.0,-1.5947,-1.8594,-1.9869,-2.1747,-2.3394,-2.2899,-2.1229,-1.9533,-1.8937,0.0,-1.6457,-1.6616,-1.6397,-1.622,-1.622,-1.6033,-1.5833,-1.5965,-1.6353,0.0,-1.915,-1.9963,-2.1818,-2.5769,-2.6837,0.0,0.0,0.0,0.0,0.0,0.0,0.0,0.0,-3.5522,-3.5192,-3.5045,-3.5174,-3.4885,-3.4126,-3.4215,-3.3641,-3.2436,-3.2613,-3.2176,-3.1193,-3.1738,-3.1689,-3.1139,0.0,0.0,0.0,-2.9993,-2.9699,-2.9424,-2.8745,-2.8331,-2.8179,-2.8179,-2.8649,-2.9494,0.0,0.0,0.0,0.0,0.0,-1.6635,-1.6349,-1.6365,-1.6444,-1.6698,-1.673,-1.6778,-1.6889,-1.6794,-1.6433,-1.5777,-1.5604,0.0,0.0,0.0,0.0,0.0,0.0,0.0,0.0,0.0,-1.0096,-1.0212,-0.9777,0.0,0.0,0.0,0.0,0.0,0.0,0.0,0.0,0.0,0.0,0.0,0.0,0.0,0.0,0.0,0.0,0.0,0.0,0.0,0.0,0.0,0.0,0.0,-1.2559,-1.2841,-1.3266,-1.3696,-1.5963,-1.8472,-1.9509,-2.1159,-2.2605,-2.2352,-2.0748,-1.9105,0.0,0.0,-1.6224,-1.64,-1.64,-1.6494,-1.6951,-1.6669,-1.648,-1.6749,-1.6661,-1.7134,-1.8745,-1.9333,-2.0996,0.0,0.0,0.0,0.0,0.0,0.0,0.0,0.0,0.0,0.0,0.0,-3.5375,-3.5375,-3.5375,-3.532,-3.521,-3.5485,-3.521,-3.4403,-3.4,-3.3248,-3.2184,-3.2056,-3.1781,0.0,0.0,0.0,0.0,-3.1346,-3.1149,-3.1043,-3.0069,-2.9668,-2.9551,-2.9551,-2.9908,-3.0411,0.0,0.0,0.0,0.0,0.0,0.0,-1.6683,-1.673,-1.673,-1.673,-1.673,-1.6873,-1.7239,-1.6953,-1.6873,-1.7239,-1.6937,0.0,0.0,0.0,0.0,0.0,0.0,0.0,0.0,0.0,-1.0549,-1.1791,-1.0309,-1.0028,-1.0982,0.0,0.0,0.0,0.0,0.0,0.0,0.0,0.0,0.0,0.0,0.0,0.0,0.0,0.0,0.0,0.0,0.0,0.0,0.0,0.0,0.0,0.0,-1.303,-1.4025,-1.5481,-1.6377,-1.7326,-1.9916,-2.0909,-2.1269,-2.1844,-2.0441,-1.8851,0.0,0.0,-1.6224,-1.6224,-1.64,-1.6857,-1.7855,-1.787,-1.7963,-1.8948,-1.8056,-1.7567,-1.8527,-1.8296,-1.892,0.0,0.0,0.0,0.0,0.0,0.0,0.0,0.0,0.0,0.0,0.0,-3.6201,-3.6201,-3.6201,-3.6017,-3.5614,-3.5614,-3.521,-3.4403,-3.4,-3.3376,-3.257,-3.2184,0.0,0.0,0.0,0.0,0.0,-3.2694,-3.227,-3.1083,-3.1063,-3.0802,-3.055,-3.055,-3.1079,-3.1734,0.0,0.0,0.0,0.0,0.0,0.0,0.0,-1.673,-1.673,-1.673,-1.673,-1.6778,-1.6889,-1.681,-1.6778,-1.6905,-1.6794,0.0,0.0,0.0,0.0,0.0,0.0,0.0,0.0,0.0,-1.1623,-1.1787,-1.1133,-1.1047,-1.1541,-1.1219,-1.0634,0.0,0.0,0.0,0.0,0.0,0.0,0.0,0.0,0.0,0.0,0.0,0.0,0.0,0.0,0.0,0.0,0.0,0.0,0.0,0.0,0.0,0.0,-1.5752,-1.6413,-1.7329,-1.8526,-1.9386,-1.992,-1.9893,-1.8945,-1.7929,-1.7635,-1.6773,-1.6021,-1.613,-1.6116,-1.6386,-1.7591,-1.7777,-1.8039,-1.9098,-1.8486,-1.8282,0.0,0.0,0.0,0.0,0.0,0.0,0.0,0.0,0.0,0.0,0.0,0.0,0.0,0.0,0.0,-3.5815,-3.5797,-3.5614,-3.5229,-3.5485,-3.521,-3.4403,-3.4,-3.3376,-3.2588,-3.2184,0.0,0.0,0.0,0.0,0.0,-3.4001,-3.4547,-3.4338,-3.3738,-3.3402,-3.3256,-3.2945,-3.2746,-3.2748,0.0,0.0,0.0,0.0,0.0,0.0,0.0,-1.673,-1.673,-1.673,-1.673,-1.6794,-1.6921,-1.681,-1.6794,-1.6921,-1.6727,0.0,0.0,0.0,0.0,0.0,0.0,0.0,-1.5061,-1.3626,-1.3037,-1.3366,-1.2345,-1.2163,-1.2723,-1.2469,-1.1809,-1.0921,-1.0634,0.0,0.0,0.0,0.0,0.0,0.0,0.0,-1.1626,0.0,0.0,0.0,0.0,0.0,0.0,0.0,0.0,0.0,0.0,0.0,0.0,0.0,-1.6047,-1.6464,-1.7288,-1.8023,-1.8544,-1.8584,-1.7996,0.0,-1.7048,-1.638,-1.5927,-1.6494,-1.6574,-1.6842,-1.8041,-1.8519,-1.8859,-1.9252,-1.8738,0.0,0.0,0.0,0.0,0.0,0.0,0.0,0.0,0.0,0.0,0.0,0.0,0.0,0.0,0.0,0.0,-3.6109,-3.5779,-3.543,-3.5027,-3.5119,-3.4825,-3.4165,-3.3615,-3.3083,-3.257,0.0,0.0,0.0,0.0,0.0,0.0,-3.5149,-3.5919,-3.5954,-3.5349,-3.5115,-3.5072,-3.4795,-3.4496,-3.4197,0.0,0.0,0.0,0.0,0.0,0.0,0.0,-1.673,-1.673,-1.673,-1.673,-1.6857,-1.7207,-1.6937,-1.6873,-1.7207,0.0,0.0,0.0,0.0,0.0,0.0,0.0,0.0,-1.6687,-1.4894,-1.4629,-1.592,-1.3828,-1.3451,-1.4475,-1.3252,-1.2504,-1.2116,-1.1237,-1.0519,0.0,0.0,0.0,0.0,0.0,0.0,0.0,0.0,0.0,0.0,0.0,0.0,0.0,0.0,0.0,0.0,0.0,0.0,0.0,0.0,0.0,0.0,0.0,-1.678,-1.7168,-1.7742,-1.7566,-1.7082,-1.68,-1.6316,0.0,-1.7232,-1.7512,-1.7963,-1.8856,-1.9786,-2.0076,-1.9271,-1.8904,0.0,0.0,-1.8047,0.0,0.0,0.0,0.0,0.0,0.0,0.0,0.0,0.0,0.0,0.0,0.0,0.0,0.0,-3.6054,-3.5449,-3.5082,-3.466,-3.4238,-3.3853,-3.2991,-3.2588,-3.257,0.0,0.0,0.0,0.0,0.0,0.0,-3.6167,-3.6479,-3.6063,-3.6063,-3.6063,-3.6063,-3.6042,-3.6042,-3.6063,0.0,0.0,0.0,0.0,0.0,0.0,0.0,0.0,0.0,0.0,-1.673,-1.6762,-1.6857,-1.6778,-1.6778,0.0,0.0,0.0,0.0,0.0,0.0,0.0,0.0,0.0,-1.6216,-1.4977,-1.481,-1.5854,-1.4657,-1.4657,-1.5854,-1.5418,-1.4696,-1.379,-1.3117,-1.169,0.0,0.0,0.0,0.0,0.0,0.0,0.0,0.0,0.0,0.0,-1.3794,-1.4036,0.0,0.0,0.0,0.0,0.0,0.0,0.0,0.0,-1.5345,-1.5474,-1.5562,0.0,-1.5899,-1.6259,-1.6829,-1.7266,0.0,-1.7616,-1.8149,-1.8427,-1.7885,-1.7699,-1.8688,-1.8611,-1.8597,-1.9223,0.0,0.0,0.0,0.0,0.0,0.0,0.0,0.0,0.0,0.0,0.0,0.0,0.0,0.0,0.0,0.0,0.0,0.0,-3.6201,-3.5577,-3.5485,-3.5082,-3.4678,-3.4257,-3.3138,-3.2588,0.0,0.0,0.0,0.0,0.0,0.0,0.0,-3.6643,-3.7156,-3.7046,-3.7046,-3.7046,-3.7003,-3.6653,-3.6741,-3.6937,0.0,0.0,0.0,0.0,0.0,0.0,0.0,0.0,0.0,0.0,0.0,0.0,0.0,0.0,0.0,0.0,0.0,0.0,0.0,0.0,0.0,0.0,0.0,-1.6087,-1.6087,-1.5555,-1.5544,-1.6217,-1.5544,-1.5786,-1.6815,-1.6561,-1.6042,-1.5199,-1.4028,-1.2516,0.0,0.0,0.0,0.0,0.0,0.0,0.0,0.0,0.0,0.0,-1.4194,-1.4308,0.0,-1.4582,-1.4878,-1.5118,0.0,0.0,0.0,0.0,-1.5995,-1.604,-1.6414,-1.5979,-1.5454,-1.5658,-1.6195,-1.6763,-1.7232,-1.7699,-1.8241,-1.8703,-1.8334,-1.7963,-1.8056,-1.8149,-1.8163,0.0,-1.8104,0.0,0.0,0.0,0.0,0.0,0.0,0.0,0.0,0.0,0.0,0.0,0.0,0.0,0.0,0.0,0.0,0.0,0.0,-3.5724,-3.5357,-3.477,-3.4367,-3.4128,-3.3421,-3.3058,-3.2836,0.0,0.0,0.0,0.0,0.0,-3.6763,-3.7747,-3.7945,-3.7702,-3.7702,-3.7571,-3.7352,-3.709,-3.7156,-3.7309,0.0,0.0,0.0,0.0,0.0,0.0,0.0,0.0,0.0,0.0,0.0,0.0,0.0,0.0,0.0,0.0,0.0,0.0,0.0,0.0,0.0,0.0,-1.6035,-1.6004,-1.6004,-1.6025,-1.6244,-1.6514,-1.6305,-1.6642,-1.7352,-1.7103,-1.6737,-1.6294,-1.4583,-1.3259,0.0,0.0,0.0,0.0,-1.4139,0.0,0.0,0.0,0.0,0.0,0.0,0.0,0.0,-1.4741,-1.4943,-1.534,-1.5658,0.0,0.0,0.0,0.0,0.0,-1.753,-1.6748,-1.5715,-1.5888,-1.6071,-1.6386,-1.7326,-1.7699,-1.8056,-1.9072,-1.898,-1.8519,-1.7699,-1.8009,0.0,0.0,0.0,0.0,0.0,0.0,0.0,0.0,0.0,0.0,0.0,0.0,0.0,0.0,0.0,0.0,0.0,0.0,0.0,0.0,0.0,0.0,-3.5263,-3.4312,-3.3927,-3.4139,-3.3898,-3.3666,-3.3615,-3.5611,0.0,0.0,0.0,0.0,-3.85,-3.8873,-3.8709,-3.8218,-3.8095,-3.7855,-3.7483,-3.7483,-3.7483,-3.7505,0.0,0.0,0.0,0.0,0.0,0.0,0.0,0.0,0.0,0.0,0.0,0.0,0.0,0.0,0.0,0.0,0.0,0.0,0.0,0.0,0.0,-1.5918,-1.5654,-1.559,-1.5741,-1.5634,-1.5747,-1.6163,-1.6184,-1.6435,-1.6994,-1.7243,-1.709,-1.6623,-1.4984,-1.4229,-1.413,-1.3455,-1.362,-1.4307,-1.4307,0.0,0.0,0.0,0.0,0.0,0.0,0.0,0.0,-1.5479,-1.5711,-1.5922,-1.6004,0.0,0.0,0.0,0.0,0.0,-1.6314,-1.6858,-1.7326,-1.7176,-1.7261,-1.7684,-1.8688,-1.9422,-2.0076,-2.1087,-1.9985,-1.8796,0.0,-1.7545,-1.6676,0.0,0.0,0.0,0.0,0.0,0.0,0.0,0.0,0.0,0.0,0.0,0.0,0.0,0.0,0.0,0.0,0.0,0.0,0.0,0.0,0.0,0.0,-3.5,-3.4637,-3.5272,-3.4296,-3.4318,-3.5261,-3.6119,-3.6865,0.0,0.0,0.0,-3.9094,-3.9115,-3.9075,-3.8831,-3.8341,-3.8051,-3.7986,-3.7986,-3.7986,-3.8051,0.0,0.0,0.0,0.0,0.0,0.0,0.0,0.0,0.0,0.0,0.0,0.0,0.0,0.0,0.0,0.0,0.0,0.0,0.0,0.0,-1.6244,-1.6329,-1.5948,-1.5613,-1.5506,-1.5035,-1.5289,-1.6365,-1.636,-1.6698,-1.7369,-1.7443,-1.7249,-1.6698,-1.592,-1.5343,-1.4916,-1.4778,-1.481,-1.4908,0.0,0.0,0.0,0.0,0.0,0.0,0.0,0.0,0.0,0.0,-1.6004,-1.6087,-1.6237,0.0,0.0,0.0,0.0,0.0,-1.7227,-1.7534,-1.783,-1.8009,-1.7621,-1.7355,-1.8179,-1.8964,-1.9438,-1.9347,-1.9124,0.0,0.0,0.0,-1.7445,0.0,0.0,0.0,0.0,0.0,0.0,0.0,0.0,0.0,0.0,0.0,0.0,0.0,0.0,0.0,0.0,0.0,0.0,0.0,0.0,0.0,0.0,-3.5435,-3.4995,-3.5548,-3.5262,-3.5026,-3.5152,-3.6371,-3.7044,0.0,0.0,-3.8931,-3.853,-3.9388,-3.9454,-3.8985,-3.9355,-3.9601,-3.9579,-3.9309,-3.8797,-3.8321,0.0,0.0,0.0,0.0,0.0,0.0,0.0,0.0,0.0,0.0,0.0,0.0,0.0,0.0,0.0,0.0,0.0,0.0,0.0,0.0,-1.6268,-1.652,-1.6024,-1.5648,-1.5657,-1.4851,-1.5096,-1.6448,-1.6395,-1.672,-1.7283,-1.7398,-1.7143,-1.6578,-1.655,-1.6199,-1.5548,-1.5906,-1.586,-1.5624,0.0,0.0,0.0,0.0,0.0,0.0,0.0,0.0,0.0,0.0,0.0,0.0,0.0,0.0,0.0,-1.6878,-1.7041,-1.7122,-1.7811,-1.7948,-1.784,-1.8179,-1.7516,-1.7063,-1.7956,-1.8563,-1.8752,-1.8438,-1.909,0.0,0.0,0.0,0.0,0.0,0.0,0.0,0.0,0.0,0.0,0.0,0.0,0.0,0.0,0.0,0.0,0.0,0.0,0.0,0.0,0.0,0.0,0.0,0.0,0.0,0.0,-3.6017,-3.5597,-3.5686,-3.5869,-3.5684,-3.5485,-3.6659,-3.7307,-3.7233,-3.8355,-3.846,-3.8038,-3.9401,-3.9528,-3.8843,-3.9993,-4.0738,-4.1038,-4.0295,-3.9574,-3.8769,0.0,0.0,0.0,0.0,0.0,0.0,0.0,0.0,0.0,0.0,0.0,0.0,0.0,0.0,0.0,0.0,0.0,0.0,0.0,0.0,-1.6163,-1.595,-1.5395,-1.5431,-1.6301,-1.5676,-1.5542,-1.6182,-1.6309,-1.6252,-1.5866,-1.6784,-1.6922,-1.6411,-1.6202,-1.6199,-1.6505,-1.6521,-1.6405,-1.6119,-1.6119,0.0,0.0,0.0,0.0,0.0,0.0,0.0,0.0,0.0,0.0,0.0,0.0,0.0,-1.6319,-1.6252,-1.6566,-1.694,-1.659,-1.7366,-1.8065,-1.7517,-1.7167,-1.75,-1.9355,-1.9385,-1.9517,-2.1196,-2.136,-2.1043,0.0,0.0,0.0,0.0,0.0,0.0,0.0,0.0,0.0,0.0,0.0,0.0,0.0,0.0,0.0,0.0,0.0,0.0,0.0,0.0,0.0,0.0,0.0,0.0,0.0,-3.73,-3.6732,-3.6085,-3.5701,-3.6071,-3.7184,-3.7184,-3.7674,-3.8499,-3.9104,-3.9038,-3.8521,-3.8488,-3.8551,-3.8551,-3.9343,-4.036,-4.1397,-4.041,-4.0043,-3.9825,0.0,0.0,0.0,0.0,0.0,0.0,0.0,0.0,0.0,0.0,0.0,0.0,0.0,0.0,0.0,0.0,0.0,0.0,0.0,-1.6149,-1.6238,-1.6184,-1.5777,-1.582,-1.636,-1.507,-1.4996,-1.6295,-1.7558,-1.7204,-1.5407,-1.5108,-1.5076,-1.5114,-1.4823,-1.5044,-1.5469,-1.5571,-1.5719,-1.6007,-1.6198,-1.6345,0.0,0.0,0.0,0.0,0.0,0.0,0.0,0.0,-1.6838,-1.673,0.0,-1.6648,-1.6566,-1.6319,-1.6474,-1.6691,-1.6354,-1.6952,-1.7627,-1.739,-1.7849,-1.8429,-1.8644,-1.9861,-2.0955,-2.1248,-2.2164,-2.2824,-2.2905,0.0,0.0,0.0,0.0,0.0,0.0,0.0,0.0,0.0,0.0,0.0,0.0,0.0,0.0,0.0,0.0,0.0,0.0,0.0,0.0,0.0,0.0,0.0,0.0,-3.7109,-3.668,-3.5976,-3.623,-3.6328,-3.6415,-3.6415,-3.6716,-3.6953,-3.7269,-3.7085,-3.6697,-3.7785,-3.8068,-3.8119,-4.0356,-4.1103,-4.1176,-4.1962,-4.1242,-3.9814,0.0,0.0,0.0,0.0,0.0,0.0,0.0,0.0,0.0,0.0,0.0,0.0,0.0,0.0,0.0,0.0,0.0,0.0,-1.6,-1.6019,-1.6122,-1.6067,-1.6067,-1.6111,-1.6228,-1.5338,-1.552,-1.7037,-1.8522,-1.7544,-1.4106,-1.3292,-1.3204,-1.3893,-1.3944,-1.4327,-1.4967,-1.5057,-1.55,-1.6228,-1.633,-1.6433,0.0,0.0,0.0,0.0,0.0,0.0,0.0,0.0,0.0,0.0,0.0,0.0,0.0,-1.6319,-1.6323,-1.6284,-1.6134,-1.6536,-1.7077,-1.7282,-1.8845,-2.0247,-1.9628,-2.0934,-2.2437,-2.2577,-2.3875,-2.5145,-2.572,0.0,0.0,0.0,0.0,0.0,0.0,0.0,0.0,0.0,0.0,0.0,0.0,0.0,0.0,0.0,0.0,0.0,0.0,0.0,0.0,0.0,0.0,0.0,0.0,-3.6953,-3.6523,-3.623,-3.6387,-3.6309,-3.6016,-3.6016,-3.5937,-3.582,-3.582,-3.5664,-3.5544,-3.6737,-3.7422,-3.7957,-4.0083,-4.0822,-4.074,-4.1793,-4.1136,-3.9516,0.0,0.0,0.0,0.0,0.0,0.0,0.0,0.0,0.0,0.0,0.0,0.0,0.0,0.0,0.0,0.0,0.0,0.0,-1.6087,-1.5985,-1.576,-1.5438,-1.6023,-1.6213,-1.5921,-1.6843,-1.7601,-1.8282,-1.895,-1.6714,-1.1754,-1.1391,-1.1836,-1.2961,-1.3541,-1.4334,-1.5193,-1.5272,-1.5915,-1.6828,-1.6506,-1.6565,-1.6919,0.0,0.0,0.0,0.0,0.0,0.0,0.0,-1.6865,0.0,0.0,0.0,0.0,0.0,-1.5922,-1.5747,-1.5833,-1.614,-1.6535,-1.7179,-2.0039,-2.2792,-2.2846,-2.295,-2.3813,-2.6032,-2.6994,-2.7888,-2.9634,-2.9697,0.0,0.0,0.0,0.0,0.0,0.0,0.0,0.0,0.0,0.0,0.0,0.0,0.0,0.0,0.0,0.0,0.0,0.0,0.0,0.0,0.0,0.0,0.0,-3.709,-3.668,-3.666,-3.623,-3.6016,-3.6016,-3.6016,-3.5801,-3.541,-3.541,-3.541,-3.541,-3.541,-3.641,-3.8109,-3.8109,-3.8904,-4.0148,-3.9539,-3.9343,-3.9194,0.0,0.0,0.0,0.0,0.0,0.0,0.0,0.0,0.0,0.0,0.0,0.0,0.0,0.0,0.0,0.0,0.0,0.0,-1.5673,-1.5678,-1.5678,-1.5438,-1.5613,-1.5774,-1.5906,-1.6839,-1.7823,-1.897,-1.5894,-1.3648,-1.2214,-1.1554,-1.1875,-1.3138,-1.2903,-1.3683,-1.5272,-1.5364,-1.6021,-1.6872,-1.6989,-1.7106,-1.7179,0.0,0.0,0.0,0.0,0.0,0.0,0.0,0.0,0.0,0.0,0.0,0.0,-1.6438,-1.6601,-1.6669,-1.6535,-1.6728,0.0,-1.8597,0.0,0.0,0.0,-2.5874,-2.6644,-2.8175,-2.9517,-3.0414,-3.0715,0.0,0.0,0.0,0.0,0.0,0.0,0.0,0.0,0.0,0.0,0.0,0.0,0.0,0.0,0.0,0.0,0.0,0.0,0.0,0.0,0.0,0.0,0.0,0.0,0.0,-3.6816,-3.6211,-3.6074,-3.6016,-3.6016,-3.6016,-3.5957,-3.584,-3.584,-3.584,-3.584,-3.584,-3.6169,-3.6674,-3.7729,-3.8374,-3.8882,-3.965,-3.9346,-3.8408,0.0,0.0,0.0,0.0,0.0,0.0,0.0,0.0,0.0,0.0,-1.7479,-1.7235,0.0,0.0,0.0,0.0,0.0,0.0,0.0,-1.5782,-1.5698,-1.5613,-1.5628,-1.5891,-1.6462,-1.6843,-1.7698,-1.8865,-1.5035,-1.277,-1.1895,-1.1381,-1.2013,-1.3489,-1.3659,-1.4557,-1.579,-1.5859,-1.6313,-1.7047,-1.7121,-1.7135,-1.7135,0.0,0.0,0.0,0.0,0.0,0.0,0.0,0.0,0.0,0.0,0.0,0.0,-1.6299,-1.6428,-1.664,-1.6566,-1.6934,0.0,-1.9085,-2.1758,-2.4809,-2.8127,0.0,0.0,0.0,-3.1455,-3.2002,-3.2235,0.0,0.0,0.0,0.0,0.0,0.0,0.0,0.0,0.0,0.0,0.0,0.0,0.0,0.0,0.0,0.0,0.0,0.0,0.0,0.0,0.0,0.0,0.0,0.0,0.0,0.0,-3.6269,-3.6094,-3.6016,-3.6016,-3.6016,-3.582,-3.5488,-3.5488,-3.5488,-3.5527,-3.5879,-3.6016,-3.6016,-3.6944,-3.7327,-3.7327,-3.8242,-3.7975,-3.7327,0.0,0.0,0.0,0.0,0.0,0.0,0.0,0.0,0.0,0.0,-1.7212,-1.6838,0.0,0.0,0.0,0.0,0.0,0.0,0.0,0.0,-1.5921,-1.595,-1.6038,-1.6506,-1.7305,-1.7018,-1.7255,-1.8156,-1.5793,-1.3457,-1.1236,-1.163,-1.2801,-1.4465,-1.5456,-1.6173,-1.6733,-1.6522,-1.6731,-1.7311,-1.7018,-1.6901,-1.6901,-1.6901,0.0,0.0,0.0,0.0,0.0,0.0,0.0,0.0,0.0,0.0,-1.6389,-1.5955,-1.593,-1.6082,-1.6404,0.0,0.0,-1.9273,-2.2824,0.0,-3.1373,-3.2344,-3.2539,-3.3223,0.0,-3.2656,0.0,0.0,0.0,0.0,0.0,0.0,0.0,0.0,0.0,0.0,0.0,0.0,0.0,0.0,0.0,0.0,0.0,0.0,0.0,0.0,0.0,0.0,0.0,0.0,0.0,0.0,0.0,0.0,0.0,-3.6016,-3.6016,-3.6016,-3.5586,-3.4824,-3.4824,-3.4824,-3.4883,-3.5684,-3.6016,-3.6016,-3.6016,-3.6016,-3.6016,-3.6016,-3.6016,-3.6016,0.0,0.0,0.0,0.0,0.0,0.0,0.0,0.0,0.0,0.0,0.0,0.0,0.0,0.0,0.0,0.0,0.0,0.0,0.0,0.0,-1.6023,-1.6257,-1.7004,-1.7523,-1.7862,-1.7688,-1.7587,-1.7491,-1.694,-1.4801,-1.1326,-1.5035,-1.7274,-1.8061,-1.6813,-1.6744,-1.7509,-1.718,-1.7196,-1.7326,-1.7252,-1.7223,-1.7223,-1.7223,-1.7331,0.0,0.0,0.0,0.0,0.0,0.0,0.0,-1.6551,-1.658,-1.6816,-1.6669,-1.6683,-1.6784,-1.7355,-1.7604,0.0,0.0,-2.5456,-2.9978,-3.3068,-3.3672,-3.3516,-3.3027,-3.3047,0.0,0.0,0.0,0.0,0.0,0.0,0.0,0.0,0.0,0.0,0.0,0.0,0.0,0.0,0.0,0.0,0.0,0.0,0.0,0.0,0.0,0.0,0.0,0.0,0.0,0.0,0.0,-3.6406,0.0,-3.6074,-3.6016,-3.6016,-3.6016,-3.5918,-3.5742,-3.5742,-3.5742,-3.5742,-3.5937,-3.6016,-3.6016,-3.6016,-3.6016,-3.6016,-3.6016,-3.6016,-3.6016,0.0,0.0,0.0,0.0,0.0,0.0,0.0,0.0,0.0,0.0,0.0,0.0,0.0,0.0,0.0,0.0,0.0,0.0,0.0,0.0,-1.6345,-1.6813,-1.7765,-1.8203,-1.7945,-1.7945,-1.7785,-1.726,-1.7318,-1.6184,-1.4145,-1.6175,-1.7824,-1.8965,-1.7867,-1.7682,-1.8028,-1.7706,-1.7472,-1.7326,-1.7326,-1.7326,-1.7326,-1.7326,-1.7434,-1.7527,-1.7527,0.0,0.0,0.0,0.0,0.0,0.0,0.0,-1.7018,-1.6711,-1.6726,-1.7172,0.0,0.0,0.0,-2.4607,0.0,-3.1373,-3.3863,-3.4375,-3.4316,0.0,0.0,0.0,0.0,0.0,0.0,0.0,0.0,0.0,0.0,0.0,0.0,0.0,0.0,0.0,0.0,0.0,0.0,0.0,0.0,0.0,0.0,0.0,0.0,0.0,0.0,0.0,-3.668,-3.6465,-3.6152,-3.5723,-3.5723,-3.5723,-3.5723,-3.5488,-3.5391,-3.5371,-3.5176,-3.5078,-3.5117,-3.5547,-3.5723,-3.5742,-3.5937,-3.6016,-3.6016,-3.6016,-3.6016,-3.6016,0.0,0.0,0.0,0.0,0.0,0.0,0.0,0.0,0.0,0.0,0.0,0.0,0.0,0.0,0.0,0.0,0.0,0.0,0.0,0.0,0.0,-1.7545,-1.835,-1.8569,-1.8072,-1.8218,-1.8013,-1.7413,-1.7355,-1.7384,-1.7501,-1.6701,-1.7186,-1.8736,-1.8613,-1.844,-1.8277,-1.7896,-1.7574,-1.7326,-1.7326,-1.7326,-1.7326,-1.7326,-1.7326,-1.7326,-1.7326,-1.7326,-1.7326,-1.7326,0.0,0.0,0.0,0.0,-1.7223,-1.6682,-1.6682,-1.7264,0.0,0.0,-2.2528,0.0,0.0,0.0,0.0,0.0,0.0,0.0,0.0,0.0,0.0,0.0,0.0,0.0,0.0,0.0,0.0,0.0,0.0,0.0,0.0,0.0,0.0,0.0,0.0,0.0,0.0,0.0,0.0,0.0,0.0,0.0,0.0,0.0,-3.6445,-3.6094,-3.5703,-3.5273,-3.5351,-3.5391,-3.5391,-3.5,-3.4863,-3.4902,-3.4551,-3.4375,-3.4355,-3.5098,-3.5391,-3.543,-3.5684,-3.584,-3.5898,-3.582,-3.584,-3.5918,0.0,0.0,0.0,0.0,0.0,0.0,0.0,0.0,0.0,0.0,-1.8087,-1.7842,0.0,0.0,0.0,0.0,0.0,0.0,-1.6389,0.0,0.0,-1.8555,-1.8716,-1.8877,-1.9081,-1.8569,-1.8116,-1.775,-1.7472,-1.7618,-1.8174,-1.8178,-1.8581,-1.9179,-1.8596,-1.8335,-1.8262,-1.7647,-1.7369,-1.7326,-1.7326,-1.7326,-1.7326,-1.7326,-1.7326,-1.7326,-1.7326,-1.7326,-1.7326,-1.7326,-1.7326,0.0,0.0,0.0,-1.7311,-1.7223,-1.7033,-1.7264,0.0,0.0,0.0,0.0,0.0,0.0,0.0,0.0,0.0,0.0,0.0,0.0,0.0,0.0,0.0,0.0,0.0,0.0,0.0,0.0,0.0,0.0,0.0,0.0,0.0,0.0,0.0,0.0,0.0,0.0,0.0,0.0,0.0,0.0,0.0,0.0,-3.5566,-3.5508,-3.5254,-3.4805,-3.5195,-3.5391,-3.5391,-3.5332,-3.5508,-3.584,-3.5781,-3.5547,-3.5234,-3.5351,-3.5391,-3.5351,-3.5019,-3.5117,-3.543,-3.5019,-3.5137,-3.5488,0.0,0.0,0.0,0.0,0.0,0.0,0.0,0.0,0.0,0.0,0.0,-1.7546,0.0,0.0,0.0,-1.6788,-1.6522,-1.6272,-1.6126,-1.6872,-1.7516,-1.7955,-1.8321,-1.8496,-1.8467,-1.8174,-1.7867,-1.7545,-1.7399,-1.7852,-1.8847,-1.8964,-1.9243,-1.9554,-1.9111,-1.8847,-1.8789,-1.7955,-1.7604,-1.7589,-1.7399,-1.7326,-1.7326,-1.7326,-1.7326,-1.7326,-1.7326,-1.7326,-1.7326,-1.7326,-1.7326,-1.7326,-1.7326,0.0,0.0,0.0,-1.7223,0.0,-2.0475,0.0,0.0,0.0,0.0,0.0,0.0,0.0,0.0,0.0,0.0,0.0,0.0,0.0,0.0,0.0,0.0,0.0,0.0,0.0,0.0,0.0,0.0,0.0,0.0,0.0,0.0,0.0,0.0,0.0,0.0,-3.6211,-3.6113,-3.5684,-3.5859,0.0,-3.5019,-3.5,-3.4902,-3.4707,-3.4902,-3.5137,-3.541,-3.5644,-3.5723,-3.5664,-3.5391,-3.5039,-3.4668,-3.4902,-3.4863,-3.4648,-3.4687,-3.4824,-3.498,-3.4766,-3.4824,-3.5,0.0,0.0,0.0,0.0,0.0,0.0,0.0,0.0,0.0,0.0,0.0,0.0,0.0,0.0,0.0,0.0,-1.6243,-1.6126,-1.6038,-1.6769,-1.7252,-1.7326,-1.7955,-1.8145,-1.7823,-1.7896,-1.7735,-1.7326,-1.7413,-1.8116,-1.9403,-1.9477,-1.9872,-2.0457,-1.9813,-1.952,-1.9447,-1.8394,-1.8028,-1.813,-1.7472,-1.7252,-1.7326,-1.7326,-1.7326,-1.7355,-1.7516,-1.7516,-1.7472,-1.7545,-1.7574,-1.756,-1.7472,-1.7457,0.0,0.0,0.0,0.0,0.0,0.0,0.0,0.0,0.0,0.0,0.0,0.0,0.0,0.0,0.0,0.0,0.0,0.0,0.0,0.0,0.0,0.0,0.0,0.0,0.0,0.0,0.0,0.0,0.0,0.0,0.0,0.0,0.0,0.0,0.0,-3.5859,-3.5723,-3.541,-3.5273,-3.5,-3.4551,-3.4434,-3.4375,-3.4375,-3.459,-3.4883,-3.5234,-3.5781,-3.5859,-3.5527,-3.5195,-3.4726,-3.4258,-3.457,-3.4453,-3.4101,-3.4297,-3.4453,-3.4531,-3.4414,-3.4453,-3.4531,0.0,0.0,0.0,0.0,0.0,0.0,0.0,0.0,0.0,0.0,0.0,0.0,-1.7311,-1.7311,-1.7047,-1.6418,-1.6638,-1.6682,-1.636,-1.6682,-1.7018,-1.7311,-1.7955,0.0,-1.7823,-1.8116,-1.7969,-1.7326,-1.7633,-1.8452,-1.974,-2.0047,-2.0998,-2.2403,-2.0867,-2.0194,-2.0106,-1.8818,-1.8628,-1.9067,-1.7501,-1.7062,-1.7326,-1.7326,-1.7326,-1.7413,-1.8028,-1.8057,-1.7838,-1.8145,-1.8247,-1.8203,-1.7882,-1.7794,-1.7912,0.0,0.0,0.0,0.0,0.0,0.0,0.0,0.0,0.0,0.0,0.0,0.0,0.0,0.0,0.0,0.0,0.0,0.0,0.0,0.0,0.0,0.0,0.0,0.0,0.0,0.0,0.0,0.0,0.0,0.0,0.0,0.0,0.0,-3.543,-3.543,-3.541,-3.5391,-3.4961,-3.4531,-3.4101,-3.3691,-3.3496,-3.3496,-3.4316,-3.4707,-3.4766,-3.5625,-3.6016,-3.5996,-3.5957,-3.5469,-3.4668,-3.4687,-3.4453,-3.4023,-3.3633,-3.375,-3.4062,-3.3633,-3.375,-3.4101,0.0,0.0,0.0,0.0,0.0,0.0,0.0,0.0,0.0,0.0,0.0,0.0,0.0,-1.7018,-1.6843,-1.6404,-1.6301,-1.6199,-1.6082,-1.6374,-1.6682,-1.7004,-1.7647,-1.7925,-1.7823,-1.7925,-1.777,-1.7304,-1.7436,-1.8174,-1.9462,-1.9784,-2.0574,-2.1686,-2.0896,-2.0779,-2.1057,-1.9345,-1.8877,-1.9169,-1.7955,-1.7545,-1.7618,-1.7413,-1.7326,-1.7384,-1.7838,-1.8057,-1.8174,-1.8511,-1.8613,-1.8599,-1.8482,-1.8291,-1.8296,-1.9208,-2.0322,-2.1547,0.0,0.0,0.0,0.0,0.0,0.0,0.0,0.0,0.0,0.0,0.0,0.0,0.0,0.0,0.0,0.0,0.0,0.0,0.0,0.0,0.0,0.0,0.0,0.0,0.0,0.0,0.0,0.0,0.0,0.0,-3.4941,-3.4941,-3.4824,-3.4551,-3.4375,-3.4082,-3.3652,-3.3496,-3.3555,-3.3848,-3.4414,-3.4863,-3.5156,-3.5742,-3.6016,-3.6016,-3.6016,-3.5684,-3.5137,-3.5137,-3.4726,-3.4062,-3.3906,-3.3769,-3.3633,-3.3476,-3.3516,-3.3652,0.0,0.0,0.0,0.0,0.0,0.0,0.0,0.0,-1.7208,-1.6901,0.0,0.0,0.0,0.0,-1.6887,-1.6565,-1.6243,-1.6067,-1.6067,-1.636,-1.6682,-1.7004,-1.7633,-1.7984,-1.7984,-1.8086,-1.7916,-1.7476,-1.7596,-1.816,-1.9111,-1.9447,-2.0179,-2.1174,-2.053,-2.0837,-2.1759,-2.0237,-1.9667,-1.9638,-1.8218,-1.7852,-1.8101,-1.7779,-1.7794,-1.8043,-1.8467,-1.8628,-1.8686,-1.9008,-1.8979,-1.8803,-1.8921,-1.9145,-1.9552,-2.0603,-2.1182,-2.1919,-2.3781,0.0,0.0,0.0,0.0,0.0,0.0,0.0,0.0,0.0,0.0,0.0,0.0,0.0,0.0,0.0,0.0,0.0,0.0,0.0,0.0,0.0,0.0,0.0,0.0,0.0,0.0,0.0,0.0,0.0,-3.4492,-3.4492,-3.4297,-3.3867,-3.3848,-3.3711,-3.3418,-3.3418,-3.3574,-3.3867,-3.4434,-3.4863,-3.5176,-3.5762,-3.6016,-3.6016,-3.6016,-3.5781,-3.5391,-3.5391,-3.4863,-3.4082,-3.4082,-3.3809,-3.3418,-3.3418,-3.3516,-3.3633,0.0,0.0,0.0,0.0,0.0,0.0,0.0,0.0,-1.7223,-1.6916,0.0,0.0,0.0,0.0,0.0,-1.6916,-1.6594,-1.6404,-1.6404,-1.6682,-1.7004,-1.7326,-1.7955,-1.8306,-1.8321,-1.8613,-1.8467,-1.7823,-1.8116,-1.8423,-1.8745,-1.9081,-1.9916,-2.1101,-1.9872,-2.0355,-2.2067,-2.1423,-2.0969,-2.0516,-1.8277,-1.7955,-1.8774,-1.8452,-1.873,-1.936,-2.0003,-1.9842,-1.9374,-1.9711,-1.9403,-1.8921,-1.9317,-2.0332,-2.1596,-2.2659,-2.2942,-2.3036,0.0,0.0,0.0,0.0,0.0,0.0,0.0,0.0,0.0,0.0,0.0,0.0,0.0,0.0,0.0,0.0,0.0,0.0,0.0,0.0,0.0,0.0,0.0,0.0,0.0,0.0,0.0,0.0,0.0,0.0,-3.4062,-3.4062,-3.3848,-3.3418,-3.3398,-3.3398,-3.3398,-3.3398,-3.3418,-3.3457,-3.4297,-3.4707,-3.4746,-3.5625,-3.6016,-3.6016,-3.6016,-3.5781,-3.5391,-3.541,-3.4883,-3.4082,-3.4082,-3.3809,-3.3418,-3.3418,-3.3691,-3.4082,0.0,0.0,0.0,0.0,0.0,-1.7316,-1.6992,-1.7121,-1.7296,0.0,0.0,0.0,-1.7355,-1.7326,-1.7384,-1.753,-1.7252,-1.7062,-1.7062,-1.693,-1.7106,-1.7662,-1.8072,-1.8408,-1.8657,-1.8511,-1.8247,-1.7934,-1.7537,-1.7413,-1.7735,-1.8072,-1.8789,-1.9828,-2.0164,-2.0369,-2.0384,-1.974,-1.9813,-2.0281,-1.9184,-1.9038,0.0,0.0,0.0,0.0,0.0,-2.0281,-2.0413,-2.0969,-2.1042,-2.0891,-2.111,-2.1059,-2.1344,-2.2601,-2.2798,-2.2793,-2.3556,0.0,0.0,0.0,0.0,0.0,0.0,0.0,0.0,0.0,0.0,0.0,0.0,0.0,0.0,0.0,0.0,0.0,0.0,0.0,0.0,0.0,0.0,0.0,0.0,0.0,0.0,0.0,0.0,-3.3594,-3.3594,-3.3594,-3.3418,-3.2988,-3.2969,-3.2969,-3.2969,-3.2969,-3.3281,-3.3906,-3.4434,-3.4883,-3.5215,-3.5762,-3.6016,-3.6016,-3.6016,-3.5781,-3.541,-3.5723,-3.5332,-3.4531,-3.4531,-3.4082,-3.3418,-3.3418,-3.3691,-3.4082,0.0,0.0,0.0,0.0,0.0,-1.7721,-1.7662,-1.7706,-1.7735,0.0,0.0,0.0,-1.775,-1.7984,-1.8101,-1.8028,-1.7838,-1.7677,-1.7545,-1.7238,-1.7282,-1.7794,-1.813,-1.8452,-1.8774,-1.8599,-1.835,-1.8125,-1.7516,-1.7355,-1.753,-1.7721,-1.8262,-1.9096,-1.952,-1.9652,-1.952,-1.9008,0.0,0.0,-1.9371,0.0,0.0,-1.9621,-1.9794,0.0,0.0,0.0,-2.1759,-2.2453,-2.3145,-2.3499,-2.3211,-2.2783,-2.2474,-2.3583,-2.3134,-2.2445,-2.33,-2.319,-2.2831,-2.3079,0.0,0.0,0.0,0.0,0.0,0.0,0.0,0.0,0.0,0.0,0.0,0.0,0.0,0.0,0.0,0.0,0.0,0.0,0.0,0.0,0.0,0.0,0.0,0.0,-3.3418,-3.3418,-3.3418,-3.3418,-3.3301,-3.3066,-3.2891,-3.2793,-3.2793,-3.2793,-3.3144,-3.3809,-3.4414,-3.4844,-3.5117,-3.5566,-3.5644,-3.5469,-3.5469,-3.5332,-3.5117,-3.5371,-3.5059,-3.4434,-3.4434,-3.4023,-3.3437,-3.3633,-3.3965,-3.4355,0.0,0.0,-1.8008,-1.8247,-1.8335,-1.8452,-1.8745,-1.8569,-1.8423,0.0,-1.8467,-1.8496,-1.8569,-1.9052,-1.9169,-1.8613,-1.8511,-1.8306,-1.7955,-1.7589,-1.7516,-1.7808,-1.813,-1.8452,-1.8774,-1.8789,-1.8613,-1.8247,-1.7955,-1.7794,-1.7765,-1.7794,-1.8145,-1.873,0.0,0.0,-1.9155,0.0,0.0,-1.9696,-1.9189,-1.9571,0.0,0.0,-2.0755,-2.1655,-2.1793,-2.2352,-2.3304,-2.3994,-2.4995,-2.5806,-2.5076,-2.458,-2.4339,-2.4791,-2.3487,-2.2097,-2.2988,-2.2468,-2.1932,-2.2824,-2.262,0.0,-2.0855,-2.1456,0.0,0.0,0.0,0.0,0.0,0.0,0.0,0.0,0.0,0.0,0.0,0.0,0.0,0.0,0.0,0.0,0.0,0.0,0.0,-3.3262,-3.332,-3.3379,-3.3418,-3.3418,-3.3398,-3.3359,-3.2988,-3.2793,-3.2793,-3.2793,-3.3047,-3.3574,-3.4336,-3.4746,-3.4863,-3.5234,-3.5176,-3.4766,-3.4726,-3.4648,-3.4551,-3.4551,-3.4375,-3.4082,-3.4082,-3.3809,-3.3476,-3.3906,-3.4336,-3.4766,0.0,-1.864,-1.8505,-1.8626,-1.8711,-1.8716,-1.8774,-1.8964,-1.9184,-1.9447,-1.9477,-1.9681,-2.0194,-2.0135,-2.0106,-2.0237,-1.9784,-1.9228,-1.8642,-1.8043,-1.775,-1.7808,-1.813,-1.8452,-1.8774,-1.8789,-1.8496,-1.7911,-1.7852,-1.7677,-1.7428,-1.7691,-1.8028,-1.8408,-1.8613,-1.8613,0.0,0.0,0.0,-1.9132,-1.9714,0.0,-2.1102,-2.1216,-2.139,-2.1656,-2.2496,-2.3063,-2.3523,-2.4245,-2.4486,-2.4512,0.0,-2.3989,-2.3456,-2.331,-2.2782,-2.2088,-2.1714,-2.1466,-2.1338,-2.1264,-2.1338,0.0,-2.0244,-2.0766,0.0,0.0,0.0,0.0,0.0,0.0,0.0,0.0,0.0,0.0,0.0,0.0,0.0,0.0,0.0,0.0,0.0,0.0,0.0,-3.2402,-3.2734,-3.3066,-3.3398,-3.3418,-3.3262,-3.293,-3.2832,-3.2793,-3.2793,-3.2793,-3.3359,-3.4453,-3.4609,-3.5078,-3.5762,-3.5508,-3.5351,-3.5234,-3.4863,-3.4316,-3.3672,-3.3672,-3.3828,-3.4082,-3.4082,-3.3809,-3.3476,-3.3906,-3.4336,-3.4766,-1.9208,-1.9069,-1.8988,-1.9119,-1.9258,-1.933,-1.9491,-1.9652,-1.9813,-1.9974,-2.0135,-2.0296,-2.0457,-2.0633,-2.0589,-2.0267,-1.9945,-1.9491,-1.8833,-1.8174,-1.7882,-1.8057,-1.8218,-1.8525,-1.9023,-1.8877,-1.8701,-1.854,-1.8218,-1.8057,-1.8057,-1.8218,-1.8394,-1.8555,-1.8891,-1.8847,0.0,0.0,-1.9662,-1.9599,-1.9903,0.0,-2.0592,-2.0997,-2.1562,-2.2185,-2.2695,-2.382,-2.492,-2.473,-2.5459,0.0,-2.5221,-2.4667,-2.4316,-2.3794,-2.2952,-2.2085,-2.1362,-2.1203,-2.1203,-2.1203,-2.1203,0.0,0.0,-2.0618,0.0,0.0,0.0,0.0,0.0,0.0,0.0,0.0,0.0,0.0,0.0,0.0,0.0,0.0,0.0,0.0,0.0,0.0,-3.1934,-3.2148,-3.2559,-3.2891,-3.3105,-3.3301,-3.332,-3.3105,-3.2695,-3.248,-3.248,-3.248,-3.3008,-3.4062,-3.4492,-3.5059,-3.5703,-3.5254,-3.4941,-3.4707,-3.4258,-3.3691,-3.3105,-3.3105,-3.3242,-3.3437,-3.3437,-3.3437,-3.3496,-3.4141,-3.4512,-3.4805,-1.9392,-1.9308,-1.9194,-1.9523,-1.9761,-1.9916,-2.012,-2.0296,-2.0428,-2.0428,-2.0647,-2.0735,-2.0545,-2.0925,-2.0998,-2.0457,-2.0018,-1.9638,-1.9374,-1.8438,-1.7999,-1.8203,-1.8277,-1.8482,-1.8891,-1.876,-1.8833,-1.9096,-1.8613,-1.8496,-1.8701,-1.8833,-1.8847,-1.8803,-1.9067,-1.9111,-1.9008,0.0,0.0,-2.0048,0.0,-2.0016,-2.0014,-2.0671,-2.1491,-2.2481,-2.3119,-2.4554,-2.6099,-2.5071,-2.6207,-2.7571,-2.5794,-2.5138,0.0,0.0,0.0,-2.214,-2.1554,0.0,0.0,0.0,0.0,-2.1364,0.0,0.0,0.0,0.0,0.0,0.0,0.0,0.0,0.0,0.0,0.0,0.0,0.0,0.0,0.0,0.0,0.0,0.0,0.0,0.0,0.0,-3.2012,-3.2363,-3.2617,-3.2793,-3.3105,-3.334,-3.3418,-3.2676,-3.2285,-3.2285,-3.2285,-3.2676,-3.3437,-3.4199,-3.4824,-3.5234,-3.4707,-3.4258,-3.3926,-3.3398,-3.2949,-3.2559,-3.2637,-3.2676,-3.2676,-3.2754,-3.3047,-3.3535,-3.4394,-3.4707,-3.4824,-1.9396,-1.9124,-1.8865,-1.9179,-1.979,-2.0091,-1.9857,-2.0545,-2.1101,-2.1101,-2.113,-2.1247,-2.1496,-2.1335,-2.1613,-2.2637,-2.0911,-2.0223,-2.1291,-1.9403,-1.813,-1.7882,-1.8145,-1.8072,-1.756,-1.8072,-1.8379,-1.8408,-1.8513,-1.8484,-1.8364,-1.895,-1.9067,-1.8789,-1.8833,0.0,0.0,0.0,-1.9729,0.0,-2.0284,-2.0648,0.0,-2.1551,-2.1897,-2.2297,-2.3963,-2.4974,-2.5312,0.0,-2.5128,-2.514,0.0,-2.3782,-2.3623,-2.2986,0.0,0.0,0.0,0.0,0.0,0.0,-2.2301,0.0,0.0,0.0,0.0,0.0,0.0,0.0,0.0,0.0,0.0,0.0,0.0,0.0,0.0,0.0,0.0,0.0,0.0,0.0,0.0,0.0,0.0,0.0,-3.1641,-3.1992,-3.2754,-3.2832,-3.3027,-3.3418,-3.2969,-3.2734,-3.2734,-3.2734,-3.2969,-3.3437,-3.3906,-3.4375,-3.4746,-3.3945,-3.3535,-3.3457,-3.2656,-3.207,-3.1699,-3.209,-3.2246,-3.2285,-3.2656,-3.3047,-3.3535,-3.4394,-3.4707,-3.4824,-1.8987,-1.89,-1.8716,-1.8835,-1.9199,-1.9477,-1.9725,-2.0911,-2.1642,-2.1262,-2.154,-2.1891,-2.2198,-2.1964,-2.2067,-2.2769,-2.1642,-2.0955,0.0,-1.9886,-1.9257,-1.9491,-1.9272,-1.9199,-1.9301,-1.9008,-1.8862,-1.8862,-1.8728,-1.8552,-1.8434,-1.8658,-1.9023,-1.9385,-1.8905,0.0,-1.9556,0.0,-1.9505,0.0,0.0,0.0,0.0,-2.1565,-2.2164,-2.2886,-2.3991,-2.4566,-2.4593,0.0,-2.4172,0.0,0.0,0.0,0.0,-2.2891,0.0,0.0,0.0,0.0,0.0,0.0,0.0,0.0,-2.2169,0.0,-2.1906,0.0,0.0,0.0,0.0,0.0,0.0,0.0,0.0,0.0,0.0,0.0,0.0,0.0,0.0,0.0,0.0,0.0,0.0,0.0,0.0,-3.1185,-3.054,-3.1011,-3.1351,-3.152,-3.1124,-3.1302,-3.2051,-3.2051,-3.2383,-3.3066,-3.3496,-3.4043,-3.4668,-3.3809,-3.3418,-3.3379,-3.2793,-3.2285,-3.1934,-3.2363,-3.2539,-3.2578,-3.2988,-3.3262,-3.3535,-3.4394,-3.4707,-3.4824,-1.818,-1.8315,-1.8273,-1.8394,-1.8684,-1.9169,-1.9916,-2.1028,-2.1642,-2.1262,-2.1701,-2.2257,-2.2828,-2.2696,-2.2915,-2.3749,-2.2842,-2.2096,0.0,0.0,-2.0252,-2.0457,-2.0091,-1.9945,-2.0062,-1.955,-1.9184,-1.9008,-1.8525,-1.835,-1.8666,-1.8441,-1.8833,-1.9755,0.0,-1.9045,-1.947,0.0,0.0,-2.0002,-2.0378,-2.0739,-2.1053,-2.1612,-2.2432,-2.3394,-2.3901,-2.4088,-2.4008,-2.35,-2.3614,0.0,-2.3447,0.0,0.0,0.0,0.0,0.0,-2.2256,0.0,0.0,0.0,0.0,0.0,0.0,0.0,0.0,0.0,0.0,0.0,0.0,0.0,-2.2052,-2.1628,0.0,0.0,0.0,0.0,0.0,0.0,0.0,0.0,0.0,0.0,0.0,0.0,-3.0742,0.0,-2.8938,-2.958,-2.9879,-2.9741,-2.9238,-2.9525,-3.0408,-3.0768,-3.1315,-3.1931,-3.2863,-3.3516,-3.3984,-3.3359,-3.3086,-3.3066,-3.2637,-3.2344,-3.2207,-3.2617,-3.2793,-3.2851,-3.3379,-3.3594,-3.3711,-3.457,-3.4883,-3.5,-1.6653,-1.7098,-1.7443,-1.7779,-1.8628,-1.9579,-2.0545,-2.0735,0.0,0.0,0.0,0.0,0.0,0.0,0.0,0.0,0.0,-2.3793,-2.4408,0.0,-2.075,-1.9842,-2.0062,-1.9638,-1.8408,-1.8964,-1.8964,-1.8335,-1.7626,-1.7882,-1.8774,-1.8426,-1.8716,-1.9272,-1.9276,-1.9485,-1.9843,-2.0104,-2.0192,-2.0287,-2.0889,-2.124,-2.1577,0.0,-2.2779,-2.3367,-2.3674,0.0,0.0,-2.3434,-2.3327,0.0,0.0,0.0,0.0,0.0,0.0,0.0,0.0,0.0,0.0,-2.3392,0.0,0.0,0.0,0.0,-2.252,0.0,0.0,0.0,0.0,-2.2184,-2.1979,-2.1335,-2.249,0.0,0.0,0.0,0.0,0.0,0.0,0.0,0.0,0.0,0.0,0.0,-3.0625,0.0,-2.892,-2.9324,-2.9238,-2.8369,-2.7882,-2.7693,-2.7693,-2.904,-2.9665,-2.9702,-3.1769,-3.2617,-3.2246,-3.2226,-3.2207,-3.2187,-3.1738,-3.1797,-3.2207,-3.2617,-3.2793,-3.2871,-3.373,-3.4043,-3.416,-3.5039,-3.5371,-3.543,-1.6832,-1.7301,-1.7618,-1.7516,0.0,0.0,0.0,-2.0998,0.0,0.0,0.0,0.0,0.0,-2.533,-2.5681,0.0,0.0,-2.5198,-2.5213,-2.3896,0.0,0.0,-2.2637,-2.2052,-2.1174,-2.0969,-2.0457,-1.9579,-1.8002,-1.7747,-1.8626,-1.8891,-1.9435,-2.0082,0.0,-1.9217,0.0,0.0,0.0,0.0,0.0,-2.1437,-2.1857,0.0,0.0,-2.2766,-2.306,-2.33,0.0,-2.3594,-2.3487,-2.3313,-2.3207,-2.3036,-2.266,-2.2459,-2.2471,0.0,0.0,0.0,-2.3582,-2.3567,0.0,0.0,0.0,0.0,0.0,0.0,0.0,0.0,0.0,-2.2798,-2.2593,-2.195,-2.229,-2.2361,0.0,0.0,0.0,0.0,0.0,0.0,0.0,0.0,0.0,-2.6565,-2.7734,0.0,0.0,-2.6489,-2.673,-2.615,-2.6052,-2.6355,-2.721,-2.7696,-2.8425,-2.9665,-3.0568,-3.1531,-3.2187,-3.2461,-3.2422,-3.2168,-3.2305,-3.2441,-3.2637,-3.334,-3.3633,-3.373,-3.4609,-3.4941,-3.498,-3.5293,-3.5391,-3.5449,-1.734,-1.7604,-1.7794,0.0,0.0,0.0,0.0,0.0,0.0,0.0,-2.3984,0.0,-2.653,0.0,-2.6837,0.0,-2.7188,-2.6544,-2.5754,-2.5227,0.0,-2.4408,-2.4101,-2.3588,-2.2813,-2.2286,-2.1437,-2.0237,-1.9007,-1.8688,-1.9127,-1.9406,-1.9807,-2.0296,0.0,-1.9139,-1.9343,0.0,-1.9435,0.0,0.0,-2.1082,0.0,0.0,-2.1871,0.0,0.0,-2.2686,-2.2873,-2.3073,-2.3073,-2.3006,-2.3006,-2.2806,-2.2552,-2.2445,-2.2365,-2.2445,-2.2673,-2.3107,0.0,0.0,-2.3663,0.0,-2.342,0.0,0.0,0.0,0.0,0.0,0.0,-2.3039,-2.2798,-2.2403,-2.2154,-2.1818,0.0,-2.1203,0.0,0.0,0.0,0.0,0.0,0.0,-2.4704,-2.4761,-2.601,-2.596,0.0,0.0,-2.5049,-2.444,-2.4332,-2.4888,-2.574,-2.6232,-2.7398,-2.9133,-2.9756,-3.0888,-3.2187,-3.2441,-3.25,-3.2402,-3.2676,-3.2871,-3.3066,-3.3613,-3.3926,-3.4141,-3.4707,-3.5117,-3.541,-3.5566,-3.5605,-3.5625,0.0,0.0,0.0,0.0,-1.9155,0.0,0.0,0.0,-2.2769,0.0,-2.4613,-2.5974,-2.6983,-2.7364,-2.7905,-2.8812,-2.8622,-2.7803,-2.6252,-2.6427,0.0,0.0,-2.4554,-2.4247,-2.3252,-2.2915,-2.1979,-2.0398,-2.0574,-2.0545,-2.0296,-1.9985,-1.9894,-1.9785,-1.9766,0.0,-1.8591,-1.9703,-1.988,-1.9439,-2.0,-2.0414,-2.0668,-2.0347,0.0,-2.2699,-2.2124,-2.1937,-2.1964,-2.1964,-2.2164,-2.2405,-2.2418,-2.2605,-2.2792,-2.2512,-2.2645,-2.2806,-2.2512,-2.2445,-2.2727,-2.3583,0.0,0.0,0.0,0.0,-2.3663,0.0,0.0,0.0,0.0,-2.3058,-2.2544,-2.2652,-2.2125,-2.1613,-2.1306,-2.1262,-2.1262,0.0,0.0,0.0,0.0,-2.326,-2.3796,-2.4701,-2.5412,-2.5244,0.0,0.0,0.0,-2.3245,-2.3149,-2.331,-2.3745,-2.4856,-2.6275,-2.8009,-2.9404,-3.0803,-3.2066,-3.2226,-3.2441,-3.2832,-3.2832,-3.3047,-3.3418,-3.3437,-3.3691,-3.4082,-3.4101,-3.4609,-3.541,-3.5859,-3.6016,-3.5937,-1.8379,-1.8818,-1.936,0.0,-1.9755,-2.0033,0.0,0.0,0.0,0.0,-2.5754,-2.7071,-2.8271,-2.8476,-2.8622,-2.8871,-2.8812,0.0,0.0,0.0,0.0,-2.6969,-2.6808,-2.6164,-2.4935,-2.4598,-2.3866,-2.274,-2.1554,-2.1101,-2.1291,-2.0288,-1.9764,-1.9456,0.0,0.0,-1.8534,-1.9252,-1.9626,-1.972,-2.008,-2.0535,0.0,0.0,-2.0788,-2.151,-2.1149,-2.1296,-2.167,-2.167,-2.1857,-2.2138,-2.2352,-2.2472,-2.2565,-2.2712,-2.2806,-2.2846,-2.2766,-2.2913,-2.3126,-2.3426,-2.3346,-2.3305,0.0,0.0,0.0,0.0,0.0,0.0,0.0,0.0,0.0,-2.2644,-2.234,-2.2023,-2.195,-2.1935,0.0,-2.1935,0.0,0.0,0.0,-2.172,-2.1955,-2.2467,-2.2941,0.0,0.0,0.0,0.0,0.0,-2.4202,-2.4381,-2.5467,-2.4842,-2.5129,-2.6615,-2.8281,-2.9833,-3.109,-3.2431,-3.3164,-3.3262,-3.3262,-3.332,-3.3437,-3.3769,-3.3965,-3.4101,-3.4414,-3.4668,-3.4961,-3.5742,-3.582,-3.5586,-1.9213,0.0,0.0,-2.0837,0.0,0.0,-2.1789,0.0,0.0,-2.4862,-2.6179,0.0,-2.7978,-2.8549,-2.8886,-2.8886,-2.8886,0.0,-2.8491,0.0,0.0,-2.7759,-2.77,-2.7071,-2.5769,-2.5154,0.0,-2.3384,-2.192,-2.1306,-2.1452,-2.042,-1.9642,-1.915,0.0,-1.8824,0.0,-1.8805,-1.9345,-1.9626,-1.9786,0.0,0.0,-2.0027,-2.0134,-2.0521,-2.0347,-2.0668,-2.1189,-2.1323,-2.155,-2.1817,-2.1991,-2.2218,-2.2458,-2.2619,-2.2766,-2.2859,-2.2859,-2.2993,-2.3153,-2.3287,-2.3327,-2.3367,-2.3541,-2.3554,-2.3447,0.0,0.0,0.0,0.0,0.0,0.0,-2.2228,-2.1882,-2.1809,-2.1809,0.0,0.0,0.0,-2.1889,0.0,0.0,0.0,0.0,0.0,0.0,0.0,0.0,0.0,0.0,0.0,-2.4924,-2.5169,-2.5451,-2.5321,-2.5643,-2.6435,-2.8022,-2.9538,-3.0992,-3.2459,-3.3242,-3.3418,-3.3418,-3.3418,-3.3437,-3.3691,-3.3906,-3.4141,-3.4766,-3.4766,-3.4531,-3.543,-3.5605,-3.543,0.0,0.0,0.0,0.0,0.0,0.0,0.0,-2.331,0.0,-2.5154,0.0,-2.7247,-2.7247,-2.8271,-2.893,-2.89,0.0,-2.8695,-2.811,-2.8593,-2.852,-2.77,-2.7934,-2.7495,-2.6237,-2.5213,-2.4218,0.0,-2.1876,-2.1189,-2.113,-2.0194,0.0,0.0,0.0,0.0,0.0,-1.8552,-1.9052,0.0,-1.9372,-1.9519,-1.972,-1.9466,-1.9519,-1.976,-1.9826,-2.0187,-2.0668,-2.0949,-2.1256,-2.1496,-2.1537,-2.1897,-2.2325,-2.2392,-2.2605,-2.2819,-2.2846,-2.2859,-2.2939,-2.3247,-2.3327,-2.334,-2.338,-2.3581,-2.3621,-2.3086,-2.3241,0.0,0.0,0.0,0.0,-2.1783,-2.1572,0.0,0.0,0.0,0.0,0.0,0.0,0.0,0.0,0.0,0.0,0.0,0.0,0.0,0.0,0.0,0.0,0.0,-2.5288,0.0,-2.4878,0.0,-2.6719,-2.6886,-2.8257,-2.9713,-3.112,-3.2295,-3.3105,-3.3496,-3.3437,-3.3418,-3.3418,-3.3418,-3.3652,-3.4082,-3.4961,-3.4805,-3.418,-3.5,-3.5351,-3.5391,0.0,0.0,0.0,0.0,0.0,-2.3603,-2.4832,-2.5535,-2.6091,-2.6588,-2.7759,-2.8564,-2.8564,-2.8988,-2.9178,-2.8915,-2.9134,0.0,0.0,0.0,0.0,-2.8651,-2.8695,-2.8256,-2.7247,-2.6003,-2.4891,-2.391,-2.2096,-2.1072,-2.0794,-2.0091,-1.9517,0.0,0.0,0.0,-1.9105,-1.8857,0.0,-1.9372,-1.9372,-1.9399,-1.9439,-1.9386,-1.9399,-1.9506,-1.9987,-2.0227,-2.0361,-2.0655,-2.0949,-2.1229,-2.147,-2.1617,-2.1804,-2.2271,-2.2458,-2.2552,-2.2792,-2.2859,-2.2939,-2.3247,-2.3327,-2.3394,-2.3634,-2.3728,-2.3741,-2.3634,-2.342,-2.3386,-2.3386,0.0,0.0,0.0,0.0,0.0,0.0,0.0,0.0,0.0,0.0,0.0,0.0,0.0,0.0,0.0,0.0,0.0,0.0,0.0,0.0,0.0,0.0,0.0,0.0,0.0,0.0,-2.5442,-2.9031,-3.0638,-3.024,-3.2332,-3.3555,-3.3945,-3.3574,-3.3418,-3.3418,-3.3418,-3.3476,-3.3613,-3.4492,-3.4512,-3.4141,-3.4629,-3.5059,-3.5391,0.0,0.0,0.0,0.0,0.0,0.0,0.0,-2.7115,0.0,-2.7056,-2.7525,-2.7905,-2.7905,-2.8637,-2.9061,-2.89,-2.9032,-2.9061,-2.89,-2.8886,-2.8812,-2.8666,-2.8651,0.0,-2.6998,-2.5857,-2.4803,-2.3837,-2.1906,-2.0881,-2.0706,-1.9886,-1.9328,-1.8898,0.0,-1.8847,0.0,0.0,0.0,-1.9372,-1.9372,-1.9372,-1.9372,-1.9372,-1.9372,-1.9439,-2.0027,-2.0227,-2.0307,-2.0748,-2.0989,-2.1136,-2.1283,-2.1537,-2.183,-2.2111,-2.2405,-2.2686,-2.2819,-2.2859,-2.2899,-2.3046,-2.3086,-2.3126,-2.326,-2.342,-2.35,-2.334,-2.3313,-2.3273,-2.3113,-2.2741,0.0,0.0,0.0,0.0,0.0,0.0,0.0,0.0,0.0,0.0,0.0,0.0,0.0,0.0,0.0,0.0,0.0,0.0,0.0,0.0,0.0,0.0,0.0,0.0,0.0,-2.4781,-2.7387,-2.879,-2.9372,-3.1138,-3.2606,-3.3475,-3.3389,-3.3418,-3.3418,-3.3418,-3.3418,-3.3516,-3.4355,-3.4434,-3.416,-3.4824,-3.5195,-3.5351,0.0,-2.3501,0.0,0.0,-2.5579,0.0,0.0,-2.811,-2.8534,-2.7525,-2.7393,-2.7393,-2.7393,-2.8359,-2.8973,-2.89,-2.8959,-2.8959,-2.89,-2.8886,-2.8754,-2.8447,-2.8432,-2.7861,-2.6632,-2.5593,-2.451,0.0,-2.1672,-2.0691,-2.0398,-1.9696,0.0,0.0,0.0,0.0,0.0,0.0,-1.9206,-1.9372,-1.9475,-1.9475,-1.9372,-1.9372,-1.9372,-1.9439,-2.0027,-2.0227,-2.0321,-2.0909,-2.1109,-2.1109,-2.1109,-2.143,-2.1804,-2.1871,-2.2258,-2.2686,-2.2752,-2.2819,-2.2859,-2.2859,-2.2859,-2.2859,-2.2859,-2.3046,-2.3153,-2.2913,-2.306,-2.318,-2.2993,-2.2659,0.0,0.0,0.0,0.0,0.0,0.0,0.0,0.0,0.0,0.0,0.0,0.0,0.0,0.0,0.0,0.0,0.0,0.0,0.0,0.0,0.0,0.0,-2.3952,0.0,-2.5547,0.0,-2.6203,-2.7519,-2.8706,-3.0401,-3.1726,-3.2785,-3.3038,-3.3165,-3.3165,-3.3165,-3.3165,-3.3262,-3.4115,-3.4362,-3.4167,-3.4965,-3.5315,-3.5335,0.0,0.0,0.0,0.0,0.0,0.0,0.0,-2.8256,-2.8842,-2.8725,-2.871,-2.871,-2.871,-2.9076,-2.9208,-2.8915,-2.9164,-2.9208,-2.8915,-2.8886,-2.8754,-2.8447,-2.8432,-2.7964,-2.6969,-2.571,-2.4291,0.0,-2.1672,-2.0559,-1.9418,-1.9623,0.0,0.0,0.0,0.0,0.0,-1.9864,-1.9918,-1.9372,-1.9707,-1.9591,-1.9372,-1.9372,-1.9372,-1.9439,-2.0027,-2.0227,-2.0321,-2.0909,-2.1109,-2.1109,-2.1109,-2.1149,-2.1243,-2.151,-2.1817,-2.2124,-2.2392,-2.2659,-2.2859,-2.2859,-2.2859,-2.2859,-2.2859,-2.2886,-2.2899,-2.2873,-2.2886,-2.2979,-2.3233,-2.2806,-2.2498,0.0,0.0,0.0,0.0,0.0,0.0,0.0,0.0,0.0,0.0,0.0,0.0,0.0,0.0,0.0,0.0,0.0,0.0,0.0,0.0,-2.4088,-2.3966,-2.5412,0.0,-2.4088,-2.8032,-2.9361,-2.8345,-3.0972,-3.2294,-3.2422,-3.2422,-3.2549,-3.2549,-3.2549,-3.2549,-3.2625,-3.3462,-3.3898,-3.4181,-3.4662,-3.5085,-3.5354,0.0,0.0,0.0,0.0,0.0,0.0,0.0,-2.8651,-2.8886,-2.8886,-2.8886,-2.8886,-2.8886,-2.9003,-2.9032,-2.89,-2.9003,-2.9032,-2.89,-2.8725,-2.8564,-2.8447,-2.8066,-2.7495,-2.672,-2.5813,-2.454,0.0,0.0,0.0,0.0,0.0,0.0,0.0,0.0,-1.9814,-2.006,-2.0005,-1.989,-1.9707,-1.9822,-1.9591,-1.9372,-1.9372,-1.9372,-1.9439,-2.0027,-2.0227,-2.0321,-2.0909,-2.1109,-2.1109,-2.1109,-2.1229,-2.1403,-2.1523,-2.1884,-2.2231,-2.2178,-2.2498,-2.2819,-2.2645,-2.2726,-2.2859,-2.2859,-2.2859,-2.2859,-2.2859,-2.2859,-2.2899,-2.3033,-2.2846,-2.2672,0.0,0.0,0.0,0.0,0.0,0.0,0.0,0.0,-2.1091,0.0,0.0,0.0,0.0,0.0,0.0,0.0,0.0,0.0,-2.2372,0.0,-2.3093,-2.327,-2.3938,-2.3938,-2.3679,-2.5334,-2.6916,-2.8276,-2.9546,-3.1139,-3.2781,-3.2781,-3.2649,-3.2422,-3.2422,-3.2573,-3.2838,-3.3425,-3.3804,-3.388,-3.4564,-3.4891,-3.4833,-2.6354,0.0,-2.6413,0.0,-2.7788,-2.7847,-2.8754,-2.8886,-2.8886,-2.8886,-2.8886,-2.8886,-2.8886,-2.8886,-2.8886,-2.8886,-2.8886,-2.8856,-2.8769,-2.8549,-2.8359,-2.8154,-2.7715,0.0,-2.6383,-2.5813,-2.473,-2.3106,-2.2579,0.0,0.0,0.0,0.0,0.0,-1.9765,-1.9971,-2.0444,-2.0217,-2.0188,-2.0053,-1.9924,-1.9822,-1.9475,-1.9475,-1.9372,-1.9439,-1.992,-2.0107,-2.0187,-2.0788,-2.0989,-2.1002,-2.1082,-2.1256,-2.1443,-2.1523,-2.1897,-2.2258,-2.2151,-2.2472,-2.2806,-2.2605,-2.2712,-2.2859,-2.2859,-2.2859,-2.2859,-2.2859,-2.2792,-2.2752,-2.2846,-2.2726,-2.2565,0.0,0.0,0.0,0.0,0.0,0.0,0.0,-2.0882,-2.0895,-2.0815,0.0,0.0,0.0,0.0,0.0,0.0,0.0,0.0,0.0,0.0,0.0,0.0,0.0,-2.3131,-2.3406,-2.3858,-2.536,-2.7563,-2.8196,-2.98,-3.2261,-3.2261,-3.2245,-3.2523,-3.2523,-3.2692,-3.2861,-3.3425,-3.3594,-3.3688,-3.452,-3.4595,-3.4407,-2.631,-2.6749,-2.7276,-2.8256,-2.8666,-2.8871,-2.8886,-2.8886,-2.8886,-2.8886,-2.8886,-2.8886,-2.8886,-2.8886,-2.8886,-2.8886,-2.8886,-2.8769,-2.8461,-2.8432,-2.8154,0.0,0.0,-2.7013,-2.6047,-2.5696,-2.473,-2.3106,0.0,0.0,-2.072,0.0,0.0,-2.0252,-2.0448,-2.0355,-1.9921,-2.0829,-2.0989,-2.0543,-2.0399,-2.004,-1.9822,-1.9475,-1.9372,-1.9412,-1.9693,-1.98,-1.9893,-2.0481,-2.0681,-2.0735,-2.1015,-2.1109,-2.1176,-2.147,-2.1764,-2.2058,-2.2338,-2.2632,-2.2859,-2.2859,-2.2859,-2.2859,-2.2859,-2.2859,-2.2859,-2.2859,-2.2632,-2.2512,-2.2806,-2.2392,-2.2084,-2.2378,0.0,0.0,0.0,0.0,0.0,0.0,-2.1363,-2.143,-2.1136,0.0,0.0,0.0,0.0,0.0,0.0,0.0,0.0,-2.1991,-2.2271,0.0,-2.2859,-2.3166,-2.3327,-2.3327,-2.4988,-2.5819,-2.5959,-2.7354,-2.8874,-3.0361,-3.0361,-3.119,-3.2588,-3.2588,-3.2588,-3.2625,-3.3046,-3.3502,-3.3811,-3.4221,-3.437,-3.437,-2.7071,-2.7247,-2.7481,-2.8008,-2.8183,-2.8242,-2.8242,-2.8432,-2.8578,-2.8578,-2.8578,-2.8578,-2.8578,-2.8769,-2.8812,0.0,-2.8578,-2.8447,0.0,-2.7905,-2.7598,-2.7159,-2.6939,-2.6457,-2.5696,-2.5579,-2.4847,-2.3442,0.0,0.0,0.0,-2.0955,-2.0779,-2.0574,-2.055,-2.0725,-2.0829,-2.1045,-2.1103,-2.1003,-2.073,-2.027,-1.9809,-1.9707,-1.9591,-1.9412,-1.9693,-1.992,-2.016,-2.0548,-2.0802,-2.1029,-2.1323,-2.1269,-2.1122,-2.1229,-2.1603,-2.1964,-2.1857,-2.2338,-2.2819,-2.2605,-2.2712,-2.2859,-2.2859,-2.2859,-2.2859,-2.2859,-2.2792,-2.2752,-2.2846,-2.2539,-2.2311,-2.2405,0.0,0.0,0.0,0.0,0.0,0.0,-2.1069,-2.1136,0.0,-2.1349,0.0,0.0,0.0,0.0,0.0,0.0,0.0,0.0,-2.2271,0.0,-2.318,-2.3273,-2.3434,-2.3634,-2.4344,-2.5439,-2.6632,-2.8175,-2.946,-3.0772,-3.0772,-3.1454,-3.2588,-3.2588,-3.2771,-3.3028,-3.3175,-3.3395,-3.3789,-3.39,-3.3955,-3.3955,-2.7261,-2.7393,-2.7539,-2.7744,-2.7876,-2.7949,-2.7949,-2.8125,-2.8256,-2.8256,-2.8256,-2.8256,-2.8256,-2.8417,0.0,-2.8271,-2.8256,0.0,-2.7788,-2.7481,-2.7144,-2.6822,-2.65,-2.6076,-2.5535,0.0,0.0,-2.3779,-2.3296,-2.2491,-2.1393,-2.1262,-2.1101,-2.0911,-2.0783,-2.1013,-2.1203,-2.1203,-2.1218,-2.1233,-2.0845,-2.0486,-2.0155,-1.9924,-1.9707,-1.9502,-1.969,-1.9826,-2.012,-2.0414,-2.0708,-2.1002,-2.1296,-2.1256,-2.1149,-2.1376,-2.1777,-2.2111,-2.1924,-2.2365,-2.2819,-2.2632,-2.2726,-2.2859,-2.2859,-2.2859,-2.2859,-2.2859,-2.2779,-2.2699,-2.2699,-2.2365,-2.2098,-2.2098,0.0,0.0,0.0,0.0,0.0,0.0,0.0,0.0,0.0,-2.1496,0.0,0.0,0.0,0.0,0.0,0.0,0.0,-2.1977,-2.2271,0.0,-2.3313,-2.3434,-2.3634,-2.3941,-2.4222,-2.4834,-2.5909,-2.7011,-2.852,-3.031,-3.031,-3.1306,-3.3046,-3.3046,-3.3211,-3.345,-3.345,-3.3596,-3.3817,-3.3817,-3.3817,-3.3817,-2.6983,-2.7232,0.0,0.0,-2.7686,0.0,-2.7876,-2.7905,-2.792,-2.792,-2.792,-2.792,-2.792,-2.7905,-2.7876,-2.7876,0.0,0.0,0.0,-2.713,-2.6808,-2.6457,-2.6149,0.0,-2.5505,-2.5476,-2.4993,-2.4057,-2.2813,-2.2052,-2.173,-2.1393,-2.1233,-2.1203,-2.1203,-2.1203,-2.1203,-2.1203,-2.1203,-2.1203,-2.0845,-2.0716,-2.0601,-2.004,-1.9809,-1.9822,-1.9475,-1.9559,-1.9867,-2.0147,-2.0441,-2.0762,-2.1042,-2.1136,-2.1243,-2.1764,-2.2124,-2.2352,-2.2352,-2.2592,-2.2832,-2.2832,-2.2846,-2.2859,-2.2859,-2.2859,-2.2859,-2.2859,-2.2645,-2.2445,-2.2418,-2.1964,-2.1577,-2.155,-2.1537,-2.1323,-2.0762,0.0,0.0,0.0,0.0,0.0,0.0,-2.2004,-2.1897,0.0,0.0,0.0,0.0,0.0,0.0,-2.2017,-2.2311,-2.2766,-2.3354,-2.3647,-2.3941,-2.4235,-2.4502,-2.4489,-2.4249,-2.4516,-2.621,-2.9202,-2.9202,-3.0926,-3.3817,-3.3659,-3.3659,-3.3659,-3.3521,-3.3521,-3.3659,-3.3659,-3.3678,-3.3817,0.0,0.0,-2.71,-2.71,-2.7174,-2.7217,-2.7217,-2.7422,-2.7583,-2.7583,-2.7583,-2.7583,-2.7583,-2.7364,-2.7217,-2.7217,-2.7452,-2.7349,-2.6764,-2.6661,-2.6354,-2.5783,-2.5681,-2.5491,-2.5169,-2.492,-2.4437,-2.3706,-2.2915,-2.2359,-2.2067,-2.173,-2.1452,-2.1203,-2.1203,-2.1203,-2.1203,-2.1203,-2.1203,-2.1203,-2.1089,-2.096,-2.0601,-2.027,-2.004,-1.9822,-1.9475,-1.9693,-2.0147,-2.0214,-2.0575,-2.1056,-2.1349,-2.1443,-2.143,-2.1349,-2.1523,-2.1764,-2.1764,-2.2138,-2.2525,-2.2525,-2.2699,-2.2859,-2.2859,-2.2859,-2.2859,-2.2859,-2.2806,-2.2686,-2.2458,-2.2124,-2.1804,-2.159,-2.1363,-2.1096,-2.0722,0.0,0.0,0.0,-2.1376,-2.167,-2.1951,-2.2191,-2.2191,0.0,0.0,0.0,0.0,0.0,-2.2311,-2.2311,-2.2832,-2.3287,-2.3661,-2.3955,-2.4249,-2.4529,-2.4609,-2.4596,-2.4529,-2.4609,-2.621,-2.9202,-2.9202,-3.0926,-3.3678,-3.2508,-3.207,-3.193,-3.0785,-3.1067,-3.207,-3.207,-3.2806,-3.3817,-2.6983,-2.6983,-2.6983,-2.6983,-2.6983,-2.6983,-2.6983,-2.7144,-2.7261,-2.7261,-2.7261,-2.7261,-2.7261,-2.71,-2.6983,-2.6983,-2.7013,-2.6881,-2.653,-2.6222,-2.59,-2.5549,-2.5257,-2.5008,-2.4832,-2.4657,-2.432,-2.3823,-2.3018,-2.2476,-2.2169,-2.1701,-2.1379,-2.1203,-2.1203,-2.1203,-2.1203,-2.1203,-2.1203,-2.1203,-2.1203,-2.1089,-2.0845,-2.0615,-2.027,-2.004,-1.9707,-1.9771,-2.0054,-2.0187,-2.0535,-2.0962,-2.1256,-2.1349,-2.1323,-2.1162,-2.1416,-2.175,-2.175,-2.2071,-2.2458,-2.2592,-2.2739,-2.2859,-2.2859,-2.2859,-2.2859,-2.2859,-2.2859,-2.2726,-2.2298,-2.2084,-2.1804,-2.1243,-2.1015,-2.0762,-2.0334,-2.0508,0.0,-2.1069,-2.1483,-2.1924,-2.2338,-2.2405,-2.2352,-2.2191,0.0,0.0,-2.2378,-2.2672,-2.2766,-2.2619,-2.3086,-2.3527,-2.3968,-2.4262,-2.4409,-2.4436,-2.4569,-2.4569,-2.4436,-2.4569,-2.5932,-2.8213,-2.8932,-3.0217,-3.1649,-3.1508,-3.1067,-3.0359,-2.9488,-2.9774,-3.0501,-3.1226,-3.2088,-3.2806,-2.6983,-2.6983,-2.6983,-2.6983,-2.6983,-2.6983,-2.6983,-2.6983,-2.6983,-2.6983,-2.6983,-2.6983,-2.6983,-2.6983,-2.6983,-2.6983,-2.6691,-2.6486,-2.6442,-2.5871,-2.5491,-2.5388,-2.4905,-2.4613,-2.4569,-2.4525,-2.4335,-2.4013,-2.312,-2.255,-2.2242,-2.1642,-2.1335,-2.1276,-2.1233,-2.1203,-2.1203,-2.1203,-2.1203,-2.1203,-2.1203,-2.1203,-2.1203,-2.0845,-2.0601,-2.027,-2.004,-1.9897,-1.9959,-2.0201,-2.051,-2.0846,-2.0962,-2.1069,-2.1109,-2.1109,-2.1456,-2.1857,-2.1911,-2.2164,-2.2485,-2.2792,-2.2859,-2.2859,-2.2859,-2.2859,-2.2859,-2.2859,-2.2859,-2.2686,-2.2098,-2.1951,-2.1643,-2.0815,-2.0641,-2.0414,-1.988,0.0,-2.0828,-2.1082,-2.167,-2.2285,-2.2873,-2.2659,-2.2512,-2.2552,-2.2552,0.0,0.0,-2.322,-2.33,-2.3073,-2.3327,-2.3714,-2.4262,-2.4516,-2.4516,-2.4275,-2.4516,-2.4502,-2.4275,-2.4529,-2.5506,-2.6939,-2.8501,-2.9202,-2.9345,-3.0643,-3.0217,-2.8788,-2.8644,-2.8644,-2.9059,-3.0643,-3.1367,-3.1649,-2.6983,-2.6983,-2.6983,-2.6983,-2.6983,-2.6983,-2.6983,-2.6983,-2.6983,-2.6983,-2.6983,-2.6983,-2.6983,-2.6983,-2.6983,-2.6983,-2.6691,-2.6383,-2.6105,-2.574,-2.5286,-2.4744,-2.4891,-2.4847,-2.4569,-2.4291,-2.3998,-2.3676,-2.3237,-2.2871,-2.255,-2.2198,-2.1876,-2.1613,-2.1335,-2.1203,-2.1203,-2.1203,-2.1203,-2.1203,-2.1203,-2.1203,-2.1203,-2.0845,-2.0716,-2.0601,-2.027,-2.035,-2.0496,-2.0315,-2.0577,-2.1039,-2.0846,-2.0909,-2.1109,-2.1109,-2.1176,-2.1296,-2.155,-2.2004,-2.2485,-2.2792,-2.2859,-2.2859,-2.2859,-2.2859,-2.2859,-2.2859,-2.2859,-2.2686,-2.2098,-2.1777,-2.1416,-2.0775,-2.0468,-2.0187,0.0,0.0,-2.1056,-2.1109,-2.1844,-2.2592,-2.3193,-2.2979,-2.2899,-2.3166,-2.318,-2.3207,-2.3247,-2.3541,-2.3794,-2.3995,-2.4048,-2.4222,-2.4569,-2.4609,-2.4609,-2.4569,-2.4609,-2.4609,-2.4569,-2.4609,-2.5506,-2.6939,-2.8501,-2.9202,-2.9202,-2.9488,-2.8644,-2.7085,-2.5786,-2.6078,-2.7505,-2.8932,-3.0359,-3.1649,-2.6954,-2.6983,-2.6983,-2.6983,-2.6983,-2.6983,-2.6983,-2.6983,-2.6983,-2.6983,-2.6983,-2.6983,-2.6983,-2.6983,-2.6983,-2.6983,-2.653,-2.6105,-2.5783,-2.5447,-2.5066,-2.4583,-2.4379,-2.4203,-2.4042,-2.3896,-2.3662,-2.3325,-2.3003,-2.2593,-2.2111,-2.1803,-2.1584,-2.1423,-2.1276,-2.1203,-2.1203,-2.1203,-2.1203,-2.1203,-2.1203,-2.1203,-2.1203,-2.1089,-2.0845,-2.0716,-2.0601,-2.047,-2.0508,-2.0559,-2.0787,-2.1188,-2.0985,-2.1118,-2.1362,-2.1109,-2.1336,-2.1617,-2.175,-2.2218,-2.2699,-2.2832,-2.2859,-2.2859,-2.2859,-2.2859,-2.2859,-2.2859,-2.2859,-2.2726,-2.2298,-2.1977,-2.1643,-2.1216,-2.0628,0.0,0.0,-2.0748,-2.1229,-2.155,-2.2365,-2.3086,-2.3527,-2.3434,-2.3407,-2.3554,-2.3714,-2.3794,-2.3794,-2.4075,-2.4302,-2.4436,-2.4436,-2.4502,-2.4636,-2.4636,-2.4636,-2.4636,-2.4636,-2.4636,-2.4636,-2.4636,-2.4918,-2.5786,-2.7215,-2.7505,-2.6779,-2.765,-2.707,-2.5653,-2.4931,-2.5506,-2.7085,-2.8644,-3.0217,-3.1649,-2.6822,-2.6939,-2.6983,-2.6983,-2.6983,-2.6983,-2.6983,-2.6983,-2.6983,-2.6983,-2.6983,-2.6983,-2.6983,-2.6925,-2.691,-2.6983,-2.6325,-2.5798,-2.5549,-2.5096,-2.4686,-2.4364,-2.394,-2.3749,-2.3823,-2.3676,-2.3471,-2.3223,-2.2813,-2.2418,-2.2023,-2.1686,-2.1496,-2.1307,-2.135,-2.1276,-2.1203,-2.1203,-2.1203,-2.1203,-2.1203,-2.1203,-2.1203,-2.1203,-2.1089,-2.0845,-2.0845,-2.073,-2.0557,-2.0737,-2.1047,-2.1371,-2.1313,-2.1368,-2.1502,-2.1443,-2.176,-2.2217,-2.2084,-2.2472,-2.2859,-2.2859,-2.2913,-2.2966,-2.2966,-2.2966,-2.2966,-2.2966,-2.2913,-2.2766,-2.2472,-2.2124,-2.179,-2.1496,0.0,0.0,0.0,-2.1042,-2.151,-2.2031,-2.2886,-2.3554,-2.3848,-2.3808,-2.3794,-2.3861,-2.4075,-2.4209,-2.4209,-2.4476,-2.4636,-2.4636,-2.4636,-2.4636,-2.4636,-2.4636,-2.4636,-2.4636,-2.4636,-2.4636,-2.4636,-2.4636,-2.4636,-2.4784,-2.6648,-2.6357,-2.4784,-2.6648,-2.6357,-2.4636,-2.4636,-2.5506,-2.7085,-2.8644,-3.0217,-3.1649,-2.653,-2.6778,-2.6983,-2.6983,-2.6983,-2.6983,-2.6983,-2.6983,-2.6983,-2.6983,-2.6983,-2.6983,-2.6983,-2.672,-2.6661,-2.6969,-2.612,-2.5549,-2.5535,-2.4671,-2.4013,-2.3676,-2.391,-2.4188,-2.4496,-2.391,-2.3588,-2.3559,-2.2792,-2.2617,-2.3003,-2.2544,-2.2224,-2.1814,-2.1656,-2.1496,-2.1203,-2.1203,-2.1203,-2.1203,-2.1203,-2.1203,-2.1203,-2.1203,-2.1203,-2.1203,-2.1203,-2.1203,-2.1132,-2.1205,-2.1403,-2.1612,-2.168,-2.1617,-2.1669,-2.1943,-2.2462,-2.2794,-2.2526,-2.2619,-2.2859,-2.2859,-2.3086,-2.3287,-2.3287,-2.3287,-2.3287,-2.3287,-2.306,-2.2766,-2.2472,-2.1964,-2.1483,-2.1189,0.0,0.0,-2.0641,-2.139,-2.2031,-2.2352,-2.318,-2.3848,-2.4142,-2.3928,-2.3888,-2.4155,-2.4195,-2.4209,-2.4209,-2.4476,-2.4636,-2.4636,-2.4636,-2.4636,-2.4636,-2.4636,-2.4636,-2.4636,-2.4636,-2.4636,-2.4636,-2.4636,-2.4636,-2.4784,-2.778,-2.736,-2.4784,-2.778,-2.7215,-2.4636,-2.4636,-2.5506,-2.7085,-2.8644,-3.0217,-3.1649,-2.6164,-2.6457,-2.6691,-2.6691,-2.6852,-2.6983,-2.6983,-2.6983,-2.6983,-2.6983,-2.6983,-2.691,-2.6705,-2.6574,-2.6471,-2.6398,-2.5681,-2.5154,-2.4949,-2.4218,-2.372,-2.3603,-2.372,-2.394,-2.4262,-2.3823,-2.3398,-2.2988,-2.2701,-2.2333,-2.1935,-2.2068,-2.1833,-2.1438,-2.1437,-2.132,-2.1203,-2.1203,-2.1203,-2.1203,-2.1203,-2.1203,-2.1203,-2.1203,-2.1335,-2.154,-2.1745,-2.1935,-2.2096,-2.2093,-2.2233,-2.2479,-2.2039,-2.2242,-2.2624,-2.2869,-2.3175,-2.3306,-2.3283,-2.3324,-2.3187,-2.31,-2.3247,-2.338,-2.3554,-2.3607,-2.3607,-2.3607,-2.3514,-2.3394,-2.3273,-2.2926,-2.2672,-2.2752,0.0,-2.1764,-2.2258,-2.2445,-2.2712,-2.3193,-2.3728,-2.4155,-2.4449,-2.4369,-2.4356,-2.4462,-2.4476,-2.4476,-2.4476,-2.4569,-2.4636,-2.4636,-2.4636,-2.4636,-2.4636,-2.4636,-2.4636,-2.4636,-2.4636,-2.4636,-2.4636,-2.4636,-2.4636,-2.4636,-2.5772,-2.621,-2.6078,-2.621,-2.621,-2.6078,-2.6078,-2.6925,-2.8501,-3.0075,-3.1649,-3.2945,-2.5827,-2.612,-2.6354,-2.6354,-2.653,-2.6691,-2.6691,-2.6691,-2.6691,-2.6691,-2.6603,-2.6442,-2.6222,-2.6018,-2.5842,-2.5725,-2.5022,-2.454,-2.4423,-2.3808,-2.3486,-2.3588,-2.3588,-2.3706,-2.3925,-2.3603,-2.3179,-2.2759,-2.233,-2.195,-2.1511,-2.1525,-2.1467,-2.122,-2.1364,-2.1306,-2.1203,-2.1203,-2.1203,-2.1203,-2.1203,-2.1203,-2.1203,-2.1203,-2.1408,-2.1745,-2.2067,-2.2374,-2.2637,-2.274,-2.2915,-2.3076,-2.2595,-2.2846,-2.3336,-2.3601,-2.3764,-2.3868,-2.4025,-2.3914,-2.361,-2.3547,-2.3541,-2.3661,-2.3861,-2.3915,-2.3915,-2.3915,-2.3834,-2.3768,-2.3768,-2.3527,-2.3394,-2.3594,-2.3033,-2.2739,-2.326,-2.322,-2.334,-2.3848,-2.4168,-2.4422,-2.4623,-2.4636,-2.4636,-2.4636,-2.4636,-2.4636,-2.4636,-2.473,-2.473,-2.4636,-2.4636,-2.4636,-2.4636,-2.4636,-2.469,-2.477,-2.4676,-2.4636,-2.4636,-2.4636,-2.4636,-2.4636,-2.5065,-2.5639,-2.6225,-2.6064,-2.6064,-2.6225,-2.7215,-2.8213,-2.9345,-3.0926,-3.2508,-3.3798,-2.552,-2.5783,-2.6018,-2.6018,-2.6018,-2.6018,-2.6018,-2.6018,-2.6018,-2.6018,-2.574,-2.5535,-2.552,-2.4949,-2.4701,-2.5022,-2.4159,-2.3735,-2.4057,-2.3471,-2.3252,-2.3574,-2.3588,-2.3588,-2.3603,-2.3281,-2.3098,-2.3063,-2.1775,-2.1498,-2.2184,-2.1484,-2.118,-2.116,-2.1554,-2.1511,-2.1203,-2.1203,-2.1203,-2.1203,-2.1203,-2.1203,-2.1218,-2.1218,-2.1423,-2.1745,-2.2081,-2.2389,-2.2681,-2.3003,-2.312,-2.3106,-2.312,-2.3305,-2.3622,-2.3951,-2.421,-2.4414,-2.4414,-2.4371,-2.4195,-2.3924,-2.3995,-2.4209,-2.4209,-2.4209,-2.4209,-2.4209,-2.3981,-2.3781,-2.3781,-2.3541,-2.334,-2.334,-2.3073,-2.2979,-2.33,-2.3594,-2.3888,-2.4168,-2.4462,-2.4636,-2.4636,-2.4636,-2.4636,-2.4636,-2.4636,-2.4636,-2.4636,-2.4917,-2.4943,-2.4649,-2.4636,-2.4636,-2.4636,-2.4636,-2.4783,-2.5077,-2.4783,-2.4636,-2.4636,-2.4636,-2.4636,-2.4636,-2.6225,-2.6078,-2.4918,-2.7924,-2.736,-2.4918,-2.7924,-2.9202,-2.9345,-3.0926,-3.2508,-3.3762,-2.5561,-2.5599,-2.5681,-2.5681,-2.5857,-2.6018,-2.6018,-2.6018,-2.593,-2.571,-2.5593,-2.5359,-2.4905,-2.4686,-2.451,-2.4379,-2.3896,-2.3545,-2.3413,-2.3223,-2.3149,-2.3252,-2.3471,-2.3706,-2.394,-2.3618,-2.3296,-2.3113,-2.2147,-2.1518,-2.1435,-2.1336,-2.1177,-2.122,-2.135,-2.1306,-2.1203,-2.1203,-2.1203,-2.1203,-2.1203,-2.135,-2.1569,-2.1803,-2.2078,-2.2342,-2.3184,-2.3432,-2.3505,-2.3749,-2.3647,-2.3486,-2.372,-2.4247,-2.4684,-2.4596,-2.4844,-2.5073,-2.4731,-2.4569,-2.4507,-2.4219,-2.4142,-2.4262,-2.4462,-2.4502,-2.4502,-2.4502,-2.4436,-2.4382,-2.4382,-2.4302,-2.4249,-2.4249,-2.4168,-2.4142,-2.4235,-2.4315,-2.4409,-2.4489,-2.4583,-2.4636,-2.4636,-2.4636,-2.4636,-2.4636,-2.4823,-2.4863,-2.4649,-2.4917,-2.4943,-2.4649,-2.4636,-2.473,-2.4943,-2.4743,-2.4676,-2.477,-2.4676,-2.4636,-2.4636,-2.4636,-2.4636,-2.4636,-2.5065,-2.5639,-2.6225,-2.6064,-2.6064,-2.6371,-2.723,-2.8213,-2.9345,-3.0926,-3.2508,-3.3798,-2.5532,-2.5621,-2.5481,-2.5344,-2.5505,-2.5637,-2.5637,-2.552,-2.5374,-2.5169,-2.492,-2.4613,-2.4232,-2.4071,-2.391,-2.372,-2.3515,-2.3325,-2.312,-2.3106,-2.3106,-2.3106,-2.3296,-2.3501,-2.3691,-2.3501,-2.3193,-2.2877,-2.2359,-2.1802,-2.122,-2.1176,-2.1203,-2.1203,-2.1203,-2.1276,-2.1393,-2.1262,-2.1276,-2.1408,-2.1408,-2.1525,-2.173,-2.2052,-2.2291,-2.2591,-2.3403,-2.3723,-2.3768,-2.3925,-2.3764,-2.3647,-2.3984,-2.4525,-2.511,-2.5157,-2.5283,-2.5242,-2.5008,-2.4856,-2.4661,-2.4369,-2.4369,-2.4422,-2.4596,-2.4636,-2.4636,-2.4636,-2.4636,-2.4636,-2.4636,-2.4636,-2.4636,-2.4636,-2.4636,-2.4636,-2.4636,-2.4636,-2.4636,-2.4636,-2.4636,-2.469,-2.4796,-2.481,-2.4863,-2.497,-2.5144,-2.5117,-2.4823,-2.509,-2.5064,-2.4649,-2.4636,-2.4716,-2.4903,-2.473,-2.469,-2.481,-2.469,-2.4636,-2.4636,-2.4636,-2.4636,-2.4636,-2.4636,-2.5065,-2.5932,-2.5639,-2.5639,-2.6078,-2.736,-2.8068,-2.8501,-3.0075,-3.1508,-3.2927,-2.5755,-2.5577,-2.5457,-2.5187,-2.5172,-2.5008,-2.5008,-2.473,-2.451,-2.4481,-2.3969,-2.3588,-2.3559,-2.3281,-2.3106,-2.3106,-2.3106,-2.3106,-2.3106,-2.3106,-2.3106,-2.3106,-2.3106,-2.3106,-2.3106,-2.3106,-2.2965,-2.2541,-2.2497,-2.2024,-2.1291,-2.1233,-2.1203,-2.1203,-2.1247,-2.1423,-2.1686,-2.1408,-2.1467,-2.1745,-2.1745,-2.1759,-2.1818,-2.2169,-2.2393,-2.262,-2.3083,-2.3461,-2.3724,-2.3691,-2.3618,-2.3691,-2.4027,-2.4598,-2.5198,-2.5491,-2.5455,-2.538,-2.538,-2.5007,-2.4636,-2.4636,-2.4636,-2.4636,-2.4636,-2.4636,-2.4636,-2.4636,-2.4636,-2.4636,-2.4636,-2.4636,-2.4636,-2.4636,-2.4636,-2.4636,-2.4636,-2.4636,-2.4636,-2.4636,-2.4663,-2.4783,-2.505,-2.5104,-2.5224,-2.5491,-2.5545,-2.5411,-2.5104,-2.5358,-2.5237,-2.4649,-2.4636,-2.4636,-2.4636,-2.4636,-2.477,-2.5037,-2.477,-2.4636,-2.4636,-2.4636,-2.4636,-2.4636,-2.4636,-2.4636,-2.4784,-2.6078,-2.5932,-2.4918,-2.7635,-2.8068,-2.7085,-2.8501,-2.9932,-3.1316,-2.592,-2.5814,-2.5592,-2.5457,-2.5115,-2.4671,-2.4671,-2.4393,-2.4101,-2.3837,-2.3691,-2.3501,-2.3237,-2.3149,-2.3106,-2.3106,-2.3106,-2.3106,-2.3106,-2.3106,-2.3106,-2.3106,-2.3106,-2.3106,-2.3106,-2.3106,-2.3047,-2.2915,-2.2554,-2.2096,-2.1683,-2.1322,-2.1203,-2.1218,-2.1481,-2.1628,-2.1715,-2.1891,-2.2008,-2.2081,-2.2081,-2.2213,-2.2491,-2.3076,-2.3105,-2.302,-2.4,-2.3869,-2.3278,-2.3548,-2.3764,-2.4027,-2.4364,-2.5081,-2.5813,-2.5466,-2.5784,-2.5994,-2.5423,-2.5185,-2.4931,-2.4636,-2.4636,-2.4636,-2.4636,-2.4636,-2.4636,-2.4636,-2.4636,-2.4636,-2.4636,-2.4636,-2.4636,-2.4636,-2.4636,-2.4636,-2.4636,-2.4636,-2.4636,-2.4636,-2.4836,-2.501,-2.5077,-2.5291,-2.5451,-2.5504,-2.5732,-2.5625,-2.5104,-2.5358,-2.5237,-2.4649,-2.4636,-2.4636,-2.4636,-2.4636,-2.4676,-2.473,-2.4663,-2.4636,-2.4636,-2.4636,-2.4636,-2.4636,-2.4636,-2.4636,-2.4636,-2.4918,-2.4931,-2.4636,-2.5345,-2.6078,-2.6939,-2.723,-2.8357,-2.9867,-2.5825,-2.5666,-2.5525,-2.5393,-2.5111,-2.4728,-2.4597,-2.4316,-2.3922,-2.3618,-2.3457,-2.3296,-2.3135,-2.3106,-2.3106,-2.3106,-2.3106,-2.3106,-2.3106,-2.3106,-2.3106,-2.3106,-2.3106,-2.3106,-2.3106,-2.3106,-2.3032,-2.2871,-2.255,-2.2108,-2.1802,-2.1598,-2.1364,-2.1218,-2.1393,-2.1642,-2.1935,-2.2216,-2.2393,-2.2389,-2.2389,-2.2491,-2.2681,-2.3179,-2.3417,-2.3407,-2.3723,-2.3607,-2.3163,-2.3461,-2.391,-2.4379,-2.4701,-2.5461,-2.6252,-2.5968,-2.6157,-2.6253,-2.596,-2.552,-2.5092,-2.4931,-2.4784,-2.4636,-2.4636,-2.4636,-2.4636,-2.4636,-2.4636,-2.4636,-2.4636,-2.4636,-2.4636,-2.4636,-2.4636,-2.4636,-2.4636,-2.4636,-2.4636,-2.4636,-2.4903,-2.5184,-2.5464,-2.5638,-2.5785,-2.5919,-2.5945,-2.5825,-2.5518,-2.5504,-2.5304,-2.4863,-2.4716,-2.4703,-2.485,-2.4703,-2.4703,-2.485,-2.4703,-2.4636,-2.4636,-2.4636,-2.4636,-2.4636,-2.4636,-2.4636,-2.4636,-2.4636,-2.4636,-2.4636,-2.4636,-2.5065,-2.5786,-2.5786,-2.7215,-2.9329,-2.5626,-2.5607,-2.551,-2.5252,-2.5077,-2.4902,-2.4645,-2.4359,-2.4022,-2.3642,-2.3407,-2.3106,-2.3106,-2.3106,-2.3106,-2.3106,-2.3106,-2.3106,-2.3106,-2.3106,-2.3106,-2.3106,-2.3106,-2.3106,-2.3106,-2.3106,-2.2974,-2.271,-2.2593,-2.2286,-2.1774,-2.1672,-2.1467,-2.1218,-2.1262,-2.1613,-2.2169,-2.2364,-2.2602,-2.271,-2.271,-2.271,-2.274,-2.3062,-2.3369,-2.3701,-2.3296,-2.3164,-2.3164,-2.3559,-2.4216,-2.4775,-2.5113,-2.5878,-2.65,-2.65,-2.6446,-2.6546,-2.6385,-2.596,-2.5373,-2.5239,-2.4931,-2.4636,-2.4636,-2.4636,-2.4636,-2.4636,-2.4636,-2.4636,-2.4636,-2.4676,-2.469,-2.4649,-2.4716,-2.4743,-2.4649,-2.4676,-2.4716,-2.4716,-2.5024,-2.5398,-2.5838,-2.5972,-2.6106,-2.6306,-2.6132,-2.5985,-2.5892,-2.5651,-2.5358,-2.501,-2.477,-2.4756,-2.4997,-2.4756,-2.4756,-2.4997,-2.4756,-2.4636,-2.4636,-2.4636,-2.4636,-2.4636,-2.4636,-2.4636,-2.4636,-2.4636,-2.4636,-2.4636,-2.4636,-2.4636,-2.4636,-2.4636,-2.6168,-2.8551,-2.5565,-2.5563,-2.5654,-2.551,-2.5006,-2.468,-2.4553,-2.4265,-2.3928,-2.3678,-2.3509,-2.3355,-2.3106,-2.3106,-2.3106,-2.3106,-2.3106,-2.3106,-2.3106,-2.3106,-2.3106,-2.3106,-2.3106,-2.3106,-2.3106,-2.3106,-2.3091,-2.3047,-2.2506,-2.2198,-2.2111,-2.154,-2.1247,-2.1218,-2.1511,-2.17,-2.1915,-2.2403,-2.271,-2.3047,-2.3047,-2.3047,-2.3076,-2.3398,-2.3403,-2.3163,-2.3403,-2.3354,-2.3208,-2.3966,-2.4568,-2.51,-2.5891,-2.6354,-2.65,-2.65,-2.6735,-2.6838,-2.6546,-2.6399,-2.6107,-2.5373,-2.5226,-2.5079,-2.4636,-2.4636,-2.4636,-2.4636,-2.4636,-2.4636,-2.4636,-2.485,-2.493,-2.4676,-2.5064,-2.5211,-2.4703,-2.4863,-2.5024,-2.5024,-2.5504,-2.5772,-2.5585,-2.6026,-2.6239,-2.6039,-2.6213,-2.6106,-2.5598,-2.5531,-2.5264,-2.4716,-2.4663,-2.4649,-2.469,-2.4649,-2.4649,-2.469,-2.4649,-2.4636,-2.4636,-2.4636,-2.4636,-2.4636,-2.4636,-2.4636,-2.4636,-2.4636,-2.4636,-2.4636,-2.4636,-2.4636,-2.4636,-2.4636,-2.4769,-2.5105,-2.5342,-2.5344,-2.5329,-2.5329,-2.5062,-2.4844,-2.4594,-2.4331,-2.3991,-2.3604,-2.3479,-2.323,-2.3106,-2.3106,-2.3106,-2.3106,-2.3106,-2.3106,-2.3106,-2.3106,-2.3106,-2.3106,-2.3106,-2.3106,-2.3106,-2.3106,-2.3106,-2.3106,-2.2828,-2.2608,-2.2418,-2.1964,-2.1657,-2.1496,-2.1642,-2.1876,-2.2064,-2.2642,-2.2951,-2.3106,-2.3106,-2.3106,-2.312,-2.3267,-2.3184,-2.3199,-2.353,-2.3384,-2.3237,-2.4216,-2.4569,-2.492,-2.5766,-2.6461,-2.6778,-2.6778,-2.6881,-2.6983,-2.6838,-2.6546,-2.6253,-2.596,-2.5667,-2.5373,-2.5079,-2.4931,-2.4931,-2.4636,-2.4636,-2.469,-2.485,-2.4997,-2.509,-2.5117,-2.5211,-2.5184,-2.4917,-2.4997,-2.5144,-2.5304,-2.5558,-2.5651,-2.5518,-2.5745,-2.5919,-2.5959,-2.6079,-2.6039,-2.5772,-2.5598,-2.5317,-2.4903,-2.4716,-2.4716,-2.489,-2.4716,-2.4716,-2.4877,-2.4716,-2.4636,-2.4636,-2.4636,-2.4636,-2.4636,-2.4636,-2.4636,-2.4636,-2.4636,-2.4636,-2.4636,-2.4636,-2.4636,-2.4636,-2.4636,-2.513,-2.5852]},{"header":{"parameterUnit":"m.s-1","parameterCategory":1,"la1":30.6,"la2":28.766,"lo1":-90.7593,"lo2":-88.6598,"dy":0.0162,"dx":0.0183,"nx":116,"ny":114,"refTime":"2023-06-16T06:00:00:Z","depth":0,"parameterNumber":3,"parameterNumberName":"V-component_of_WINDS"},"data":[0.0,0.0,0.0,0.0,0.0,0.0,0.0,0.0,0.0,0.0,0.0,0.0,0.0,0.0,0.0,0.0,0.0,0.0,0.0,0.0,0.0,0.0,0.0,0.0,0.0,0.0,0.0,0.0,0.0,0.0,0.0,0.0,0.0,0.0,0.0,0.0,0.0,0.0,0.0,0.0,0.0,0.0,0.0,0.0,0.0,0.0,0.0,0.0,0.0,0.0,0.0,0.0,0.0,0.0,0.0,0.0,0.0,0.0,0.0,0.0,0.0,0.0,0.0,0.0,0.0,0.0,0.0,0.0,0.0,0.0,0.0,0.0,0.0,0.0,0.0,0.0,0.0,0.0,0.0,0.0,0.0,0.0,0.0,0.0,0.0,0.0,0.0,0.0,0.0,0.0,0.0,0.0,0.0,0.0,0.0,0.0,0.0,0.0,0.0,0.0,0.0,0.0,0.0,0.0,0.0,0.0,0.0,0.0,0.0,0.0,0.0,0.0,0.0,0.0,0.0,0.0,0.0,0.0,0.0,0.0,0.0,0.0,0.0,0.0,0.0,0.0,0.0,0.0,0.0,0.0,0.0,0.0,0.0,0.0,0.0,0.0,0.0,0.0,0.0,0.0,0.0,0.0,0.0,0.0,0.0,0.0,0.0,0.0,0.0,0.0,0.0,0.0,0.0,0.0,0.0,0.0,0.0,0.0,0.0,0.0,0.0,0.0,0.0,0.0,0.0,0.0,0.0,0.0,0.0,0.0,0.0,0.0,0.0,0.0,0.0,0.0,0.0,0.0,0.0,0.0,0.0,0.0,0.0,0.0,0.0,0.0,0.0,0.0,0.0,0.0,0.0,0.0,0.0,0.0,0.0,0.0,0.0,0.0,0.0,0.0,0.0,0.0,0.0,0.0,0.0,0.0,0.0,0.0,0.0,0.0,0.0,0.0,0.0,0.0,0.0,0.0,0.0,0.0,0.0,0.0,0.0,0.0,0.0,0.0,0.0,0.0,0.0,0.0,0.0,0.0,0.0,0.0,0.0,0.0,0.0,0.0,0.0,0.0,0.0,0.0,0.0,0.0,0.0,0.0,0.0,0.0,0.0,0.0,0.0,0.0,0.0,0.0,0.0,0.0,0.0,0.0,0.0,0.0,0.0,0.0,0.0,0.0,0.0,0.0,0.0,0.0,0.0,0.0,0.0,0.0,0.0,0.0,0.0,0.0,0.0,0.0,0.0,0.0,0.0,0.0,0.0,0.0,0.0,0.0,0.0,0.0,0.0,0.0,0.0,0.0,0.0,0.0,0.0,0.0,0.0,0.0,0.0,0.0,0.0,0.0,0.0,0.0,0.0,0.0,0.0,0.0,0.0,0.0,0.0,0.0,0.0,0.0,0.0,0.0,0.0,0.0,0.0,0.0,0.0,0.0,0.0,0.0,0.0,0.0,0.0,0.0,0.0,0.0,0.0,0.0,0.0,0.0,0.0,0.0,0.0,0.0,0.0,0.0,0.0,0.0,0.0,0.0,0.0,0.0,0.0,0.0,0.0,0.0,0.0,0.0,0.0,0.0,0.0,0.0,0.0,0.0,0.0,0.0,0.0,0.0,0.0,0.0,0.0,0.0,0.0,0.0,0.0,0.0,0.0,0.0,0.0,0.0,0.0,0.0,0.0,0.0,0.0,0.0,0.0,0.0,0.0,0.0,0.0,0.0,0.0,0.0,0.0,0.0,0.0,0.0,0.0,0.0,0.0,0.0,0.0,0.0,0.0,0.0,0.0,0.0,0.0,0.0,0.0,0.0,0.0,0.0,0.0,0.0,0.0,0.0,0.0,0.0,0.0,0.0,0.0,0.0,0.0,0.0,0.0,0.0,0.0,0.0,0.0,0.0,0.0,0.0,0.0,0.0,0.0,0.0,0.0,0.0,0.0,0.0,0.0,0.0,0.0,0.0,0.0,0.0,0.0,0.0,0.0,0.0,0.0,0.0,0.0,0.0,0.0,0.0,0.0,0.0,0.0,0.0,0.0,0.0,0.0,0.0,0.0,0.0,0.0,0.0,0.0,0.0,0.0,0.0,0.0,0.0,0.0,0.0,0.0,0.0,0.0,0.0,0.0,0.0,0.0,0.0,0.0,0.0,0.0,0.0,0.0,0.0,0.0,0.0,0.0,0.0,0.0,0.0,0.0,0.0,0.0,0.0,0.0,0.0,0.0,0.0,0.0,0.0,0.0,0.0,0.0,0.0,0.0,0.0,0.0,0.0,0.0,0.0,0.0,0.0,0.0,0.0,0.0,0.0,0.0,0.0,0.0,0.0,0.0,0.0,0.0,0.0,0.0,0.0,0.0,0.0,0.0,0.0,0.0,0.0,0.0,0.0,0.0,0.0,0.0,0.0,0.0,0.0,0.0,0.0,0.0,0.0,0.0,0.0,0.0,0.0,0.0,0.0,0.0,0.0,0.0,0.0,0.0,0.0,0.0,0.0,0.0,0.0,0.0,0.0,0.0,0.0,0.0,0.0,0.0,0.0,0.0,0.0,0.0,0.0,0.0,0.0,0.0,0.0,0.0,0.0,0.0,0.0,0.0,0.0,0.0,0.0,0.0,0.0,0.0,0.0,0.0,0.0,0.0,0.0,0.0,0.0,0.0,0.0,0.0,0.0,0.0,0.0,0.0,0.0,0.0,0.0,0.0,0.0,0.0,0.0,0.0,0.0,0.0,0.0,0.0,0.0,0.0,0.0,0.0,0.0,0.0,0.0,0.0,0.0,0.0,0.0,0.0,0.0,0.0,0.0,0.0,0.0,0.0,0.0,0.0,0.0,0.0,0.0,0.0,0.0,0.0,0.0,0.0,0.0,0.0,0.0,0.0,0.0,0.0,0.0,0.0,0.0,0.0,0.0,0.0,0.0,0.0,0.0,0.0,0.0,0.0,0.0,0.0,0.0,0.0,0.0,0.0,0.0,0.0,0.0,0.0,0.0,0.0,0.0,0.0,0.0,0.0,0.0,0.0,0.0,0.0,0.0,0.0,0.0,0.0,0.0,0.0,0.0,0.0,0.0,0.0,0.0,0.0,0.0,0.0,0.0,0.0,0.0,0.0,0.0,0.0,0.0,0.0,0.0,0.0,0.0,0.0,0.0,0.0,0.0,0.0,0.0,0.0,0.0,0.0,0.0,0.0,0.0,0.0,0.0,0.0,0.0,0.0,0.0,0.0,0.0,0.0,0.0,0.0,0.0,0.0,0.0,0.0,0.0,0.0,0.0,0.0,0.0,0.0,0.0,0.0,0.0,0.0,0.0,0.0,0.0,0.0,0.0,0.0,0.0,0.0,0.0,0.0,0.0,0.0,0.0,0.0,0.0,0.0,0.0,0.0,0.0,0.0,0.0,0.0,0.0,0.0,0.0,0.0,0.0,0.0,0.0,0.0,0.0,0.0,0.0,0.0,0.0,0.0,0.0,0.0,0.0,0.0,0.0,0.0,0.0,0.0,0.0,0.0,0.0,0.0,0.0,0.0,0.0,0.0,0.0,0.0,0.0,0.0,0.0,0.0,0.0,0.0,0.0,0.0,0.0,0.0,0.0,0.0,0.0,0.0,0.0,0.0,0.0,0.0,0.0,0.0,0.0,0.0,0.0,0.0,0.0,0.0,0.0,0.0,0.0,0.0,0.0,0.0,0.0,0.0,0.0,0.0,0.0,0.0,0.0,0.0,0.0,0.0,0.0,0.0,0.0,0.0,0.0,0.0,0.0,0.0,0.0,0.0,0.0,0.0,0.0,0.0,0.0,0.0,0.0,0.0,0.0,0.0,0.0,0.0,0.0,0.0,0.0,0.0,0.0,0.0,0.0,0.0,0.0,0.0,0.0,0.0,0.0,0.0,0.0,0.0,0.0,0.0,0.0,0.0,0.0,0.0,0.0,0.0,0.0,0.0,0.0,0.0,0.0,0.0,0.0,0.0,0.0,0.0,0.0,0.0,0.0,0.0,0.0,0.0,0.0,0.0,0.0,0.0,0.0,0.0,0.0,0.0,0.0,0.0,0.0,0.0,0.0,0.0,0.0,0.0,0.0,0.0,0.0,0.0,0.0,0.0,0.0,0.0,0.0,0.0,0.0,0.0,0.0,0.0,0.0,0.0,0.0,0.0,0.0,0.0,0.0,0.0,0.0,0.0,0.0,0.0,0.0,0.0,0.0,0.0,0.0,0.0,0.0,0.0,0.0,0.0,0.0,0.0,0.0,0.0,0.0,0.0,0.0,0.0,0.0,0.0,0.0,0.0,0.0,0.0,0.0,0.0,0.0,0.0,0.0,0.0,0.0,0.0,0.0,0.0,0.0,0.0,0.0,0.0,0.0,0.0,0.0,0.0,0.0,0.0,0.0,0.0,0.0,0.0,0.0,0.0,0.0,0.0,0.0,0.0,0.0,0.0,0.0,0.0,0.0,0.0,0.0,0.0,0.0,0.0,0.0,0.0,0.0,0.0,0.0,0.0,0.0,0.0,0.0,0.0,0.0,0.0,0.0,0.0,0.0,0.0,0.0,0.0,0.0,0.0,0.0,0.0,0.0,0.0,0.0,0.0,0.0,0.0,0.0,0.0,0.0,0.0,0.0,0.0,0.0,0.0,0.0,0.0,0.0,0.0,0.0,0.0,0.0,0.0,0.0,0.0,0.0,0.0,0.0,0.0,0.0,0.0,0.0,0.0,0.0,0.0,0.0,0.0,0.0,0.0,0.0,0.0,0.0,0.0,0.0,0.0,0.0,0.0,0.0,0.0,0.0,0.0,0.0,0.0,0.0,0.0,0.0,0.0,0.0,0.0,0.0,0.0,0.0,0.0,0.0,0.0,0.0,0.0,0.0,0.0,0.0,0.0,0.0,0.0,0.0,0.0,0.0,0.0,0.0,0.0,0.0,0.0,0.0,0.0,0.0,0.0,0.0,0.0,0.0,0.0,0.0,0.0,0.0,0.0,0.0,0.0,0.0,0.0,0.0,0.0,0.0,0.0,0.0,0.0,0.0,0.0,0.0,0.0,0.0,0.0,0.0,0.0,0.0,0.0,0.0,0.0,0.0,0.0,0.0,0.0,0.0,0.0,0.0,0.0,0.0,0.0,0.0,0.0,0.0,0.0,0.0,0.0,0.0,0.0,0.0,0.0,0.0,0.0,0.0,0.0,0.0,0.0,0.0,0.0,0.0,0.0,0.0,0.0,0.0,0.0,0.0,0.0,0.0,0.0,0.0,0.0,0.0,0.0,0.0,0.0,0.0,0.0,0.0,0.0,0.0,0.0,0.0,0.0,0.0,0.0,0.0,0.0,0.0,0.0,0.0,0.0,0.0,0.0,0.0,0.0,0.0,0.0,0.0,0.0,0.0,0.0,0.0,0.0,0.0,0.0,0.0,0.0,0.0,0.0,0.0,0.0,0.0,0.0,0.0,0.0,0.0,0.0,0.0,0.0,0.0,0.0,0.0,0.0,0.0,0.0,0.0,0.0,0.0,0.0,0.0,0.0,0.0,0.0,0.0,0.0,0.0,0.0,0.0,0.0,0.0,0.0,0.0,0.0,0.0,0.0,0.0,0.0,0.0,0.0,0.0,0.0,0.0,0.0,0.0,0.0,0.0,0.0,0.0,0.0,0.0,0.0,0.0,0.0,0.0,0.0,0.0,0.0,0.0,0.0,0.0,0.0,0.0,0.0,0.0,0.0,0.0,0.0,0.0,0.0,0.0,0.0,0.0,0.0,0.0,0.0,0.0,0.0,0.0,0.0,0.0,0.0,0.0,0.0,0.0,0.0,0.0,0.0,0.0,0.0,0.0,0.0,0.0,0.0,0.0,0.0,0.0,0.0,0.0,0.0,0.0,0.0,0.0,0.0,0.0,0.0,0.0,0.0,0.0,0.0,0.0,0.0,0.0,0.0,0.0,0.0,0.0,0.0,0.0,0.0,0.0,0.0,0.0,0.0,0.0,0.0,0.0,0.0,0.0,0.0,0.0,0.0,0.0,0.0,0.0,0.0,0.0,0.0,0.0,0.0,0.0,0.0,0.0,0.0,0.0,0.0,0.0,0.0,0.0,0.0,0.0,0.0,0.0,0.0,0.0,0.0,0.0,0.0,0.0,0.0,0.0,-3.8053,0.0,0.0,0.0,0.0,0.0,0.0,0.0,0.0,0.0,0.0,0.0,0.0,0.0,0.0,0.0,0.0,0.0,0.0,0.0,0.0,0.0,0.0,0.0,0.0,0.0,0.0,0.0,0.0,0.0,0.0,0.0,0.0,0.0,0.0,0.0,0.0,0.0,0.0,0.0,0.0,0.0,0.0,0.0,0.0,0.0,0.0,0.0,0.0,0.0,0.0,0.0,0.0,0.0,0.0,0.0,0.0,0.0,0.0,0.0,0.0,0.0,0.0,0.0,0.0,0.0,0.0,0.0,0.0,0.0,0.0,0.0,0.0,0.0,0.0,0.0,0.0,0.0,0.0,0.0,0.0,0.0,0.0,0.0,0.0,0.0,0.0,0.0,0.0,0.0,0.0,0.0,0.0,0.0,0.0,0.0,0.0,0.0,0.0,0.0,0.0,0.0,0.0,0.0,0.0,0.0,0.0,0.0,0.0,0.0,0.0,0.0,0.0,0.0,0.0,0.0,0.0,-4.0167,0.0,0.0,0.0,0.0,0.0,0.0,0.0,0.0,0.0,0.0,0.0,0.0,0.0,0.0,0.0,0.0,0.0,0.0,0.0,0.0,0.0,0.0,0.0,0.0,0.0,0.0,0.0,0.0,0.0,0.0,0.0,0.0,0.0,0.0,0.0,0.0,0.0,0.0,0.0,0.0,0.0,0.0,0.0,0.0,0.0,0.0,0.0,0.0,0.0,0.0,0.0,0.0,0.0,0.0,0.0,0.0,0.0,0.0,0.0,0.0,0.0,0.0,0.0,0.0,0.0,0.0,0.0,0.0,0.0,0.0,0.0,0.0,0.0,0.0,0.0,0.0,0.0,0.0,0.0,0.0,0.0,0.0,0.0,0.0,0.0,0.0,0.0,0.0,0.0,0.0,0.0,0.0,0.0,0.0,0.0,0.0,0.0,0.0,0.0,0.0,0.0,0.0,0.0,0.0,0.0,0.0,0.0,0.0,0.0,-4.0325,-4.1827,-4.3623,-4.4399,-4.4102,-4.1836,-4.2447,-4.509,0.0,0.0,0.0,0.0,0.0,0.0,0.0,0.0,0.0,0.0,0.0,0.0,0.0,0.0,0.0,0.0,0.0,0.0,0.0,0.0,0.0,0.0,0.0,0.0,0.0,0.0,0.0,0.0,0.0,0.0,0.0,0.0,0.0,0.0,0.0,0.0,0.0,0.0,0.0,-4.0671,-4.1448,-4.0944,-3.9373,-4.1182,0.0,-4.3248,0.0,0.0,0.0,0.0,0.0,0.0,0.0,0.0,0.0,0.0,0.0,0.0,0.0,0.0,0.0,0.0,0.0,0.0,0.0,0.0,0.0,0.0,0.0,0.0,0.0,0.0,0.0,0.0,0.0,0.0,0.0,0.0,0.0,0.0,0.0,0.0,0.0,0.0,0.0,0.0,0.0,-4.0486,-4.0997,0.0,0.0,0.0,0.0,0.0,0.0,0.0,0.0,0.0,0.0,0.0,0.0,0.0,0.0,-3.8341,-3.9343,-4.0398,-4.1368,-4.2395,-4.3327,-4.4228,-4.4524,-4.5851,-4.7945,-4.7455,0.0,-4.7015,-4.8253,0.0,0.0,0.0,0.0,0.0,0.0,0.0,0.0,0.0,0.0,0.0,0.0,0.0,0.0,0.0,0.0,0.0,0.0,0.0,0.0,0.0,0.0,0.0,0.0,0.0,0.0,0.0,0.0,0.0,0.0,0.0,0.0,0.0,0.0,0.0,0.0,-4.2073,-4.2505,-4.2187,-4.3474,-4.3723,-4.3121,-4.3254,-4.3029,-4.2605,-4.3509,0.0,0.0,0.0,0.0,0.0,0.0,0.0,0.0,0.0,0.0,0.0,0.0,0.0,0.0,0.0,0.0,0.0,0.0,0.0,0.0,0.0,0.0,0.0,0.0,0.0,0.0,0.0,0.0,0.0,0.0,0.0,0.0,0.0,0.0,0.0,0.0,0.0,0.0,0.0,-4.2928,-4.4115,-4.2957,-4.4003,-4.4563,0.0,0.0,0.0,0.0,0.0,0.0,0.0,0.0,0.0,-4.1243,-4.1336,-4.2103,-4.3618,-4.385,-4.4706,-4.617,-4.7285,-4.8317,-4.9444,-5.0222,-5.1011,-5.1891,-5.2767,-5.2463,-5.1387,-5.0598,-4.9632,-4.852,0.0,0.0,0.0,0.0,0.0,-4.6457,0.0,0.0,0.0,0.0,0.0,0.0,0.0,0.0,0.0,0.0,0.0,0.0,0.0,0.0,0.0,-4.2564,0.0,0.0,0.0,0.0,0.0,0.0,0.0,0.0,0.0,0.0,0.0,-4.1499,-4.3258,-4.4006,-4.3834,-4.5341,-4.5926,-4.579,-4.5322,-4.409,-4.2407,-4.3036,-4.3603,-4.4013,0.0,0.0,0.0,0.0,0.0,0.0,0.0,0.0,0.0,0.0,0.0,0.0,0.0,0.0,0.0,0.0,0.0,0.0,0.0,0.0,0.0,0.0,0.0,0.0,0.0,0.0,0.0,0.0,0.0,0.0,0.0,0.0,0.0,0.0,0.0,0.0,0.0,-4.5742,-4.6854,-4.5176,-4.6091,-4.6463,0.0,0.0,0.0,0.0,0.0,0.0,-4.6036,-4.5515,-4.541,-4.5975,-4.5377,-4.6079,-4.8148,-4.8031,-4.8804,-5.0384,-5.1238,-5.222,-5.3254,-5.4138,-5.4661,-5.4828,-5.6308,-5.6364,-5.5262,-5.3079,-5.1528,-5.0389,-4.8899,-4.7577,-4.6553,-4.7016,-4.7069,-4.6716,0.0,0.0,0.0,0.0,0.0,0.0,0.0,0.0,0.0,0.0,0.0,0.0,0.0,0.0,-4.4197,-4.3316,-4.4898,-4.4777,0.0,0.0,0.0,0.0,0.0,0.0,0.0,0.0,0.0,-4.3731,-4.3846,-4.4442,-4.5488,-4.6411,-4.6411,-4.5659,-4.6425,-4.5515,-4.3316,-4.3365,-4.2947,-4.2382,-4.3976,0.0,0.0,0.0,0.0,0.0,0.0,0.0,0.0,0.0,0.0,0.0,0.0,0.0,0.0,0.0,0.0,0.0,0.0,0.0,0.0,0.0,0.0,0.0,0.0,0.0,0.0,0.0,0.0,0.0,0.0,0.0,0.0,0.0,0.0,0.0,0.0,0.0,0.0,-4.7302,-4.8777,0.0,0.0,0.0,0.0,-4.8415,-4.9295,-5.0108,-5.0808,-5.1561,-5.0779,-4.8116,-4.9412,-4.9801,-4.9125,-5.1389,-5.2471,-5.2197,-5.281,-5.3237,-5.3465,-5.3206,-5.4126,-5.5959,-5.6881,-5.7371,-5.73,-5.5389,-5.3255,-5.1128,-5.1049,-4.9745,-4.7985,-4.8793,-4.8761,-4.7985,0.0,0.0,0.0,0.0,0.0,0.0,0.0,0.0,0.0,0.0,0.0,0.0,0.0,0.0,-4.603,-4.6755,-4.7816,-4.7561,-4.5598,0.0,0.0,0.0,0.0,0.0,0.0,0.0,-4.3476,-4.4743,-4.6385,-4.7468,-4.8048,-4.8933,-4.9163,-4.8856,-4.8605,-4.7752,-4.6291,-4.4161,-4.3427,-4.3652,-4.3157,-4.3814,0.0,0.0,0.0,0.0,0.0,0.0,0.0,0.0,0.0,0.0,0.0,0.0,0.0,0.0,0.0,0.0,0.0,0.0,0.0,0.0,0.0,0.0,0.0,0.0,0.0,0.0,0.0,0.0,0.0,0.0,0.0,0.0,0.0,0.0,0.0,0.0,0.0,-5.0039,-5.2029,0.0,-5.0879,-5.1135,-5.1336,-5.1171,-5.2416,-5.3551,-5.4453,-5.4707,-5.4546,-5.3968,-5.4307,-5.4134,-5.3387,-5.506,-5.5418,-5.4561,-5.4582,-5.4435,-5.4229,-5.4616,-5.4873,-5.5036,-5.7282,-5.8169,-5.7914,-5.7098,-5.5451,-5.337,-5.2025,-5.0381,-4.8766,-4.9136,-4.8677,-4.7729,0.0,0.0,0.0,0.0,0.0,0.0,0.0,0.0,0.0,0.0,0.0,0.0,0.0,0.0,0.0,0.0,-4.9573,-4.8847,-4.658,0.0,0.0,0.0,0.0,0.0,0.0,-4.39,-4.4699,-4.591,-4.7701,-4.8694,-4.8971,-4.9856,-5.024,-5.024,-4.9952,-4.9375,-4.8412,-4.6265,-4.5186,-4.4833,-4.3682,-4.4469,-4.6027,0.0,0.0,0.0,0.0,0.0,0.0,0.0,0.0,0.0,0.0,0.0,0.0,0.0,0.0,0.0,0.0,0.0,0.0,0.0,0.0,0.0,0.0,0.0,0.0,0.0,0.0,0.0,0.0,0.0,0.0,0.0,0.0,0.0,0.0,0.0,-5.3242,-5.3159,-5.4903,-5.5533,-5.3931,-5.4227,-5.4412,-5.4225,-5.5498,-5.667,-5.761,-5.779,-5.8234,-5.8952,-5.8432,-5.811,-5.7946,-5.8575,-5.8107,-5.6527,-5.6449,-5.5754,-5.4525,-5.5063,-5.5238,-5.508,-5.7144,-5.8317,-5.8783,-5.8424,-5.7533,-5.6209,-5.3671,-5.1679,-5.0189,-5.0192,-4.9613,-4.859,0.0,0.0,0.0,0.0,0.0,0.0,0.0,0.0,0.0,0.0,0.0,0.0,0.0,0.0,0.0,0.0,0.0,-4.8263,-4.4911,-4.4407,0.0,0.0,0.0,0.0,-4.48,-4.5109,-4.597,-4.7365,-4.7647,-4.7928,-4.8202,-4.9048,-4.9433,-4.9471,-5.0336,-5.0277,-4.9545,-4.9542,-4.8099,-4.5778,-4.5701,-4.6201,-4.6855,0.0,0.0,0.0,0.0,0.0,0.0,0.0,0.0,0.0,0.0,0.0,0.0,0.0,0.0,0.0,0.0,0.0,0.0,0.0,0.0,0.0,0.0,0.0,0.0,0.0,0.0,0.0,0.0,0.0,0.0,0.0,0.0,0.0,-5.2386,-5.4029,-5.5513,-5.6606,-5.7465,-5.7601,-5.6541,-5.6505,-5.6855,-5.7653,-5.853,-5.9474,-6.0351,-6.1086,-6.1798,-6.2594,-6.1588,-6.1417,-6.2324,-6.1831,-6.038,-5.806,-5.846,-5.7152,-5.4353,-5.4459,-5.511,-5.6177,-5.6385,-5.7814,-5.9883,-5.9371,-5.9398,-5.9397,-5.6095,-5.3806,-5.2342,-5.2166,-5.1687,-5.0739,0.0,0.0,0.0,0.0,0.0,0.0,0.0,0.0,0.0,0.0,0.0,0.0,0.0,0.0,0.0,0.0,0.0,0.0,-4.659,0.0,0.0,0.0,0.0,0.0,-4.5993,-4.6729,-4.757,-4.851,-4.9444,-4.9932,-4.9971,-5.024,-5.0317,-5.0356,-5.0606,-5.0568,-5.0414,-5.101,-5.0837,-5.001,-4.82,-4.764,-4.7738,0.0,0.0,0.0,0.0,0.0,0.0,0.0,0.0,0.0,0.0,0.0,0.0,0.0,0.0,0.0,0.0,0.0,0.0,0.0,0.0,0.0,0.0,0.0,0.0,0.0,0.0,0.0,0.0,0.0,0.0,0.0,0.0,-5.211,-5.3191,-5.5945,-5.8194,-5.9217,-6.1213,-6.1855,-6.0222,-6.1139,-6.1429,-6.0487,-6.1729,-6.2718,-6.3125,-6.273,-6.2577,-6.2805,-6.1871,-6.1765,-6.2662,-6.1822,-6.1242,-6.1006,-5.9046,-5.7148,-5.536,-5.478,-5.4191,-5.3644,-5.5703,-5.7255,-5.8412,-5.8311,-5.8968,-5.9832,-5.7612,-5.5735,-5.4252,-5.374,-5.2964,-5.1969,0.0,0.0,0.0,0.0,0.0,0.0,0.0,0.0,0.0,0.0,0.0,0.0,0.0,0.0,0.0,0.0,0.0,0.0,0.0,0.0,0.0,0.0,0.0,-4.5035,-4.7494,-4.8503,-4.9192,-4.948,-5.064,-5.101,-5.0702,-5.0702,-5.0702,-5.0702,-5.1048,-5.101,-5.0779,-5.1972,-5.2433,-5.2356,-5.126,-5.0625,-5.0163,-4.8951,-4.8163,-4.7681,-4.7353,-4.7104,-4.6912,-4.6513,0.0,0.0,0.0,0.0,0.0,0.0,0.0,0.0,0.0,0.0,0.0,0.0,0.0,0.0,0.0,0.0,0.0,0.0,0.0,0.0,0.0,0.0,0.0,0.0,-5.3359,-5.5207,-5.7025,-5.8821,-6.0692,-6.2758,-6.4398,-6.4899,-6.373,-6.4148,-6.4087,-6.3175,-6.3609,-6.4042,-6.419,-6.3408,-6.3266,-6.3972,-6.2732,-6.25,-6.3398,-6.2449,-6.1588,-6.0745,-5.9276,-5.7559,-5.5771,-5.522,-5.4652,0.0,-5.549,-5.6776,-5.7877,-5.7974,-5.8764,0.0,0.0,0.0,0.0,0.0,-5.3741,-5.3606,0.0,0.0,0.0,0.0,0.0,0.0,0.0,0.0,0.0,0.0,0.0,0.0,0.0,0.0,0.0,0.0,0.0,0.0,0.0,0.0,0.0,-4.4355,-4.5355,-4.6877,-4.8945,-5.0061,-5.0521,-5.0312,-5.1365,-5.1508,-5.0778,-5.0933,-5.0933,-5.0856,-5.1587,-5.1548,-5.1087,-5.2587,-5.3241,-5.3433,-5.428,-5.4049,-5.3049,-5.1548,-5.0856,-5.0587,-4.9702,-4.8586,-4.7432,-4.7212,0.0,0.0,0.0,0.0,0.0,0.0,0.0,0.0,0.0,0.0,0.0,0.0,0.0,0.0,0.0,0.0,0.0,0.0,0.0,0.0,0.0,0.0,0.0,0.0,-5.6467,-5.9557,-6.2527,-6.2499,-6.3275,-6.6379,-6.6861,-6.6844,-6.6633,-6.5933,-6.5416,-6.5338,-6.4704,-6.4345,-6.4502,0.0,0.0,0.0,0.0,-6.3311,-6.4209,-6.3256,-6.1561,-5.9256,-5.9295,-5.8247,-5.6152,-5.5915,-5.5889,-5.6075,-5.583,-5.6617,-5.806,-5.8162,-5.8628,-5.9122,-5.7863,-5.6463,-5.4969,-5.3784,-5.4125,0.0,0.0,0.0,0.0,0.0,0.0,0.0,0.0,0.0,0.0,0.0,0.0,0.0,0.0,0.0,0.0,0.0,0.0,0.0,0.0,0.0,-4.3585,-4.5278,-4.6817,-4.8068,-4.8961,-4.987,-5.0479,-5.0844,-5.1343,-5.1499,-5.1362,-5.2312,-5.2356,-5.1664,-5.1856,-5.2202,-5.2741,-5.3128,-5.3666,-5.4318,-5.5227,-5.459,-5.3164,-5.2856,-5.1895,-5.0587,-4.9702,-5.0048,-5.0625,-4.8641,-4.8736,-4.9507,-4.8155,-4.7251,0.0,0.0,0.0,0.0,0.0,0.0,0.0,0.0,0.0,0.0,0.0,0.0,0.0,0.0,0.0,0.0,0.0,0.0,0.0,-5.6643,-5.9344,-6.241,-6.6403,-6.7183,-6.7441,-6.7615,-6.7657,-6.7422,-6.6817,-6.661,-6.6205,-6.5503,-6.5901,-6.6204,-6.6283,-6.5488,0.0,-6.5496,-6.3819,-6.3311,-6.4209,-6.2629,-6.1866,-6.192,0.0,0.0,-5.8518,-5.7267,-5.6685,-5.6602,-5.7217,-5.8128,-5.9168,-5.8361,-5.8219,-5.8358,-5.744,-5.6649,-5.5845,-5.4724,-5.4474,-5.4615,0.0,0.0,0.0,0.0,0.0,0.0,0.0,0.0,0.0,0.0,0.0,0.0,0.0,0.0,0.0,0.0,0.0,0.0,0.0,-4.291,-4.4225,-4.6364,-4.7624,-4.8647,-4.9403,-5.0621,-5.1152,-5.0988,-5.2026,-5.227,-5.1889,-5.2585,-5.2702,-5.2341,-5.2909,-5.3223,-5.3282,-5.3745,-5.413,-5.4592,-5.4978,-5.488,-5.4513,-5.4454,-5.3664,-5.2472,-5.1625,-5.1318,-5.1087,-4.9874,-4.972,-4.9971,-4.9527,-4.8759,-4.7953,0.0,0.0,0.0,0.0,0.0,0.0,0.0,0.0,0.0,0.0,0.0,0.0,0.0,0.0,-5.0996,0.0,0.0,-5.6582,-5.9611,-6.218,-6.4872,-6.8024,-6.9417,-6.9977,-6.9639,-6.9429,-6.9163,-6.8769,-6.8333,-6.7695,-6.6822,-6.711,-6.7188,-6.6822,-6.5987,-6.5706,-6.6159,-6.4848,-6.4138,-6.4138,-6.3327,-6.2383,-6.1334,-6.0048,-5.9283,-5.8905,-5.7917,-5.7485,-5.7521,-5.7603,-5.8178,-5.9003,-5.8842,-5.8977,-5.9228,-5.8381,-5.735,-5.6161,-5.4796,-5.4374,-5.4429,0.0,0.0,0.0,0.0,0.0,0.0,0.0,0.0,0.0,0.0,0.0,0.0,0.0,0.0,0.0,0.0,0.0,0.0,0.0,-4.3316,-4.4814,-4.72,-4.8223,-4.9132,-4.9948,-5.1272,-5.1773,-5.1307,-5.2726,-5.3059,-5.2378,-5.2878,-5.301,-5.2921,-5.3974,-5.4143,-5.3723,-5.4284,-5.4651,-5.4863,-5.4786,-5.519,-5.5807,-5.5553,-5.507,-5.4357,-5.3318,-5.1972,-5.0645,-5.0317,-4.9798,-4.9413,-4.9987,-4.9716,-4.9001,-4.8187,-4.7384,0.0,0.0,0.0,0.0,0.0,0.0,0.0,0.0,0.0,-4.9743,-5.0731,-5.2124,-5.3571,-5.4962,-5.7182,-5.961,-6.2159,-6.471,-6.7,-6.8762,-7.0409,-7.1338,-7.112,-7.0809,-7.0653,-7.0668,-6.9717,-6.8765,-6.8085,-6.7842,-6.7461,-6.6814,-6.6096,-6.6048,-6.6767,-6.5874,-6.4997,-6.4101,-6.4003,-6.2718,-6.0255,-6.0332,-5.9833,-5.8897,-5.8463,-5.8259,-5.823,-5.79,-5.8076,-5.8672,-5.9564,-6.0022,-6.0089,-5.9309,-5.7933,-5.621,-5.4879,-5.4308,-5.4134,0.0,0.0,0.0,0.0,0.0,0.0,0.0,0.0,0.0,0.0,0.0,0.0,0.0,0.0,0.0,0.0,0.0,0.0,0.0,-4.3777,-4.5445,-4.7226,-4.8818,-4.993,-5.0498,-5.0685,-5.1345,-5.2418,-5.2919,-5.3085,-5.294,-5.4042,-5.4153,-5.3424,-5.3926,-5.4494,-5.5054,-5.4766,-5.5093,-5.575,-5.5827,-5.5847,-5.5808,-5.5037,-5.4631,-5.428,-5.2664,-5.1471,-5.0471,-4.8894,-4.8682,-4.9077,-4.9335,-4.9105,-4.877,-4.8777,-4.8071,-4.715,-4.6353,-4.6149,-4.6388,-4.7234,-4.8286,-4.9682,0.0,0.0,-5.4087,-5.5742,-5.6697,-5.7481,-5.841,-6.0015,-6.1885,-6.3897,-6.6384,-6.8448,-6.9628,-7.0776,-7.1209,-7.044,-7.0381,-7.047,-7.0606,-6.9163,-6.8188,-6.8102,-6.7305,-6.6828,-6.6711,-6.6615,-6.6595,-6.6722,-6.5855,-6.4997,-6.4101,-6.34,-6.2424,-6.124,-6.1188,-6.0642,-5.9677,-5.9565,-5.8877,-5.7848,-5.8891,-5.9065,-5.8765,-6.0654,-6.0623,-5.9303,-5.8816,-5.7533,-5.5874,-5.5882,-5.4775,-5.3199,0.0,0.0,0.0,0.0,0.0,0.0,0.0,0.0,0.0,0.0,0.0,0.0,0.0,0.0,0.0,0.0,0.0,0.0,-4.2699,-4.3745,-4.5273,-4.7447,-4.8646,-4.9594,-5.0288,-5.081,-5.156,-5.2605,-5.3199,-5.3459,-5.3459,-5.418,-5.4434,-5.4276,-5.5107,-5.5844,-5.6434,-5.6734,-5.6811,-5.6714,-5.6714,-5.6386,-5.5788,-5.4361,-5.2897,-5.1549,-5.1299,-5.0645,0.0,0.0,-4.7857,-4.8353,-4.7972,-4.7941,-4.7995,-4.7594,-4.7134,-4.6506,-4.5672,-4.619,-4.7264,0.0,-5.0468,-5.2485,-5.4599,-5.5758,-5.674,-5.7927,-5.919,-6.0293,-6.1172,-6.3121,-6.49,0.0,-6.7872,-6.9473,-7.0215,-7.0693,-7.0628,-6.9624,-6.9546,-6.9656,-6.9839,-6.8756,-6.7979,-6.7903,-6.7489,-6.7022,-6.6383,-6.6464,-6.653,-6.6516,-6.629,-6.5504,-6.4101,-6.3789,-6.2841,-6.133,-6.119,-6.0644,-5.9723,-5.9568,-5.8881,-5.7811,-5.8552,-5.8507,-5.8023,-5.9327,-5.9565,-5.903,-5.9005,-5.7756,-5.5883,-5.4943,-5.378,-5.2498,0.0,0.0,0.0,0.0,0.0,0.0,0.0,0.0,0.0,0.0,0.0,0.0,0.0,0.0,0.0,0.0,0.0,0.0,0.0,-4.3185,-4.4549,-4.6487,-4.7853,0.0,-5.0079,-5.0933,-5.1899,-5.294,-5.3497,-5.3794,-5.3794,-5.4161,-5.4543,-5.5056,-5.6099,-5.6736,-5.7156,-5.8085,-5.7873,-5.6979,-5.7137,-5.6462,-5.5109,-5.3335,-5.1177,-4.923,-4.9795,-4.9026,0.0,0.0,-4.6839,-4.7162,-4.6839,-4.7073,-4.739,-4.6877,-4.6478,-4.6089,-4.571,-4.6809,0.0,-5.0278,-5.265,-5.5102,-5.7118,-5.8279,-5.9224,-6.0293,-6.1478,-6.251,-6.3159,-6.4764,-6.6203,-6.6769,-6.8342,-6.9613,-7.0003,-6.985,-6.9342,-6.8302,-6.7781,-6.765,-6.8008,-6.7891,-6.7775,-6.7728,-6.7432,-6.6898,-6.6129,-6.6221,-6.6329,-6.6322,-6.645,-6.5713,-6.3962,-6.3998,-6.3055,-6.1244,-6.1307,-6.0848,-5.9978,-5.9204,-5.8333,-5.7412,-5.7466,-5.7226,-5.6886,-5.7727,-5.8308,-5.8633,-5.8792,-5.7955,-5.6487,-5.4561,-5.3026,-5.1653,0.0,0.0,0.0,0.0,0.0,0.0,0.0,0.0,0.0,0.0,0.0,0.0,0.0,0.0,0.0,0.0,0.0,0.0,0.0,-4.1822,-4.3113,-4.3701,-4.6268,-4.8481,-5.0079,-5.0933,-5.2197,-5.3757,-5.3794,-5.3794,-5.3794,-5.4161,-5.4777,-5.5588,-5.6343,-5.6721,-5.6867,-5.8085,-5.7598,-5.6128,-5.6979,-5.5818,-5.3382,-5.1641,-4.9869,-4.8314,-4.8309,0.0,0.0,0.0,-4.5457,-4.5322,-4.6211,-4.682,0.0,-4.7352,-4.6809,-4.6354,-4.7112,-4.8553,-5.0274,-5.2079,-5.4428,-5.7035,-5.9693,-6.0905,-6.1975,-6.3694,-6.4076,-6.4114,-6.4153,-6.4229,-6.4614,-6.5667,-6.7231,-6.841,-6.8622,-6.7967,-6.7174,-6.6303,-6.4754,-6.4077,0.0,-6.638,-6.7425,-6.7658,-6.6728,-6.6108,-6.6108,-6.6108,-6.6108,-6.6128,-6.6128,-6.5277,-6.3536,-6.3712,-6.2859,-6.1002,-6.1776,-6.1618,-6.0589,-5.8443,-5.7101,-5.6409,-5.5569,-5.5245,-5.5439,-5.6434,-5.7253,-5.7807,-5.7767,-5.7903,-5.785,-5.553,-5.2988,-5.0445,0.0,0.0,0.0,0.0,0.0,0.0,0.0,0.0,0.0,0.0,0.0,0.0,0.0,0.0,0.0,0.0,0.0,0.0,0.0,-4.1876,-4.3138,-4.3855,-4.5811,-4.7404,-4.8481,-4.9336,-5.0265,-5.1342,-5.1936,-5.2639,-5.3369,-5.3503,-5.4534,-5.6355,-5.7136,-5.7659,-5.7968,-5.8993,-5.8412,-5.6786,-5.5973,-5.4774,-5.3111,-4.9707,-4.7332,-4.5849,0.0,0.0,0.0,-4.4183,-4.4208,-4.4304,-4.3445,-4.3961,-4.4991,-4.5571,-4.6354,-4.7302,-4.8666,-5.073,-5.3176,-5.6064,-5.8292,-6.0332,-6.2433,-6.3121,-6.3312,-6.335,-6.1975,-6.0637,-6.0102,-6.0446,-6.136,-6.3012,-6.5153,-6.7099,-6.8408,-6.8372,-6.7188,-6.4547,-6.4694,0.0,0.0,0.0,0.0,-6.6411,-6.6052,-6.5793,-6.5651,-6.573,-6.5827,-6.5827,-6.6024,-6.5528,-6.4367,-6.3844,-6.3264,-6.2646,-6.2193,-6.1473,-6.043,-5.8628,-5.738,-5.6639,-5.5285,-5.4503,-5.4164,-5.5023,-5.5547,-5.5771,-5.6368,-5.6729,-5.6762,-5.564,-5.4269,-5.2548,0.0,0.0,0.0,0.0,0.0,0.0,0.0,0.0,0.0,0.0,0.0,0.0,0.0,0.0,0.0,0.0,0.0,0.0,0.0,0.0,-4.2225,-4.2619,-4.4377,-4.5705,-4.6488,-4.7372,-4.8077,-4.8567,-4.9786,-5.0616,-5.1118,-5.1831,-5.3312,-5.5378,-5.5983,-5.6596,-5.7214,-5.7794,-5.6828,-5.4929,-5.3846,-5.2337,-5.0403,-4.7386,-4.5336,0.0,0.0,0.0,0.0,-4.4384,-4.4316,-4.4365,-4.3216,-4.3433,-4.4308,-4.5103,-4.6544,-4.8211,-4.9917,-5.2693,-5.5817,-5.8652,-6.0684,-6.2345,-6.3885,-6.3694,-6.293,-6.1784,-5.9759,-5.7886,-5.674,-5.6702,-5.7583,-5.9739,-6.1722,-6.3924,-6.6637,-6.6506,-6.5562,-6.4008,-6.3953,-6.315,0.0,0.0,0.0,-6.4824,-6.4747,-6.4756,-6.4947,-6.5067,-6.5214,-6.5341,-6.5536,-6.5307,-6.4571,-6.3775,-6.3085,-6.2485,-6.2026,-6.1325,-6.037,-5.8736,-5.7597,-5.6767,-5.4958,-5.3763,-5.3151,-5.3708,-5.4112,-5.4412,-5.497,-5.576,-5.6472,-5.558,-5.5435,-5.5161,0.0,0.0,0.0,0.0,0.0,0.0,0.0,0.0,0.0,0.0,0.0,0.0,0.0,0.0,0.0,0.0,0.0,0.0,0.0,0.0,0.0,-4.0222,-4.209,-4.3492,-4.4252,-4.5245,-4.5741,-4.5677,-4.7439,-4.7922,-4.7226,-4.9137,-5.096,-5.2641,-5.3011,-5.3619,-5.4442,-5.4442,-5.2956,-5.0712,-5.0635,-4.8677,-4.5698,-4.4808,0.0,0.0,0.0,0.0,0.0,-4.5441,-4.5603,-4.5419,-4.5321,-4.5148,-4.5217,-4.6051,-4.7529,-4.9273,-5.1054,-5.4553,-5.8136,-5.9946,-6.1637,-6.307,-6.3885,-6.2701,-6.0943,-5.9262,-5.7466,-5.5708,0.0,0.0,-5.3429,-5.6064,-5.7286,-5.9425,-6.3664,-6.2901,-6.259,0.0,0.0,0.0,0.0,0.0,0.0,-6.3227,0.0,-6.3385,-6.4134,-6.4172,-6.4368,-6.4739,-6.4775,-6.4571,-6.4199,-6.3564,-6.2348,-6.0681,-6.1349,-6.1211,-6.0342,-5.874,-5.7599,-5.6664,-5.4539,-5.3179,-5.2454,-5.2472,-5.3035,-5.3781,-5.3658,-5.4987,-5.6765,-5.5307,-5.6294,-5.7776,0.0,0.0,0.0,0.0,0.0,0.0,0.0,0.0,0.0,0.0,0.0,0.0,0.0,0.0,0.0,0.0,0.0,0.0,0.0,0.0,0.0,0.0,0.0,0.0,0.0,0.0,0.0,0.0,0.0,-4.5028,-4.5687,-4.632,-4.7388,-4.8686,-4.9431,-4.955,-4.9214,-4.9214,-4.8826,-4.8089,0.0,-4.6162,-4.5708,0.0,0.0,0.0,0.0,0.0,0.0,-4.534,-4.5841,-4.5998,-4.5232,-4.5821,-4.6923,-4.7795,-4.9705,-5.2161,-5.5064,-5.8106,-6.0883,-6.2535,-6.3421,-6.355,-6.251,-6.0485,-5.8383,-5.6702,-5.3301,-5.0316,0.0,0.0,0.0,-5.4686,-5.7072,0.0,-6.4875,-6.5676,0.0,-6.433,0.0,-6.4278,-6.2247,-6.2805,0.0,0.0,-6.4364,-6.4772,-6.4998,-6.4998,-6.4775,-6.4292,-6.4292,-6.4218,-6.4143,-6.363,-6.2429,-6.048,-6.1889,-6.1667,-5.9937,-5.9204,-5.7978,-5.6292,-5.4822,-5.3749,-5.3017,-5.298,-5.317,-5.3323,-5.3011,-5.3644,-5.4818,-5.4848,-5.5284,-5.5864,0.0,0.0,0.0,0.0,0.0,0.0,0.0,0.0,0.0,0.0,0.0,0.0,0.0,0.0,0.0,0.0,0.0,0.0,0.0,0.0,0.0,0.0,0.0,0.0,0.0,0.0,0.0,0.0,0.0,0.0,0.0,-4.4068,-4.5104,-4.6123,-4.6612,-4.6779,-4.6701,-4.6313,0.0,0.0,0.0,0.0,0.0,0.0,0.0,0.0,0.0,0.0,0.0,0.0,0.0,-4.6428,-4.6543,-4.7745,-4.9326,-5.0578,-5.2786,-5.537,-5.8116,-6.0795,-6.3019,-6.3759,-6.3492,-6.2459,-6.0443,-5.7749,-5.5017,-5.2627,-4.9862,-4.7483,-4.6312,-4.6262,0.0,0.0,0.0,0.0,-6.3766,-6.5011,-6.5308,0.0,-6.5895,0.0,-6.3759,-6.397,-6.45,0.0,-6.4927,-6.4956,-6.5245,-6.5282,-6.5195,-6.4887,-6.4892,-6.4491,-6.3608,-6.403,-6.2969,-6.0443,-6.2113,-6.2091,-6.0559,-5.9815,-5.8644,-5.7175,0.0,-5.4546,-5.3696,-5.3181,-5.2917,-5.2777,-5.1962,-5.2099,-5.275,-5.2738,-5.3361,-5.4188,0.0,0.0,0.0,0.0,0.0,0.0,0.0,0.0,0.0,0.0,0.0,0.0,0.0,0.0,0.0,0.0,0.0,0.0,0.0,0.0,0.0,0.0,0.0,0.0,0.0,0.0,0.0,0.0,0.0,0.0,0.0,0.0,0.0,0.0,0.0,0.0,0.0,0.0,0.0,0.0,0.0,0.0,0.0,0.0,0.0,0.0,0.0,0.0,0.0,0.0,-4.674,-4.7167,-4.8732,-5.0442,-5.2167,-5.3926,-5.6121,-5.838,-6.0443,-6.2823,-6.4558,-6.3978,-6.2585,-6.0678,-5.8015,-5.4825,-5.156,-4.8483,-4.7057,-4.5894,-4.444,-4.4195,-4.5589,-4.9771,0.0,-5.4533,-6.1801,-6.2888,-6.3915,-6.6749,-6.6234,-6.5669,-6.5647,-6.5327,-6.553,-6.6479,-6.5144,-6.4579,-6.5307,-6.5311,-6.5359,-6.557,-6.5644,-6.4809,-6.3031,-6.4266,-6.3484,-6.0716,-6.2103,-6.2286,-6.1382,-6.0333,-5.9301,-5.8215,0.0,0.0,-5.4099,-5.3095,-5.2566,-5.2159,-5.0952,-5.071,-5.0947,-5.0307,-5.1216,-5.2605,0.0,0.0,0.0,0.0,0.0,0.0,0.0,0.0,0.0,0.0,-3.7757,-3.7828,0.0,0.0,0.0,0.0,0.0,0.0,0.0,0.0,0.0,0.0,0.0,0.0,0.0,0.0,0.0,0.0,0.0,0.0,0.0,0.0,0.0,0.0,0.0,0.0,0.0,0.0,0.0,0.0,0.0,0.0,0.0,0.0,0.0,0.0,0.0,-4.3311,-4.3361,-4.6321,-4.8251,-4.9657,-5.1459,-5.3172,-5.496,-5.732,-5.8615,-5.9791,-6.2144,-6.3953,-6.4847,-6.3297,-6.1803,-5.9666,-5.5763,-5.2311,0.0,-4.7432,-4.5058,-4.3274,-4.3036,-4.3315,-4.5026,-4.9511,-5.2043,-5.5546,-6.1539,-6.2991,-6.4179,0.0,-6.5404,-6.5296,-6.7083,-6.5663,0.0,0.0,0.0,0.0,-6.5379,-6.5466,-6.4936,-6.3693,-6.4304,-6.4287,-6.3468,-6.3113,-6.2715,-6.2366,-6.2188,-6.1463,-6.0388,-6.0295,-5.8963,-5.658,0.0,0.0,-5.2946,-5.2794,-5.2315,-5.1629,-5.0758,-5.0498,-5.0569,-5.0426,-5.0426,-5.0569,0.0,0.0,0.0,0.0,0.0,0.0,0.0,-3.6649,-3.6684,-3.747,-3.7577,-3.7649,-3.7792,-3.7792,-3.8034,0.0,0.0,0.0,0.0,0.0,0.0,0.0,0.0,0.0,0.0,0.0,0.0,0.0,0.0,0.0,0.0,0.0,0.0,0.0,0.0,0.0,0.0,0.0,0.0,0.0,0.0,0.0,0.0,0.0,0.0,0.0,0.0,0.0,-4.3003,-4.5931,-4.8047,-4.9797,-5.1954,-5.4139,-5.63,-5.8359,-5.9899,-6.1458,-6.369,-6.4907,-6.5277,-6.3771,-6.0951,-5.7501,-5.379,0.0,0.0,-4.5271,-4.3919,-4.3008,-4.3074,-4.364,-4.5075,-4.8124,-5.0638,-5.3927,-5.8762,-6.0868,-6.2597,-6.4493,-6.4511,-6.4758,0.0,0.0,0.0,0.0,0.0,0.0,-6.6172,-6.6181,-6.5847,-6.5062,-6.5419,-6.5161,-6.4007,-6.4043,-6.3493,-6.2384,-6.2141,-6.1478,-6.0485,-6.0176,-5.9286,-5.7968,0.0,0.0,-5.4421,-5.3007,-5.2177,-5.167,-5.0611,-4.9995,-4.9662,-4.9662,-4.9326,-4.9,0.0,0.0,0.0,0.0,0.0,0.0,0.0,-3.6506,-3.6684,-3.747,-3.7577,-3.7577,-3.7577,-3.7577,-3.7897,0.0,0.0,0.0,0.0,0.0,0.0,0.0,0.0,0.0,0.0,0.0,0.0,0.0,0.0,0.0,0.0,0.0,0.0,0.0,0.0,0.0,0.0,0.0,0.0,0.0,0.0,0.0,0.0,0.0,0.0,0.0,0.0,0.0,-4.2534,-4.5026,-4.6991,-4.8743,-5.0901,-5.3594,-5.6393,-5.8292,-6.0253,-6.2295,-6.4578,-6.5493,-6.5471,-6.4375,-6.0224,-5.5587,-5.2511,-4.8473,-4.4965,-4.3506,-4.3177,-4.3138,-4.3138,-4.3721,-4.4673,0.0,-4.8526,-5.1499,-5.5684,-5.8217,-6.0444,0.0,-6.3233,0.0,-6.4403,0.0,0.0,0.0,0.0,0.0,0.0,-6.6872,-6.6802,-6.6624,-6.6766,-6.6266,-6.4948,-6.5374,-6.4657,-6.2755,-6.2515,-6.1849,-6.0889,-6.0164,-5.9618,-5.9228,0.0,0.0,0.0,-5.3575,-5.2285,-5.1612,-5.0633,-4.9769,-4.9079,-4.9079,-4.8699,-4.8132,0.0,0.0,0.0,0.0,0.0,0.0,0.0,-3.6863,-3.6684,-3.747,-3.7577,-3.7577,-3.7577,-3.7577,-3.7756,0.0,0.0,0.0,0.0,0.0,0.0,0.0,0.0,0.0,0.0,0.0,0.0,0.0,0.0,0.0,0.0,0.0,0.0,0.0,0.0,0.0,0.0,0.0,0.0,0.0,0.0,0.0,0.0,0.0,0.0,0.0,0.0,0.0,0.0,0.0,0.0,-4.6908,-4.7907,-5.1023,-5.4893,-5.7734,0.0,0.0,-6.3959,-6.5053,-6.5132,-6.4273,-5.9869,-5.4979,-5.2401,0.0,-4.4419,-4.3397,-4.2631,-4.2156,-4.2262,-4.2404,-4.2988,-4.4636,-4.6361,-4.915,-5.3959,-5.6088,-5.8359,-6.1589,0.0,0.0,0.0,0.0,0.0,0.0,0.0,0.0,0.0,-6.7004,-6.6658,-6.6,-6.6623,-6.6855,-6.6673,-6.6005,-6.5541,-6.5276,-6.3917,-6.2525,-6.1084,-6.0423,-5.939,-5.8074,0.0,0.0,0.0,-5.4419,-5.3046,-5.1139,-5.1045,-5.0562,-4.9907,-4.9907,-4.9248,-4.8379,0.0,0.0,0.0,0.0,0.0,0.0,-3.672,-3.6613,-3.6684,-3.747,-3.7577,-3.7577,-3.7577,-3.7577,-3.7756,-3.8165,0.0,0.0,0.0,0.0,0.0,0.0,0.0,0.0,0.0,0.0,0.0,0.0,0.0,0.0,0.0,0.0,0.0,0.0,0.0,0.0,0.0,0.0,0.0,0.0,0.0,0.0,0.0,0.0,0.0,0.0,0.0,0.0,0.0,0.0,0.0,0.0,-4.4676,-4.6403,0.0,0.0,-5.6544,-5.8974,-6.115,-6.3158,-6.4273,-6.2915,-5.8327,-5.3665,-5.1678,0.0,-4.3724,-4.3287,-4.2995,-4.2812,-4.2812,-4.2882,-4.3206,-4.3864,-4.4929,0.0,-4.9888,-5.1668,-5.4001,-5.754,-5.8213,0.0,0.0,0.0,0.0,0.0,0.0,0.0,0.0,-6.6807,-6.6186,-6.5911,-6.6152,-6.6305,-6.6259,-6.6433,-6.6025,-6.5057,-6.4006,-6.2474,-6.0564,-6.0324,-5.9599,-5.8564,0.0,0.0,0.0,-5.4388,-5.3031,-5.1481,-5.1327,-5.111,-5.0837,-5.0837,-5.0125,-4.9086,0.0,0.0,0.0,0.0,0.0,-3.6291,-3.672,-3.6756,-3.6934,-3.7505,-3.7577,-3.7684,-3.7933,-3.7719,-3.7793,-3.8325,-3.8142,0.0,0.0,0.0,0.0,0.0,0.0,0.0,0.0,0.0,-3.9391,-3.9845,-3.9954,0.0,0.0,0.0,0.0,0.0,0.0,0.0,0.0,0.0,0.0,0.0,0.0,0.0,0.0,0.0,0.0,0.0,0.0,0.0,0.0,0.0,0.0,0.0,-4.2398,-4.3007,-4.4429,-4.9386,-5.304,-5.6017,-5.8307,-6.0591,-6.2108,-6.141,-5.7005,-5.2491,0.0,0.0,-4.3394,-4.3286,-4.3286,-4.3251,-4.3032,-4.3142,-4.3214,-4.3069,-4.3689,-4.4929,-4.6985,-4.8768,-5.1004,0.0,0.0,0.0,0.0,0.0,0.0,0.0,0.0,0.0,0.0,0.0,-6.6531,-6.6531,-6.6531,-6.6428,-6.6221,-6.6738,-6.6221,-6.4703,-6.3945,-6.253,-6.053,-6.0289,-5.9771,0.0,0.0,0.0,0.0,-5.4567,-5.3146,-5.1664,-5.156,-5.1386,-5.1183,-5.1183,-5.0522,-4.9626,0.0,0.0,0.0,0.0,0.0,0.0,-3.747,-3.7577,-3.7577,-3.7577,-3.7577,-3.7898,-3.8719,-3.8076,-3.7898,-3.8719,-3.8041,0.0,0.0,0.0,0.0,0.0,0.0,0.0,0.0,0.0,-3.9029,-3.9488,-3.986,-3.9851,-3.9599,0.0,0.0,0.0,0.0,0.0,0.0,0.0,0.0,0.0,0.0,0.0,0.0,0.0,0.0,0.0,0.0,0.0,0.0,0.0,0.0,0.0,0.0,-4.1642,-4.2224,-4.6268,-4.9304,-5.2159,-5.5852,-5.7446,-5.8437,-6.0015,-5.6161,-5.1793,0.0,0.0,-4.3394,-4.3394,-4.3286,-4.3069,-4.258,-4.2616,-4.2577,-4.2062,-4.2537,-4.3754,-4.6146,-4.8291,-5.0268,0.0,0.0,0.0,0.0,0.0,0.0,0.0,0.0,0.0,0.0,0.0,-6.8083,-6.8083,-6.8083,-6.7738,-6.698,-6.698,-6.6221,-6.4703,-6.3945,-6.2772,-6.1254,-6.053,0.0,0.0,0.0,0.0,0.0,-5.5228,-5.3707,-5.1731,-5.1698,-5.1263,-5.0593,-5.0593,-5.0224,-4.9813,0.0,0.0,0.0,0.0,0.0,0.0,0.0,-3.7577,-3.7577,-3.7577,-3.7577,-3.7684,-3.7933,-3.7755,-3.7684,-3.7969,-3.7719,0.0,0.0,0.0,0.0,0.0,0.0,0.0,0.0,0.0,-3.8927,-3.9163,-3.9476,-3.95,-3.9277,-3.9126,-3.9006,0.0,0.0,0.0,0.0,0.0,0.0,0.0,0.0,0.0,0.0,0.0,0.0,0.0,0.0,0.0,0.0,0.0,0.0,0.0,0.0,0.0,0.0,-4.3277,-4.6028,-4.8936,-5.1246,-5.3261,-5.473,-5.4656,-5.205,-4.926,-4.8453,-4.5773,-4.3428,-4.3429,-4.3393,-4.325,-4.2732,-4.2655,-4.2757,-4.2894,-4.3288,-4.4137,0.0,0.0,0.0,0.0,0.0,0.0,0.0,0.0,0.0,0.0,0.0,0.0,0.0,0.0,0.0,-6.7359,-6.7325,-6.698,-6.6255,-6.6738,-6.6221,-6.4703,-6.3945,-6.2772,-6.1289,-6.053,0.0,0.0,0.0,0.0,0.0,-5.5214,-5.4227,-5.2875,-5.3214,-5.3195,-5.2964,-5.2467,-5.19,-5.1158,0.0,0.0,0.0,0.0,0.0,0.0,0.0,-3.7577,-3.7577,-3.7577,-3.7577,-3.7719,-3.8005,-3.7755,-3.7719,-3.8005,-3.7792,0.0,0.0,0.0,0.0,0.0,0.0,0.0,-3.8234,-3.8479,-3.8682,-3.8818,-3.9154,-3.9171,-3.8869,-3.8664,-3.8626,-3.8724,-3.9006,0.0,0.0,0.0,0.0,0.0,0.0,0.0,-3.6596,0.0,0.0,0.0,0.0,0.0,0.0,0.0,0.0,0.0,0.0,0.0,0.0,0.0,-4.2919,-4.493,-4.7498,-4.9517,-5.0949,-5.1059,-4.9444,0.0,-4.6838,-4.5002,-4.3463,-4.3251,-4.3178,-4.3032,-4.2501,-4.2338,-4.2358,-4.2739,-4.3095,0.0,0.0,0.0,0.0,0.0,0.0,0.0,0.0,0.0,0.0,0.0,0.0,0.0,0.0,0.0,0.0,-6.7911,-6.729,-6.6635,-6.5876,-6.6048,-6.5497,-6.4255,-6.322,-6.222,-6.1254,0.0,0.0,0.0,0.0,0.0,0.0,-5.4908,-5.4268,-5.3304,-5.3661,-5.3815,-5.3749,-5.3324,-5.2866,-5.2408,0.0,0.0,0.0,0.0,0.0,0.0,0.0,-3.7577,-3.7577,-3.7577,-3.7577,-3.7862,-3.8647,-3.8041,-3.7898,-3.8647,0.0,0.0,0.0,0.0,0.0,0.0,0.0,0.0,-3.8151,-3.83,-3.836,-3.8435,-3.878,-3.8789,-3.846,-3.7948,-3.8201,-3.9021,-3.8552,-3.8916,0.0,0.0,0.0,0.0,0.0,0.0,0.0,0.0,0.0,0.0,0.0,0.0,0.0,0.0,0.0,0.0,0.0,0.0,0.0,0.0,0.0,0.0,0.0,-4.6104,-4.7168,-4.8746,-4.7937,-4.6617,-4.5847,-4.4526,0.0,-4.292,-4.2806,-4.2577,-4.2103,-4.1717,-4.1622,-4.2044,-4.221,0.0,0.0,-4.7633,0.0,0.0,0.0,0.0,0.0,0.0,0.0,0.0,0.0,0.0,0.0,0.0,0.0,0.0,-6.7807,-6.6669,-6.5979,-6.5186,-6.4393,-6.3669,-6.2048,-6.1289,-6.1254,0.0,0.0,0.0,0.0,0.0,0.0,-5.4384,-5.4082,-5.3466,-5.3466,-5.3466,-5.3466,-5.3434,-5.3434,-5.3466,0.0,0.0,0.0,0.0,0.0,0.0,0.0,0.0,0.0,0.0,-3.7577,-3.7648,-3.7862,-3.7684,-3.7684,0.0,0.0,0.0,0.0,0.0,0.0,0.0,0.0,0.0,-3.7971,-3.8267,-3.8332,-3.8039,-3.8433,-3.8433,-3.8039,-3.7923,-3.779,-3.7631,-3.8366,-3.9151,0.0,0.0,0.0,0.0,0.0,0.0,0.0,0.0,0.0,0.0,-3.617,-3.6328,0.0,0.0,0.0,0.0,0.0,0.0,0.0,0.0,-3.9717,-3.9792,-4.0805,0.0,-4.3681,-4.4672,-4.4419,-4.3831,0.0,-4.3059,-4.2498,-4.2378,-4.2652,-4.2729,-4.2221,-4.2297,-4.2517,-4.2923,0.0,0.0,0.0,0.0,0.0,0.0,0.0,0.0,0.0,0.0,0.0,0.0,0.0,0.0,0.0,0.0,0.0,0.0,-6.8083,-6.6911,-6.6738,-6.5979,-6.5221,-6.4427,-6.2324,-6.1289,0.0,0.0,0.0,0.0,0.0,0.0,0.0,-5.51,-5.5086,-5.4924,-5.4924,-5.4924,-5.4859,-5.4341,-5.447,-5.4762,0.0,0.0,0.0,0.0,0.0,0.0,0.0,0.0,0.0,0.0,0.0,0.0,0.0,0.0,0.0,0.0,0.0,0.0,0.0,0.0,0.0,0.0,0.0,-3.7899,-3.7899,-3.85,-3.8715,-3.8438,-3.8715,-3.8828,-3.8904,-3.8546,-3.8257,-3.8096,-3.8542,-3.91,0.0,0.0,0.0,0.0,0.0,0.0,0.0,0.0,0.0,0.0,-3.6266,-3.6557,0.0,-3.7499,-3.8012,-3.838,0.0,0.0,0.0,0.0,-3.8615,-3.8723,-3.8906,-4.0307,-4.1889,-4.2729,-4.303,-4.3105,-4.292,-4.2729,-4.2458,-4.2257,-4.2418,-4.2577,-4.2537,-4.2498,-4.2789,0.0,-4.4252,0.0,0.0,0.0,0.0,0.0,0.0,0.0,0.0,0.0,0.0,0.0,0.0,0.0,0.0,0.0,0.0,0.0,0.0,-6.7187,-6.6497,-6.5393,-6.4634,-6.4186,-6.2527,-6.1525,-6.1112,0.0,0.0,0.0,0.0,0.0,-5.502,-5.544,-5.573,-5.5895,-5.5895,-5.5701,-5.5377,-5.4988,-5.5086,-5.5312,0.0,0.0,0.0,0.0,0.0,0.0,0.0,0.0,0.0,0.0,0.0,0.0,0.0,0.0,0.0,0.0,0.0,0.0,0.0,0.0,0.0,0.0,-3.8006,-3.7934,-3.7934,-3.8687,-3.8977,-3.8906,-3.9121,-3.9445,-3.9906,-3.9333,-3.9193,-3.9337,-3.9004,-3.9061,0.0,0.0,0.0,0.0,-3.8585,0.0,0.0,0.0,0.0,0.0,0.0,0.0,0.0,-3.7185,-3.7693,-3.8207,-3.8036,0.0,0.0,0.0,0.0,0.0,-3.8244,-3.9697,-4.1207,-4.1935,-4.2701,-4.325,-4.2882,-4.2729,-4.2537,-4.2092,-4.2133,-4.2338,-4.2729,-4.2685,0.0,0.0,0.0,0.0,0.0,0.0,0.0,0.0,0.0,0.0,0.0,0.0,0.0,0.0,0.0,0.0,0.0,0.0,0.0,0.0,0.0,0.0,-6.5972,-6.4531,-6.3807,-6.387,-6.2758,-6.1684,-6.0642,-5.8397,0.0,0.0,0.0,0.0,-5.4729,-5.5517,-5.6059,-5.6395,-5.6478,-5.6122,-5.5571,-5.5571,-5.5571,-5.5604,0.0,0.0,0.0,0.0,0.0,0.0,0.0,0.0,0.0,0.0,0.0,0.0,0.0,0.0,0.0,0.0,0.0,0.0,0.0,0.0,0.0,-3.9153,-3.8502,-3.8106,-3.8002,-3.8215,-3.8253,-3.8079,-3.8833,-3.9193,-3.9082,-3.9656,-4.0019,-4.0131,-3.9812,-3.9632,-3.9626,-3.9076,-3.873,-3.8523,-3.8523,0.0,0.0,0.0,0.0,0.0,0.0,0.0,0.0,-3.7602,-3.7929,-3.7969,-3.7934,0.0,0.0,0.0,0.0,0.0,-3.8905,-4.0202,-4.1319,-4.1466,-4.2192,-4.2693,-4.2221,-4.1888,-4.1622,-4.1163,-4.1666,-4.2216,0.0,-4.3425,-4.4602,0.0,0.0,0.0,0.0,0.0,0.0,0.0,0.0,0.0,0.0,0.0,0.0,0.0,0.0,0.0,0.0,0.0,0.0,0.0,0.0,0.0,0.0,-6.5138,-6.48,-6.5302,-6.3165,-6.1279,-5.9564,-5.8084,-5.6497,0.0,0.0,0.0,-5.4306,-5.5346,-5.5805,-5.5975,-5.6311,-5.6413,-5.6316,-5.6316,-5.6316,-5.6413,0.0,0.0,0.0,0.0,0.0,0.0,0.0,0.0,0.0,0.0,0.0,0.0,0.0,0.0,0.0,0.0,0.0,0.0,0.0,0.0,-3.8977,-3.9914,-3.9226,-3.8645,-3.814,-3.9167,-3.9571,-3.9265,-4.0492,-4.1071,-4.0919,-4.0845,-4.0885,-4.1071,-4.0415,-3.9969,-3.963,-3.9264,-3.8834,-3.8336,0.0,0.0,0.0,0.0,0.0,0.0,0.0,0.0,0.0,0.0,-3.7934,-3.7899,-3.7792,0.0,0.0,0.0,0.0,0.0,-3.8467,-3.9613,-4.0763,-4.1665,-4.2804,-4.3502,-4.257,-4.2098,-4.1924,-4.1966,-4.2454,0.0,0.0,0.0,-4.7607,0.0,0.0,0.0,0.0,0.0,0.0,0.0,0.0,0.0,0.0,0.0,0.0,0.0,0.0,0.0,0.0,0.0,0.0,0.0,0.0,0.0,0.0,-6.459,-6.4118,-6.4795,-6.3615,-6.2225,-6.0579,-5.9352,-5.8148,0.0,0.0,-5.6381,-5.6324,-5.6777,-5.6873,-5.6723,-5.6467,-5.6294,-5.6262,-5.5879,-5.5665,-5.5757,0.0,0.0,0.0,0.0,0.0,0.0,0.0,0.0,0.0,0.0,0.0,0.0,0.0,0.0,0.0,0.0,0.0,0.0,0.0,0.0,-3.9517,-4.0131,-3.9911,-3.9472,-3.8753,-3.9987,-4.0646,-4.0709,-4.2159,-4.2996,-4.332,-4.2262,-4.1902,-4.2087,-4.0963,-4.0093,-3.947,-3.9369,-3.9009,-3.843,0.0,0.0,0.0,0.0,0.0,0.0,0.0,0.0,0.0,0.0,0.0,0.0,0.0,0.0,0.0,-3.7468,-3.7394,-3.7571,-3.8415,-3.9384,-4.0545,-4.206,-4.3353,-4.4162,-4.3891,-4.3468,-4.3386,-4.4241,-4.4432,0.0,0.0,0.0,0.0,0.0,0.0,0.0,0.0,0.0,0.0,0.0,0.0,0.0,0.0,0.0,0.0,0.0,0.0,0.0,0.0,0.0,0.0,0.0,0.0,0.0,0.0,-6.4312,-6.3563,-6.405,-6.3723,-6.2751,-6.1153,-6.0411,-5.9414,-5.8444,-5.7948,-5.7832,-5.8017,-5.8141,-5.8055,-5.7858,-5.7117,-5.6588,-5.6226,-5.5462,-5.4971,-5.5112,0.0,0.0,0.0,0.0,0.0,0.0,0.0,0.0,0.0,0.0,0.0,0.0,0.0,0.0,0.0,0.0,0.0,0.0,0.0,0.0,-3.9264,-3.9478,-4.0367,-4.0729,-4.0347,-3.9797,-4.0227,-4.1613,-4.2485,-4.3759,-4.5434,-4.3725,-4.2959,-4.3032,-4.1395,-4.0093,-3.9122,-3.9158,-3.9121,-3.9156,-3.9156,0.0,0.0,0.0,0.0,0.0,0.0,0.0,0.0,0.0,0.0,0.0,0.0,0.0,-3.7757,-3.7828,-3.7649,-3.7825,-3.9806,-4.0666,-4.13,-4.2551,-4.303,-4.3864,-4.644,-4.6513,-4.6542,-4.8458,-4.8258,-4.7543,0.0,0.0,0.0,0.0,0.0,0.0,0.0,0.0,0.0,0.0,0.0,0.0,0.0,0.0,0.0,0.0,0.0,0.0,0.0,0.0,0.0,0.0,0.0,0.0,0.0,-6.4932,-6.4267,-6.3781,-6.3101,-6.1852,-6.0089,-6.0089,-5.9136,-5.7618,-5.8247,-5.815,-5.7651,-5.8703,-5.9081,-5.9081,-5.8604,-5.7909,-5.6979,-5.562,-5.5114,-5.532,0.0,0.0,0.0,0.0,0.0,0.0,0.0,0.0,0.0,0.0,0.0,0.0,0.0,0.0,0.0,0.0,0.0,0.0,0.0,-3.9228,-3.9445,-4.0057,-4.0051,-4.0161,-4.0492,-4.1405,-4.2055,-4.2449,-4.401,-4.5112,-4.5716,-4.4827,-4.4096,-4.3586,-4.2447,-4.1332,-4.0297,-4.03,-3.9906,-3.937,-3.9841,-4.0203,0.0,0.0,0.0,0.0,0.0,0.0,0.0,0.0,-3.8042,-3.7577,0.0,-3.7613,-3.7649,-3.7757,-3.8115,-3.8617,-3.9481,-4.0925,-4.2294,-4.2772,-4.309,-4.3949,-4.6436,-4.7075,-4.7625,-4.9159,-4.9781,-5.0083,-5.0261,0.0,0.0,0.0,0.0,0.0,0.0,0.0,0.0,0.0,0.0,0.0,0.0,0.0,0.0,0.0,0.0,0.0,0.0,0.0,0.0,0.0,0.0,0.0,0.0,-6.4275,-6.3531,-6.2944,-6.3069,-6.2606,-6.1514,-6.1514,-6.1107,-6.0598,-6.0817,-6.0517,-5.9885,-6.0175,-6.0043,-5.9547,-5.8719,-5.7624,-5.6415,-5.5686,-5.5736,-5.6335,0.0,0.0,0.0,0.0,0.0,0.0,0.0,0.0,0.0,0.0,0.0,0.0,0.0,0.0,0.0,0.0,0.0,0.0,-3.8867,-3.9155,-3.9408,-3.9767,-3.9767,-3.9876,-4.0166,-4.243,-4.3526,-4.325,-4.5558,-4.6612,-4.6501,-4.5602,-4.4936,-4.4401,-4.3237,-4.2205,-4.1401,-4.1368,-4.0912,-4.0166,-4.0419,-4.0673,0.0,0.0,0.0,0.0,0.0,0.0,0.0,0.0,0.0,0.0,0.0,0.0,0.0,-3.7757,-3.8223,-3.8833,-3.9192,-4.0673,-4.2266,-4.2774,-4.3601,-4.4947,-4.768,-4.8146,-4.8671,-5.1008,-5.1492,-5.1841,-5.2734,0.0,0.0,0.0,0.0,0.0,0.0,0.0,0.0,0.0,0.0,0.0,0.0,0.0,0.0,0.0,0.0,0.0,0.0,0.0,0.0,0.0,0.0,0.0,0.0,-6.4005,-6.326,-6.2753,-6.3024,-6.2888,-6.2381,-6.2381,-6.2245,-6.2042,-6.2042,-6.1772,-6.1255,-6.114,-6.0769,-6.0159,-5.9425,-5.83,-5.7115,-5.6738,-5.6879,-5.7496,0.0,0.0,0.0,0.0,0.0,0.0,0.0,0.0,0.0,0.0,0.0,0.0,0.0,0.0,0.0,0.0,0.0,0.0,-3.7899,-3.8831,-3.9007,-3.821,-3.9659,-4.013,-3.9405,-4.2486,-4.4118,-4.4137,-4.6902,-4.82,-4.8036,-4.6114,-4.5356,-4.5576,-4.361,-4.2532,-4.2316,-4.2246,-4.2008,-4.1651,-4.0854,-4.0999,-4.1614,0.0,0.0,0.0,0.0,0.0,0.0,0.0,-3.8329,0.0,0.0,0.0,0.0,0.0,-3.7969,-3.8253,-3.9188,-3.9948,-4.0926,-4.252,-4.4484,-4.6991,-5.0717,-5.0069,-4.9924,-5.4578,-5.3847,-5.2727,-5.3738,-5.3301,0.0,0.0,0.0,0.0,0.0,0.0,0.0,0.0,0.0,0.0,0.0,0.0,0.0,0.0,0.0,0.0,0.0,0.0,0.0,0.0,0.0,0.0,0.0,-6.4241,-6.3531,-6.3497,-6.2753,-6.2381,-6.2381,-6.2381,-6.2009,-6.1332,-6.1332,-6.1332,-6.1332,-6.1332,-6.1199,-6.0986,-6.0986,-6.0482,-5.9522,-5.8896,-5.8604,-5.8657,0.0,0.0,0.0,0.0,0.0,0.0,0.0,0.0,0.0,0.0,0.0,0.0,0.0,0.0,0.0,0.0,0.0,0.0,-3.8072,-3.8323,-3.8323,-3.821,-3.8645,-3.9043,-3.9369,-4.1941,-4.4114,-4.5797,-4.7159,-4.7207,-4.5984,-4.5912,-4.5507,-4.4711,-4.3559,-4.2746,-4.2246,-4.2213,-4.201,-4.1759,-4.2049,-4.2339,-4.252,0.0,0.0,0.0,0.0,0.0,0.0,0.0,0.0,0.0,0.0,0.0,0.0,-3.8726,-3.959,-4.0492,-4.0167,-4.1144,0.0,-4.3028,0.0,0.0,0.0,-5.078,-5.201,-5.5,-5.5223,-5.4869,-5.4566,0.0,0.0,0.0,0.0,0.0,0.0,0.0,0.0,0.0,0.0,0.0,0.0,0.0,0.0,0.0,0.0,0.0,0.0,0.0,0.0,0.0,0.0,0.0,0.0,0.0,-6.3768,-6.2719,-6.2482,-6.2381,-6.2381,-6.2381,-6.2279,-6.2076,-6.2076,-6.2076,-6.2076,-6.2076,-6.2021,-6.1951,-6.1268,-6.082,-6.045,-5.9621,-5.9728,-6.0289,0.0,0.0,0.0,0.0,0.0,0.0,0.0,0.0,0.0,0.0,-3.9723,-3.9403,0.0,0.0,0.0,0.0,0.0,0.0,0.0,-3.8576,-3.861,-3.8645,-3.8681,-3.9333,-4.0745,-4.2486,-4.408,-4.5544,-4.662,-4.644,-4.5179,-4.6076,-4.6036,-4.5177,-4.4677,-4.4146,-4.3679,-4.3279,-4.2776,-4.2194,-4.2375,-4.2411,-4.2411,0.0,0.0,0.0,0.0,0.0,0.0,0.0,0.0,0.0,0.0,0.0,0.0,-3.8869,-3.9662,-4.0673,-4.0492,-4.165,0.0,-4.4689,-4.6661,-4.8955,-5.1535,0.0,0.0,0.0,-5.6167,-5.5992,-5.6399,0.0,0.0,0.0,0.0,0.0,0.0,0.0,0.0,0.0,0.0,0.0,0.0,0.0,0.0,0.0,0.0,0.0,0.0,0.0,0.0,0.0,0.0,0.0,0.0,0.0,0.0,-6.2821,-6.2516,-6.2381,-6.2381,-6.2381,-6.2042,-6.1467,-6.1467,-6.1467,-6.1535,-6.2144,-6.2381,-6.2381,-6.179,-6.1513,-6.1513,-6.0903,-6.1069,-6.1513,0.0,0.0,0.0,0.0,0.0,0.0,0.0,0.0,0.0,0.0,-3.9584,-3.9192,0.0,0.0,0.0,0.0,0.0,0.0,0.0,0.0,-3.9405,-3.9478,-3.9695,-4.0854,-4.3101,-4.3761,-4.4087,-4.4104,-4.5542,-4.5798,-4.5066,-4.6215,-4.6553,-4.6227,-4.6194,-4.5989,-4.5663,-4.4784,-4.3871,-4.2846,-4.2122,-4.1832,-4.1832,-4.1832,0.0,0.0,0.0,0.0,0.0,0.0,0.0,0.0,0.0,0.0,-4.0311,-3.8758,-3.8938,-3.9804,-4.06,0.0,0.0,-4.7108,-5.0083,0.0,-5.5451,-5.6021,-5.6359,-5.7543,0.0,-5.6562,0.0,0.0,0.0,0.0,0.0,0.0,0.0,0.0,0.0,0.0,0.0,0.0,0.0,0.0,0.0,0.0,0.0,0.0,0.0,0.0,0.0,0.0,0.0,0.0,0.0,0.0,0.0,0.0,0.0,-6.2381,-6.2381,-6.2381,-6.1637,-6.0317,-6.0317,-6.0317,-6.0419,-6.1806,-6.2381,-6.2381,-6.2381,-6.2381,-6.2381,-6.2381,-6.2381,-6.2381,0.0,0.0,0.0,0.0,0.0,0.0,0.0,0.0,0.0,0.0,0.0,0.0,0.0,0.0,0.0,0.0,0.0,0.0,0.0,0.0,-3.9659,-4.0238,-4.2085,-4.3645,-4.4771,-4.4336,-4.4082,-4.412,-4.4711,-4.4559,-4.3793,-4.4934,-4.5294,-4.4986,-4.4967,-4.4785,-4.4449,-4.3613,-4.3102,-4.2882,-4.2701,-4.2629,-4.2629,-4.2629,-4.2627,0.0,0.0,0.0,0.0,0.0,0.0,0.0,-4.0456,-4.0782,-4.1361,-4.0999,-4.1035,-4.1542,-4.2955,-4.357,0.0,0.0,-5.2775,-5.6085,-5.7857,-5.8321,-5.8051,-5.7205,-5.7239,0.0,0.0,0.0,0.0,0.0,0.0,0.0,0.0,0.0,0.0,0.0,0.0,0.0,0.0,0.0,0.0,0.0,0.0,0.0,0.0,0.0,0.0,0.0,0.0,0.0,0.0,0.0,-6.3057,0.0,-6.2482,-6.2381,-6.2381,-6.2381,-6.2212,-6.1907,-6.1907,-6.1907,-6.1907,-6.2245,-6.2381,-6.2381,-6.2381,-6.2381,-6.2381,-6.2381,-6.2381,-6.2381,0.0,0.0,0.0,0.0,0.0,0.0,0.0,0.0,0.0,0.0,0.0,0.0,0.0,0.0,0.0,0.0,0.0,0.0,0.0,0.0,-4.0456,-4.1615,-4.3969,-4.5055,-4.4696,-4.4696,-4.4297,-4.3539,-4.3685,-4.3576,-4.3212,-4.4744,-4.5249,-4.4952,-4.5358,-4.5178,-4.4621,-4.3824,-4.3244,-4.2882,-4.2882,-4.2882,-4.2882,-4.2882,-4.288,-4.2842,-4.2842,0.0,0.0,0.0,0.0,0.0,0.0,0.0,-4.2122,-4.1361,-4.1397,-4.1975,0.0,0.0,0.0,-5.1016,0.0,-5.8084,-5.9248,-5.9539,-5.9438,0.0,0.0,0.0,0.0,0.0,0.0,0.0,0.0,0.0,0.0,0.0,0.0,0.0,0.0,0.0,0.0,0.0,0.0,0.0,0.0,0.0,0.0,0.0,0.0,0.0,0.0,0.0,-6.3531,-6.3159,-6.2618,-6.1873,-6.1873,-6.1873,-6.1873,-6.1467,-6.1298,-6.1264,-6.0926,-6.0757,-6.0825,-6.1569,-6.1873,-6.1907,-6.2245,-6.2381,-6.2381,-6.2381,-6.2381,-6.2381,0.0,0.0,0.0,0.0,0.0,0.0,0.0,0.0,0.0,0.0,0.0,0.0,0.0,0.0,0.0,0.0,0.0,0.0,0.0,0.0,0.0,-4.3425,-4.5417,-4.5961,-4.4729,-4.5091,-4.4584,-4.3099,-4.2955,-4.3027,-4.3317,-4.4967,-4.5662,-4.5513,-4.6069,-4.5929,-4.5236,-4.4295,-4.3498,-4.2882,-4.2882,-4.2882,-4.2882,-4.2882,-4.2882,-4.2882,-4.2882,-4.2882,-4.2882,-4.2882,0.0,0.0,0.0,0.0,-4.2629,-4.1289,-4.1289,-4.1937,0.0,0.0,-4.7766,0.0,0.0,0.0,0.0,0.0,0.0,0.0,0.0,0.0,0.0,0.0,0.0,0.0,0.0,0.0,0.0,0.0,0.0,0.0,0.0,0.0,0.0,0.0,0.0,0.0,0.0,0.0,0.0,0.0,0.0,0.0,0.0,0.0,-6.3125,-6.2516,-6.1839,-6.1095,-6.1231,-6.1298,-6.1298,-6.0622,-6.0385,-6.0452,-5.9844,-5.9539,-5.9505,-6.0791,-6.1298,-6.1366,-6.1806,-6.2076,-6.2178,-6.2042,-6.2076,-6.2212,0.0,0.0,0.0,0.0,0.0,0.0,0.0,0.0,0.0,0.0,-4.2354,-4.2289,0.0,0.0,0.0,0.0,0.0,0.0,-4.0564,0.0,0.0,-4.5924,-4.6323,-4.6721,-4.7228,-4.5961,-4.4838,-4.3932,-4.3244,-4.3607,-4.4983,-4.5276,-4.5703,-4.6302,-4.5739,-4.5381,-4.52,-4.3679,-4.2991,-4.2882,-4.2882,-4.2882,-4.2882,-4.2882,-4.2882,-4.2882,-4.2882,-4.2882,-4.2882,-4.2882,-4.2882,0.0,0.0,0.0,-4.2846,-4.2629,-4.2158,-4.1937,0.0,0.0,0.0,0.0,0.0,0.0,0.0,0.0,0.0,0.0,0.0,0.0,0.0,0.0,0.0,0.0,0.0,0.0,0.0,0.0,0.0,0.0,0.0,0.0,0.0,0.0,0.0,0.0,0.0,0.0,0.0,0.0,0.0,0.0,0.0,0.0,-6.1603,-6.1501,-6.1061,-6.0283,-6.096,-6.1298,-6.1298,-6.1197,-6.1501,-6.2076,-6.1975,-6.1569,-6.1028,-6.1231,-6.1298,-6.1231,-6.0655,-6.0825,-6.1366,-6.0655,-6.0858,-6.1467,0.0,0.0,0.0,0.0,0.0,0.0,0.0,0.0,0.0,0.0,0.0,-4.2623,0.0,0.0,0.0,-4.1035,-4.0637,-4.0274,-3.9912,-4.1759,-4.3353,-4.444,-4.5345,-4.578,-4.5707,-4.4983,-4.4222,-4.3425,-4.3063,-4.4186,-4.6649,-4.6644,-4.7036,-4.7795,-4.7006,-4.6649,-4.6504,-4.444,-4.357,-4.3534,-4.3063,-4.2882,-4.2882,-4.2882,-4.2882,-4.2882,-4.2882,-4.2882,-4.2882,-4.2882,-4.2882,-4.2882,-4.2882,0.0,0.0,0.0,-4.2629,0.0,-4.4414,0.0,0.0,0.0,0.0,0.0,0.0,0.0,0.0,0.0,0.0,0.0,0.0,0.0,0.0,0.0,0.0,0.0,0.0,0.0,0.0,0.0,0.0,0.0,0.0,0.0,0.0,0.0,0.0,0.0,0.0,-6.2719,-6.255,-6.1806,-6.211,0.0,-6.0655,-6.0622,-6.0452,-6.0114,-6.0452,-6.0858,-6.1332,-6.1738,-6.1873,-6.1772,-6.1298,-6.0689,-6.0047,-6.0452,-6.0385,-6.0013,-6.008,-6.0317,-6.0588,-6.0216,-6.0317,-6.0622,0.0,0.0,0.0,0.0,0.0,0.0,0.0,0.0,0.0,0.0,0.0,0.0,0.0,0.0,0.0,0.0,-4.0202,-3.9912,-3.9695,-4.1506,-4.2701,-4.2882,-4.444,-4.491,-4.4114,-4.4295,-4.3896,-4.2882,-4.3099,-4.4838,-4.8025,-4.8206,-4.9184,-5.0633,-4.9039,-4.8315,-4.8134,-4.5526,-4.4621,-4.4874,-4.3244,-4.2701,-4.2882,-4.2882,-4.2882,-4.2955,-4.3353,-4.3353,-4.3244,-4.3425,-4.3498,-4.3462,-4.3244,-4.3208,0.0,0.0,0.0,0.0,0.0,0.0,0.0,0.0,0.0,0.0,0.0,0.0,0.0,0.0,0.0,0.0,0.0,0.0,0.0,0.0,0.0,0.0,0.0,0.0,0.0,0.0,0.0,0.0,0.0,0.0,0.0,0.0,0.0,0.0,0.0,-6.211,-6.1873,-6.1332,-6.1095,-6.0622,-5.9844,-5.9641,-5.9539,-5.9539,-5.9911,-6.0419,-6.1028,-6.1975,-6.211,-6.1535,-6.096,-6.0148,-5.9336,-5.9877,-5.9674,-5.9066,-5.9404,-5.9674,-5.981,-5.9607,-5.9674,-5.981,0.0,0.0,0.0,0.0,0.0,0.0,0.0,0.0,0.0,0.0,0.0,0.0,-4.2846,-4.2846,-4.2194,-4.0637,-4.118,-4.1289,-4.0492,-4.1289,-4.2122,-4.2846,-4.444,0.0,-4.4114,-4.4838,-4.4476,-4.2882,-4.3643,-4.5671,-4.8858,-4.9619,-5.1973,-5.545,-5.1647,-4.9981,-4.9764,-4.6576,-4.6106,-4.7192,-4.3317,-4.223,-4.2882,-4.2882,-4.2882,-4.3099,-4.4621,-4.4693,-4.415,-4.491,-4.5164,-4.5055,-4.4258,-4.4041,-4.3782,0.0,0.0,0.0,0.0,0.0,0.0,0.0,0.0,0.0,0.0,0.0,0.0,0.0,0.0,0.0,0.0,0.0,0.0,0.0,0.0,0.0,0.0,0.0,0.0,0.0,0.0,0.0,0.0,0.0,0.0,0.0,0.0,0.0,-6.1366,-6.1366,-6.1332,-6.1298,-6.0554,-5.981,-5.9066,-5.8355,-5.8017,-5.8017,-5.9438,-6.0114,-6.0216,-6.1704,-6.2381,-6.2347,-6.2279,-6.1434,-6.0047,-6.008,-5.9674,-5.893,-5.8254,-5.8457,-5.8998,-5.8254,-5.8457,-5.9066,0.0,0.0,0.0,0.0,0.0,0.0,0.0,0.0,0.0,0.0,0.0,0.0,0.0,-4.2122,-4.1687,-4.06,-4.0347,-4.0093,-3.9804,-4.0528,-4.1289,-4.2085,-4.3679,-4.4367,-4.4114,-4.4367,-4.4261,-4.3648,-4.3427,-4.4983,-4.817,-4.8967,-5.0923,-5.3675,-5.1719,-5.143,-5.2118,-4.788,-4.6721,-4.7446,-4.444,-4.3425,-4.3607,-4.3099,-4.2882,-4.3027,-4.415,-4.4693,-4.4983,-4.5816,-4.6069,-4.6033,-4.5743,-4.5273,-4.4722,-4.3913,-4.2847,-4.2288,0.0,0.0,0.0,0.0,0.0,0.0,0.0,0.0,0.0,0.0,0.0,0.0,0.0,0.0,0.0,0.0,0.0,0.0,0.0,0.0,0.0,0.0,0.0,0.0,0.0,0.0,0.0,0.0,0.0,0.0,-6.052,-6.052,-6.0317,-5.9844,-5.9539,-5.9032,-5.8287,-5.8017,-5.8118,-5.8626,-5.9607,-6.0385,-6.0892,-6.1907,-6.2381,-6.2381,-6.2381,-6.1806,-6.0858,-6.0858,-6.0148,-5.8998,-5.8727,-5.849,-5.8254,-5.7983,-5.8051,-5.8287,0.0,0.0,0.0,0.0,0.0,0.0,0.0,0.0,-4.2592,-4.1832,0.0,0.0,0.0,0.0,-4.1796,-4.0999,-4.0202,-3.9767,-3.9767,-4.0492,-4.1289,-4.2085,-4.3643,-4.4512,-4.4512,-4.4765,-4.4624,-4.4084,-4.3826,-4.4947,-4.7301,-4.8134,-4.9945,-5.2408,-5.0814,-5.1574,-5.3856,-5.009,-4.8677,-4.8605,-4.5091,-4.4186,-4.4802,-4.4005,-4.4041,-4.4657,-4.5707,-4.6106,-4.625,-4.7047,-4.6975,-4.654,-4.683,-4.5936,-4.47,-4.4182,-4.343,-4.3019,-4.4027,0.0,0.0,0.0,0.0,0.0,0.0,0.0,0.0,0.0,0.0,0.0,0.0,0.0,0.0,0.0,0.0,0.0,0.0,0.0,0.0,0.0,0.0,0.0,0.0,0.0,0.0,0.0,0.0,0.0,-5.9742,-5.9742,-5.9404,-5.866,-5.8626,-5.8389,-5.7881,-5.7881,-5.8152,-5.866,-5.9641,-6.0385,-6.0926,-6.1941,-6.2381,-6.2381,-6.2381,-6.1975,-6.1298,-6.1298,-6.0385,-5.9032,-5.9032,-5.8558,-5.7881,-5.7881,-5.8051,-5.8254,0.0,0.0,0.0,0.0,0.0,0.0,0.0,0.0,-4.2629,-4.1868,0.0,0.0,0.0,0.0,0.0,-4.1868,-4.1071,-4.06,-4.06,-4.1289,-4.2085,-4.2882,-4.444,-4.5309,-4.5345,-4.6069,-4.5707,-4.4114,-4.4838,-4.5599,-4.6395,-4.7228,-4.9293,-5.2226,-4.9184,-5.0379,-5.4617,-5.3023,-5.19,-5.0778,-4.5236,-4.444,-4.6468,-4.5671,-4.6359,-4.7916,-4.951,-4.9112,-4.7953,-4.8786,-4.8025,-4.683,-4.7512,-4.5936,-4.3793,-4.3296,-4.3147,-4.3097,0.0,0.0,0.0,0.0,0.0,0.0,0.0,0.0,0.0,0.0,0.0,0.0,0.0,0.0,0.0,0.0,0.0,0.0,0.0,0.0,0.0,0.0,0.0,0.0,0.0,0.0,0.0,0.0,0.0,0.0,-5.8998,-5.8998,-5.8626,-5.7881,-5.7848,-5.7848,-5.7848,-5.7848,-5.7881,-5.7949,-5.9404,-6.0114,-6.0182,-6.1704,-6.2381,-6.2381,-6.2381,-6.1975,-6.1298,-6.1332,-6.0419,-5.9032,-5.9032,-5.8558,-5.7881,-5.7881,-5.8355,-5.9032,0.0,0.0,0.0,0.0,0.0,-4.2591,-4.1795,-4.2375,-4.281,0.0,0.0,0.0,-4.2955,-4.2882,-4.3027,-4.3389,-4.2701,-4.223,-4.223,-4.1904,-4.2339,-4.3715,-4.4729,-4.5562,-4.6178,-4.5816,-4.5164,-4.4111,-4.3134,-4.3099,-4.3896,-4.4729,-4.6504,-4.9075,-4.9908,-5.0416,-5.0452,-4.8858,-4.9039,-5.0198,-4.7482,-4.712,0.0,0.0,0.0,0.0,0.0,-5.0198,-5.0524,-5.19,-5.2082,-5.1384,-4.9431,-4.7579,-4.6035,-4.6084,-4.5725,-4.5466,-4.6481,0.0,0.0,0.0,0.0,0.0,0.0,0.0,0.0,0.0,0.0,0.0,0.0,0.0,0.0,0.0,0.0,0.0,0.0,0.0,0.0,0.0,0.0,0.0,0.0,0.0,0.0,0.0,0.0,-5.8186,-5.8186,-5.8186,-5.7881,-5.7137,-5.7103,-5.7103,-5.7103,-5.7103,-5.7645,-5.8727,-5.9641,-6.0419,-6.0994,-6.1941,-6.2381,-6.2381,-6.2381,-6.1975,-6.1332,-6.1873,-6.1197,-5.981,-5.981,-5.9032,-5.7881,-5.7881,-5.8355,-5.9032,0.0,0.0,0.0,0.0,0.0,-4.386,-4.3715,-4.3824,-4.3896,0.0,0.0,0.0,-4.3932,-4.4512,-4.4802,-4.4621,-4.415,-4.3751,-4.3425,-4.2665,-4.2774,-4.4041,-4.4874,-4.5671,-4.6468,-4.6033,-4.5417,-4.4581,-4.3353,-4.2955,-4.3389,-4.386,-4.52,-4.7265,-4.8315,-4.8641,-4.8315,-4.7047,0.0,0.0,-4.8249,0.0,0.0,-4.9495,-4.993,0.0,0.0,0.0,-5.3856,-5.4206,-5.3871,-5.2779,-4.9215,-4.8035,-4.7922,-4.756,-4.7432,-4.759,-4.8307,-4.862,-4.8962,-4.9493,0.0,0.0,0.0,0.0,0.0,0.0,0.0,0.0,0.0,0.0,0.0,0.0,0.0,0.0,0.0,0.0,0.0,0.0,0.0,0.0,0.0,0.0,0.0,0.0,-5.7881,-5.7881,-5.7881,-5.7881,-5.7679,-5.7273,-5.6968,-5.6799,-5.6799,-5.6799,-5.7408,-5.8558,-5.9607,-6.0351,-6.0825,-6.1603,-6.1738,-6.1434,-6.1434,-6.1197,-6.0825,-6.1264,-6.0723,-5.9641,-5.9641,-5.893,-5.7915,-5.8254,-5.8829,-5.9505,0.0,0.0,-4.4292,-4.5164,-4.5381,-4.5671,-4.6395,-4.5961,-4.5599,0.0,-4.5707,-4.578,-4.5961,-4.7156,-4.7446,-4.6069,-4.5816,-4.5309,-4.444,-4.3534,-4.3353,-4.4077,-4.4874,-4.5671,-4.6468,-4.6504,-4.6069,-4.5164,-4.444,-4.4041,-4.3969,-4.4041,-4.491,-4.6359,0.0,0.0,-4.7409,0.0,0.0,-4.8749,-4.8405,-4.9683,0.0,0.0,-5.3372,-5.5327,-5.6405,-5.711,-5.7319,-5.6185,-5.4846,-5.2909,-4.8687,-4.8502,-4.9626,-4.8394,-4.8694,-4.934,-4.9018,-4.9301,-5.014,-5.218,-5.1714,0.0,-5.0977,-5.0854,0.0,0.0,0.0,0.0,0.0,0.0,0.0,0.0,0.0,0.0,0.0,0.0,0.0,0.0,0.0,0.0,0.0,0.0,0.0,-5.7611,-5.7712,-5.7814,-5.7881,-5.7881,-5.7848,-5.778,-5.7137,-5.6799,-5.6799,-5.6799,-5.7239,-5.8152,-5.9471,-6.0182,-6.0385,-6.1028,-6.0926,-6.0216,-6.0148,-6.0013,-5.9844,-5.9844,-5.9539,-5.9032,-5.9032,-5.8558,-5.7983,-5.8727,-5.9471,-6.0216,0.0,-4.3647,-4.4129,-4.4967,-4.5735,-4.6323,-4.6468,-4.6939,-4.7482,-4.8134,-4.8206,-4.8713,-4.9981,-4.9836,-4.9764,-5.009,-4.8967,-4.7591,-4.6142,-4.4657,-4.3932,-4.4077,-4.4874,-4.5671,-4.6468,-4.6504,-4.578,-4.4331,-4.4186,-4.3751,-4.3136,-4.3788,-4.4621,-4.5562,-4.6069,-4.6069,0.0,0.0,0.0,-4.826,-5.0046,0.0,-5.3572,-5.4911,-5.5723,-5.6416,-5.8604,-5.9306,-5.9335,-5.9635,-5.9114,-5.7747,0.0,-5.2944,-5.207,-5.115,-5.0574,-5.0498,-5.1466,-5.1824,-5.1834,-5.1654,-5.1834,0.0,-4.9792,-5.076,0.0,0.0,0.0,0.0,0.0,0.0,0.0,0.0,0.0,0.0,0.0,0.0,0.0,0.0,0.0,0.0,0.0,0.0,0.0,-5.6122,-5.6697,-5.7273,-5.7848,-5.7881,-5.7611,-5.7036,-5.6867,-5.6799,-5.6799,-5.6799,-5.778,-5.9674,-5.9945,-6.0757,-6.1941,-6.1501,-6.1231,-6.1028,-6.0385,-5.9438,-5.8321,-5.8321,-5.8592,-5.9032,-5.9032,-5.8558,-5.7983,-5.8727,-5.9471,-6.0216,-4.3913,-4.4653,-4.5281,-4.6158,-4.7072,-4.7844,-4.8242,-4.8641,-4.9039,-4.9438,-4.9836,-5.0234,-5.0633,-5.1067,-5.0959,-5.0162,-4.9365,-4.8242,-4.6613,-4.4983,-4.4258,-4.4693,-4.5091,-4.5852,-4.7083,-4.6721,-4.6287,-4.5888,-4.5091,-4.4693,-4.4693,-4.5091,-4.5526,-4.5924,-4.6757,-4.6649,0.0,0.0,-4.8974,-4.9125,-5.0853,0.0,-5.3644,-5.5789,-5.7288,-5.8555,-6.0701,-6.1652,-6.1679,-6.0449,-5.9977,0.0,-5.5988,-5.508,-5.4937,-5.3758,-5.3103,-5.2666,-5.2542,-5.248,-5.248,-5.248,-5.248,0.0,0.0,-5.1031,0.0,0.0,0.0,0.0,0.0,0.0,0.0,0.0,0.0,0.0,0.0,0.0,0.0,0.0,0.0,0.0,0.0,0.0,-5.531,-5.5683,-5.6393,-5.6968,-5.734,-5.7679,-5.7712,-5.734,-5.663,-5.6258,-5.6258,-5.6258,-5.7171,-5.8998,-5.9742,-6.0723,-6.1839,-6.1061,-6.052,-6.0114,-5.9336,-5.8355,-5.734,-5.734,-5.7577,-5.7915,-5.7915,-5.7915,-5.8017,-5.9133,-5.9776,-6.0283,-4.4599,-4.5486,-4.6338,-4.7132,-4.8302,-4.9293,-4.98,-5.0234,-5.056,-5.056,-5.1104,-5.1321,-5.085,-5.1792,-5.1973,-5.0633,-4.9546,-4.8605,-4.7953,-4.5635,-4.4548,-4.5055,-4.5236,-4.5743,-4.6757,-4.6432,-4.6613,-4.7265,-4.6069,-4.578,-4.6287,-4.6613,-4.6649,-4.654,-4.7192,-4.7301,-4.7047,0.0,0.0,-5.025,0.0,-5.2485,-5.3529,-5.641,-5.8647,-6.053,-6.2668,-6.3965,-6.4194,-6.1281,-6.0633,-6.0498,-5.6929,-5.6795,0.0,0.0,0.0,-5.4798,-5.3349,0.0,0.0,0.0,0.0,-5.2878,0.0,0.0,0.0,0.0,0.0,0.0,0.0,0.0,0.0,0.0,0.0,0.0,0.0,0.0,0.0,0.0,0.0,0.0,0.0,0.0,0.0,-5.5446,-5.6055,-5.6494,-5.6799,-5.734,-5.7746,-5.7881,-5.6596,-5.5919,-5.5919,-5.5919,-5.6596,-5.7915,-5.9235,-6.0317,-6.1028,-6.0114,-5.9336,-5.8761,-5.7848,-5.707,-5.6393,-5.6528,-5.6596,-5.6596,-5.6731,-5.7239,-5.8084,-5.9573,-6.0114,-6.0317,-4.4342,-4.5054,-4.5544,-4.6302,-4.8374,-4.9727,-4.9148,-5.085,-5.2226,-5.2226,-5.2299,-5.2589,-5.3204,-5.2806,-5.3494,-5.6029,-5.1756,-5.0053,-5.2697,-4.8025,-4.4874,-4.4258,-4.491,-4.4729,-4.3462,-4.4729,-4.549,-4.5562,-4.611,-4.6037,-4.5454,-4.6902,-4.7192,-4.6504,-4.6613,0.0,0.0,0.0,-4.9452,0.0,-5.2842,-5.379,0.0,-5.8417,-6.0162,-6.0848,-6.4522,-6.6354,-6.6811,0.0,-6.4203,-6.3821,0.0,-5.9989,-5.9211,-5.7615,0.0,0.0,0.0,0.0,0.0,0.0,-5.5196,0.0,0.0,0.0,0.0,0.0,0.0,0.0,0.0,0.0,0.0,0.0,0.0,0.0,0.0,0.0,0.0,0.0,0.0,0.0,0.0,0.0,0.0,0.0,-5.4803,-5.5412,-5.6731,-5.6867,-5.7205,-5.7881,-5.7103,-5.6697,-5.6697,-5.6697,-5.7103,-5.7915,-5.8727,-5.9539,-6.0182,-5.8795,-5.8084,-5.7949,-5.6562,-5.5547,-5.4905,-5.5581,-5.5852,-5.5919,-5.6562,-5.7239,-5.8084,-5.9573,-6.0114,-6.0317,-4.3668,-4.4258,-4.4633,-4.5472,-4.6928,-4.8206,-4.8822,-5.1756,-5.3566,-5.2625,-5.3313,-5.4182,-5.4943,-5.4363,-5.4617,-5.6355,-5.3566,-5.1864,0.0,-4.922,-4.7663,-4.8242,-4.7699,-4.7518,-4.7772,-4.7047,-4.6685,-4.6685,-4.6065,-4.5631,-4.5341,-4.6472,-4.6789,-4.6513,-4.6499,0.0,-4.9016,0.0,-4.9834,0.0,0.0,0.0,0.0,-5.8454,-6.0896,-6.2879,-6.5469,-6.6589,-6.6663,0.0,-6.4652,0.0,0.0,0.0,0.0,-5.9247,0.0,0.0,0.0,0.0,0.0,0.0,0.0,0.0,-5.487,0.0,-5.4218,0.0,0.0,0.0,0.0,0.0,0.0,0.0,0.0,0.0,0.0,0.0,0.0,0.0,0.0,0.0,0.0,0.0,0.0,0.0,0.0,-5.4839,-5.5379,-5.6235,-5.685,-5.7158,-5.644,-5.5894,-5.5513,-5.5513,-5.6089,-5.7273,-5.8017,-5.8964,-6.0047,-5.8558,-5.7881,-5.7814,-5.6799,-5.5919,-5.531,-5.6055,-5.6359,-5.6427,-5.7137,-5.7611,-5.8084,-5.9573,-6.0114,-6.0317,-4.2315,-4.3149,-4.3844,-4.4682,-4.5956,-4.7446,-4.9293,-5.2045,-5.3566,-5.2625,-5.3711,-5.5088,-5.65,-5.6174,-5.6717,-5.8782,-5.6536,-5.4689,0.0,0.0,-5.0126,-5.0633,-4.9727,-4.9365,-4.9655,-4.8387,-4.7482,-4.7047,-4.5852,-4.5417,-4.5626,-4.6223,-4.6613,-4.6823,0.0,-4.8042,-4.9428,0.0,0.0,-5.2448,-5.4143,-5.5468,-5.6685,-5.8977,-6.163,-6.4273,-6.5668,-6.6182,-6.5962,-6.4567,-6.4442,0.0,-6.313,0.0,0.0,0.0,0.0,0.0,-5.7231,0.0,0.0,0.0,0.0,0.0,0.0,0.0,0.0,0.0,0.0,0.0,0.0,0.0,-5.4581,-5.353,0.0,0.0,0.0,0.0,0.0,0.0,0.0,0.0,0.0,0.0,0.0,0.0,-5.3247,0.0,-5.4425,-5.5632,-5.6491,-5.6829,-5.6166,-5.5529,-5.514,-5.494,-5.5349,-5.6437,-5.7209,-5.8051,-5.8863,-5.778,-5.7306,-5.7273,-5.6528,-5.6021,-5.5784,-5.6494,-5.6799,-5.69,-5.7814,-5.8186,-5.8389,-5.9877,-6.0419,-6.0622,-4.0203,-4.1794,-4.3172,-4.4005,-4.6106,-4.846,-5.085,-5.1321,0.0,0.0,0.0,0.0,0.0,0.0,0.0,0.0,0.0,-5.8891,-6.0412,0.0,-5.1357,-4.9112,-4.9655,-4.8605,-4.5562,-4.6939,-4.6939,-4.5381,-4.5326,-4.5688,-4.6468,-4.6481,-4.6912,-4.7699,-4.8623,-4.9465,-5.0373,-5.2032,-5.3295,-5.4261,-5.5871,-5.7574,-5.9281,0.0,-6.2585,-6.42,-6.5044,0.0,0.0,-6.4383,-6.409,0.0,0.0,0.0,0.0,0.0,0.0,0.0,0.0,0.0,0.0,-5.9765,0.0,0.0,0.0,0.0,-5.574,0.0,0.0,0.0,0.0,-5.4907,-5.4399,-5.2806,-5.2664,0.0,0.0,0.0,0.0,0.0,0.0,0.0,0.0,0.0,0.0,0.0,-5.3044,0.0,-5.4391,-5.515,-5.6166,-5.7526,-5.6851,-5.6465,-5.6465,-5.5785,-5.5499,-5.5568,-5.6438,-5.6494,-5.5852,-5.5818,-5.5784,-5.575,-5.4972,-5.5074,-5.5784,-5.6494,-5.6799,-5.6934,-5.8423,-5.8964,-5.9167,-6.0689,-6.1264,-6.1366,-4.1143,-4.2555,-4.3607,-4.3353,0.0,0.0,0.0,-5.1973,0.0,0.0,0.0,0.0,0.0,-6.2693,-6.3563,0.0,0.0,-6.2367,-6.2404,-5.9144,0.0,0.0,-5.6029,-5.4581,-5.2408,-5.19,-5.0633,-4.846,-4.6898,-4.6535,-4.7284,-4.6757,-4.7506,-4.9394,0.0,-4.9737,0.0,0.0,0.0,0.0,0.0,-5.85,-6.0052,0.0,0.0,-6.2548,-6.3356,-6.4016,0.0,-6.4824,-6.453,-6.4053,-6.3759,-6.2865,-6.1838,-6.1288,-6.0909,0.0,0.0,0.0,-6.2245,-6.0996,0.0,0.0,0.0,0.0,0.0,0.0,0.0,0.0,0.0,-5.6428,-5.5921,-5.4327,-5.4146,-5.3652,0.0,0.0,0.0,0.0,0.0,0.0,0.0,0.0,0.0,-5.1304,-5.1615,0.0,0.0,-5.401,-5.4805,-5.6723,-5.651,-5.6197,-5.5788,-5.5549,-5.5487,-5.5499,-5.6299,-5.6303,-5.575,-5.6224,-5.6156,-5.5716,-5.5953,-5.619,-5.6528,-5.7746,-5.8254,-5.8423,-5.9945,-6.052,-6.0588,-6.1129,-6.1298,-6.14,-4.2918,-4.357,-4.4041,0.0,0.0,0.0,0.0,0.0,0.0,0.0,-5.9361,0.0,-6.5663,0.0,-6.6424,0.0,-6.7293,-6.57,-6.3744,-6.244,0.0,-6.0412,-5.9651,-5.8383,-5.6464,-5.516,-5.3059,-5.009,-4.8561,-4.8057,-4.8556,-4.7434,-4.8114,-5.0234,0.0,-5.0185,-5.1736,0.0,-5.3036,0.0,0.0,-5.7923,0.0,0.0,-6.0089,0.0,0.0,-6.2328,-6.2842,-6.3392,-6.3392,-6.3209,-6.3209,-6.2658,-6.1961,-6.1667,-6.1447,-6.1251,-6.1459,-6.2215,0.0,0.0,-6.2047,0.0,-6.1011,0.0,0.0,0.0,0.0,0.0,0.0,-5.7384,-5.6428,-5.545,-5.4834,-5.4001,0.0,-5.248,0.0,0.0,0.0,0.0,0.0,0.0,-5.1793,-5.0768,-5.1324,-5.2354,0.0,0.0,-5.465,-5.6546,-5.6635,-5.6563,-5.6481,-5.6255,-5.6174,-5.6264,-5.6556,-5.6302,-5.575,-5.619,-5.6292,-5.6122,-5.6596,-5.6934,-5.7273,-5.822,-5.8761,-5.9133,-6.0114,-6.0825,-6.1332,-6.1603,-6.167,-6.1704,0.0,0.0,0.0,0.0,-4.7409,0.0,0.0,0.0,-5.6355,0.0,-6.0919,-6.4287,-6.6786,-6.7728,-6.9068,-7.1313,-7.0842,-6.8814,-6.4975,-6.541,0.0,0.0,-6.0774,-6.0013,-5.755,-5.6717,-5.4399,-5.0488,-5.029,-5.0218,-5.0234,-4.8547,-4.8627,-5.0228,-5.1158,0.0,-4.9724,-5.3769,-5.462,-5.3408,-5.495,-5.6088,-5.6785,-5.5904,0.0,-6.2365,-6.0786,-6.0272,-6.0346,-6.0346,-6.0896,-6.1557,-6.1594,-6.2108,-6.2622,-6.1851,-6.2218,-6.2658,-6.1851,-6.1667,-6.2022,-6.3496,0.0,0.0,0.0,0.0,-6.2047,0.0,0.0,0.0,0.0,-5.7796,-5.6151,-5.6066,-5.4762,-5.3494,-5.2733,-5.2625,-5.2625,0.0,0.0,0.0,0.0,-5.2243,-5.2216,-5.0927,-5.2102,-5.3223,0.0,0.0,0.0,-5.7174,-5.7297,-5.7695,-5.8404,-5.7855,-5.7654,-5.7745,-5.7091,-5.6438,-5.582,-5.5818,-5.619,-5.6867,-5.6867,-5.7239,-5.7881,-5.7915,-5.8355,-5.9032,-5.9066,-5.9945,-6.1332,-6.211,-6.2381,-6.2245,-4.549,-4.6576,-4.7916,0.0,-4.8894,-4.9582,0.0,0.0,0.0,0.0,-6.3744,-6.7003,-6.9973,-7.048,-7.0842,-7.1458,-7.1313,0.0,0.0,0.0,0.0,-6.675,-6.6351,-6.4758,-6.1716,-6.0883,-5.9072,-5.6283,-5.3349,-5.2226,-5.2697,-4.9901,-4.9227,-5.0356,0.0,0.0,-5.0578,-5.2894,-5.3922,-5.4179,-5.517,-5.6418,0.0,0.0,-5.7116,-5.9098,-5.8107,-5.851,-5.9538,-5.9538,-6.0052,-6.0823,-6.141,-6.1741,-6.1998,-6.2401,-6.2658,-6.2768,-6.2548,-6.2952,-6.3539,-6.3929,-6.3709,-6.3599,0.0,0.0,0.0,0.0,0.0,0.0,0.0,0.0,0.0,-5.712,-5.5644,-5.4508,-5.4327,-5.4291,0.0,-5.4291,0.0,0.0,0.0,-5.2437,-5.2678,-5.2929,-5.183,0.0,0.0,0.0,0.0,0.0,-5.8428,-5.8861,-5.857,-5.888,-5.8843,-5.8401,-5.8308,-5.7925,-5.726,-5.7321,-5.7442,-5.7611,-5.7611,-5.7712,-5.7915,-5.849,-5.8829,-5.9066,-5.9607,-6.0047,-6.0554,-6.1907,-6.2042,-6.1637,-4.7554,0.0,0.0,-5.1574,0.0,0.0,-5.3929,0.0,0.0,-6.1534,-6.4794,0.0,-6.9249,-7.0661,-7.1494,-7.1494,-7.1494,0.0,-7.0517,0.0,0.0,-6.8706,-6.8561,-6.7003,-6.378,-6.2259,0.0,-5.7876,-5.4255,-5.2733,-5.3096,-5.0226,-4.9234,-4.9888,0.0,-5.0346,0.0,-5.2018,-5.3151,-5.3922,-5.4363,0.0,0.0,-5.5023,-5.5317,-5.6381,-5.5904,-5.6785,-5.8217,-5.8584,-5.9208,-5.9942,-6.0419,-6.1043,-6.1704,-6.2144,-6.2548,-6.2805,-6.2805,-6.3172,-6.3613,-6.398,-6.409,-6.42,-6.4677,-6.4714,-6.442,0.0,0.0,0.0,0.0,0.0,0.0,-5.7158,-5.5909,-5.5014,-5.5014,0.0,0.0,0.0,-5.452,0.0,0.0,0.0,0.0,0.0,0.0,0.0,0.0,0.0,0.0,0.0,-5.8718,-5.9293,-5.9598,-5.9653,-5.9685,-5.9724,-5.9082,-5.8602,-5.8288,-5.7664,-5.7577,-5.7881,-5.7881,-5.7881,-5.7915,-5.8355,-5.8727,-5.9133,-6.0216,-6.0216,-5.981,-6.1366,-6.167,-6.1366,0.0,0.0,0.0,0.0,0.0,0.0,0.0,-5.7695,0.0,-6.2259,0.0,-6.7438,-6.7438,-6.9973,-7.1603,-7.1531,0.0,-7.1024,-6.9575,-7.077,-7.0589,-6.8561,-6.914,-6.8054,-6.4939,-6.2404,-5.9941,0.0,-5.4146,-5.2444,-5.2299,-4.9981,0.0,0.0,0.0,0.0,0.0,-5.132,-5.2344,0.0,-5.3225,-5.3628,-5.4179,-5.3482,-5.3628,-5.4289,-5.4473,-5.5464,-5.6785,-5.7556,-5.84,-5.9061,-5.9171,-6.0162,-6.1337,-6.152,-6.2108,-6.2695,-6.2768,-6.2805,-6.3025,-6.387,-6.409,-6.4127,-6.4237,-6.4787,-6.4897,-6.3429,-6.2998,0.0,0.0,0.0,0.0,-5.712,-5.6197,0.0,0.0,0.0,0.0,0.0,0.0,0.0,0.0,0.0,0.0,0.0,0.0,0.0,0.0,0.0,0.0,0.0,-5.886,0.0,-6.0811,0.0,-6.0367,-6.1104,-5.9576,-5.895,-5.9149,-5.7666,-5.734,-5.8017,-5.7915,-5.7881,-5.7881,-5.7881,-5.8287,-5.9032,-6.0554,-6.0283,-5.9201,-6.0622,-6.1231,-6.1298,0.0,0.0,0.0,0.0,0.0,-5.842,-6.1462,-6.32,-6.4577,-6.5808,-6.8706,-7.0698,-7.0698,-7.1748,-7.2219,-7.1567,-7.211,0.0,0.0,0.0,0.0,-7.0915,-7.1024,-6.9937,-6.7438,-6.4359,-6.1607,-5.918,-5.4689,-5.2154,-5.1466,-4.9727,-4.8611,0.0,0.0,0.0,-5.2491,-5.1458,0.0,-5.3225,-5.3225,-5.3298,-5.3408,-5.3261,-5.3298,-5.3592,-5.4913,-5.5574,-5.5941,-5.6748,-5.7556,-5.8327,-5.8988,-5.9391,-5.9905,-6.119,-6.1704,-6.1961,-6.2622,-6.2805,-6.3025,-6.387,-6.409,-6.4273,-6.4934,-6.5191,-6.5228,-6.4934,-6.4347,-6.3819,-6.3819,0.0,0.0,0.0,0.0,0.0,0.0,0.0,0.0,0.0,0.0,0.0,0.0,0.0,0.0,0.0,0.0,0.0,0.0,0.0,0.0,0.0,0.0,0.0,0.0,0.0,0.0,-6.1804,-5.9854,-5.9488,-6.0653,-5.8629,-5.8118,-5.8795,-5.8152,-5.7881,-5.7881,-5.7881,-5.7983,-5.822,-5.9742,-5.9776,-5.9133,-5.9979,-6.0723,-6.1298,0.0,0.0,0.0,0.0,0.0,0.0,0.0,-6.7112,0.0,-6.6967,-6.8126,-6.9068,-6.9068,-7.0879,-7.1929,-7.1531,-7.1857,-7.1929,-7.1531,-7.1494,-7.1313,-7.0951,-7.0915,0.0,-6.6822,-6.3997,-6.139,-5.8999,-5.4218,-5.1683,-5.1249,-4.922,-4.814,-4.7975,0.0,-5.1087,0.0,0.0,0.0,-5.3225,-5.3225,-5.3225,-5.3225,-5.3225,-5.3225,-5.3408,-5.5023,-5.5574,-5.5794,-5.7005,-5.7666,-5.807,-5.8474,-5.9171,-5.9979,-6.075,-6.1557,-6.2328,-6.2695,-6.2805,-6.2915,-6.3319,-6.3429,-6.3539,-6.3906,-6.4347,-6.4567,-6.4127,-6.4053,-6.3943,-6.3503,-6.2058,0.0,0.0,0.0,0.0,0.0,0.0,0.0,0.0,0.0,0.0,0.0,0.0,0.0,0.0,0.0,0.0,0.0,0.0,0.0,0.0,0.0,0.0,0.0,0.0,0.0,-6.2114,-6.0796,-6.036,-6.0557,-5.9183,-5.8522,-5.8569,-5.8124,-5.7881,-5.7881,-5.7881,-5.7881,-5.8051,-5.9505,-5.9641,-5.9167,-6.0317,-6.096,-6.1231,0.0,-5.8166,0.0,0.0,-6.3309,0.0,0.0,-6.9575,-7.0625,-6.8126,-6.78,-6.78,-6.78,-7.0191,-7.1712,-7.1531,-7.1675,-7.1675,-7.1531,-7.1494,-7.1168,-7.0408,-7.0372,-6.8959,-6.5917,-6.3345,-6.0665,0.0,-5.3639,-5.1212,-5.0488,-4.8749,0.0,0.0,0.0,0.0,0.0,0.0,-5.2412,-5.3225,-5.3146,-5.3146,-5.3225,-5.3225,-5.3225,-5.3408,-5.5023,-5.5574,-5.5831,-5.7446,-5.7997,-5.7997,-5.7997,-5.8877,-5.9905,-6.0089,-6.1153,-6.2328,-6.2511,-6.2695,-6.2805,-6.2805,-6.2805,-6.2805,-6.2805,-6.3319,-6.3613,-6.2952,-6.3356,-6.3686,-6.3172,-6.2254,0.0,0.0,0.0,0.0,0.0,0.0,0.0,0.0,0.0,0.0,0.0,0.0,0.0,0.0,0.0,0.0,0.0,0.0,0.0,0.0,0.0,0.0,-6.2397,0.0,-6.1676,0.0,-6.1358,-6.0736,-6.0184,-5.9346,-5.8737,-5.8243,-5.8099,-5.8027,-5.8027,-5.8027,-5.8027,-5.8196,-5.9689,-5.9817,-5.9478,-6.0867,-6.1477,-6.1511,0.0,0.0,0.0,0.0,0.0,0.0,0.0,-6.9937,-7.1386,-7.1096,-7.106,-7.106,-7.106,-7.1965,-7.2291,-7.1567,-7.2183,-7.2291,-7.1567,-7.1494,-7.1168,-7.0408,-7.0372,-6.9213,-6.675,-6.3635,-6.0122,0.0,-5.3639,-5.0886,-4.8061,-4.8568,0.0,0.0,0.0,0.0,0.0,-5.1748,-5.2229,-5.3225,-5.306,-5.3103,-5.3225,-5.3225,-5.3225,-5.3408,-5.5023,-5.5574,-5.5831,-5.7446,-5.7997,-5.7997,-5.7997,-5.8107,-5.8364,-5.9098,-5.9942,-6.0786,-6.152,-6.2254,-6.2805,-6.2805,-6.2805,-6.2805,-6.2805,-6.2879,-6.2915,-6.2842,-6.2879,-6.3135,-6.3833,-6.2658,-6.1814,0.0,0.0,0.0,0.0,0.0,0.0,0.0,0.0,0.0,0.0,0.0,0.0,0.0,0.0,0.0,0.0,0.0,0.0,0.0,0.0,-6.2344,-6.2433,-6.1732,0.0,-6.2344,-6.0458,-5.9867,-6.0441,-5.9182,-5.8561,-5.849,-5.849,-5.8419,-5.8419,-5.8419,-5.8419,-5.8556,-6.0057,-6.0529,-6.0415,-6.1265,-6.2013,-6.2489,0.0,0.0,0.0,0.0,0.0,0.0,0.0,-7.0915,-7.1494,-7.1494,-7.1494,-7.1494,-7.1494,-7.1784,-7.1857,-7.1531,-7.1784,-7.1857,-7.1531,-7.1096,-7.0698,-7.0408,-6.9466,-6.8054,-6.6134,-6.3889,-6.0738,0.0,0.0,0.0,0.0,0.0,0.0,0.0,0.0,-5.0301,-5.2258,-5.1777,-5.2156,-5.306,-5.3017,-5.3103,-5.3225,-5.3225,-5.3225,-5.3408,-5.5023,-5.5574,-5.5831,-5.7446,-5.7997,-5.7997,-5.7997,-5.8327,-5.8804,-5.9134,-6.0126,-6.108,-6.0933,-6.1814,-6.2695,-6.2218,-6.2438,-6.2805,-6.2805,-6.2805,-6.2805,-6.2805,-6.2805,-6.2915,-6.3282,-6.2768,-6.2291,0.0,0.0,0.0,0.0,0.0,0.0,0.0,0.0,-5.7171,0.0,0.0,0.0,0.0,0.0,0.0,0.0,0.0,0.0,-6.0237,0.0,-6.2178,-6.2654,-6.236,-6.236,-6.25,-6.2312,-6.1901,-6.1335,-6.1254,-6.046,-5.9139,-5.9139,-5.89,-5.849,-5.849,-5.8763,-5.9242,-6.0301,-6.0671,-6.0808,-6.2036,-6.2302,-6.2199,-6.5229,0.0,-6.5374,0.0,-6.8778,-6.8923,-7.1168,-7.1494,-7.1494,-7.1494,-7.1494,-7.1494,-7.1494,-7.1494,-7.1494,-7.1494,-7.1494,-7.1422,-7.1205,-7.0661,-7.0191,-6.9684,-6.8597,0.0,-6.5301,-6.3889,-6.1208,-5.7188,-5.5884,0.0,0.0,0.0,0.0,0.0,-4.9858,-5.07,-5.2235,-5.1988,-5.2251,-5.293,-5.2937,-5.3017,-5.3146,-5.3146,-5.3225,-5.3408,-5.473,-5.5244,-5.5464,-5.7116,-5.7666,-5.7703,-5.7923,-5.84,-5.8914,-5.9134,-6.0162,-6.1153,-6.086,-6.1741,-6.2658,-6.2108,-6.2401,-6.2805,-6.2805,-6.2805,-6.2805,-6.2805,-6.2622,-6.2511,-6.2768,-6.2438,-6.1998,0.0,0.0,0.0,0.0,0.0,0.0,0.0,-5.7373,-5.7409,-5.7189,0.0,0.0,0.0,0.0,0.0,0.0,0.0,0.0,0.0,0.0,0.0,0.0,0.0,-6.3122,-6.302,-6.3811,-6.3565,-6.2641,-6.2959,-6.2129,-6.0356,-6.0356,-6.0011,-5.9282,-5.9282,-5.959,-6.021,-6.0926,-6.1234,-6.1405,-6.2597,-6.2734,-6.2392,-6.512,-6.6207,-6.751,-6.9937,-7.0951,-7.1458,-7.1494,-7.1494,-7.1494,-7.1494,-7.1494,-7.1494,-7.1494,-7.1494,-7.1494,-7.1494,-7.1494,-7.1205,-7.0444,-7.0372,-6.9684,0.0,0.0,-6.6858,-6.4468,-6.3599,-6.1208,-5.7188,0.0,0.0,-5.1285,0.0,0.0,-5.0126,-5.0931,-5.1347,-5.1559,-5.2209,-5.2608,-5.2826,-5.2798,-5.2893,-5.3017,-5.3146,-5.3225,-5.3335,-5.4106,-5.4399,-5.4656,-5.6271,-5.6822,-5.6969,-5.774,-5.7997,-5.818,-5.8988,-5.9795,-6.0603,-6.1374,-6.2181,-6.2805,-6.2805,-6.2805,-6.2805,-6.2805,-6.2805,-6.2805,-6.2805,-6.2181,-6.1851,-6.2658,-6.152,-6.0676,-6.1484,0.0,0.0,0.0,0.0,0.0,0.0,-5.8694,-5.8877,-5.807,0.0,0.0,0.0,0.0,0.0,0.0,0.0,0.0,-6.0419,-6.119,0.0,-6.2805,-6.3649,-6.409,-6.409,-6.4257,-6.4307,-6.4251,-6.3669,-6.2994,-6.2248,-6.2248,-6.1881,-6.1289,-6.1289,-6.1289,-6.1358,-6.2151,-6.235,-6.2272,-6.3028,-6.3302,-6.3302,-6.7003,-6.7438,-6.8017,-6.9321,-6.9756,-6.9901,-6.9901,-7.0372,-7.0734,-7.0734,-7.0734,-7.0734,-7.0734,-7.1205,-7.1313,0.0,-7.0734,-7.0408,0.0,-6.9068,-6.8307,-6.7221,-6.6677,-6.5482,-6.3599,-6.3309,-6.1498,-5.8021,0.0,0.0,0.0,-5.1864,-5.143,-5.0923,-5.1185,-5.162,-5.2209,-5.2417,-5.2562,-5.2645,-5.2627,-5.2806,-5.298,-5.306,-5.3103,-5.3335,-5.4106,-5.473,-5.539,-5.6455,-5.7152,-5.7776,-5.8584,-5.8437,-5.8033,-5.8327,-5.9355,-6.0346,-6.0052,-6.1374,-6.2695,-6.2108,-6.2401,-6.2805,-6.2805,-6.2805,-6.2805,-6.2805,-6.2622,-6.2511,-6.2768,-6.1924,-6.13,-6.1557,0.0,0.0,0.0,0.0,0.0,0.0,-5.7886,-5.807,0.0,-5.8657,0.0,0.0,0.0,0.0,0.0,0.0,0.0,0.0,-6.119,0.0,-6.3686,-6.3943,-6.4383,-6.4934,-6.5547,-6.5842,-6.5917,-6.5187,-6.4273,-6.3091,-6.3091,-6.2404,-6.1289,-6.1289,-6.1634,-6.2117,-6.2393,-6.2806,-6.3216,-6.3422,-6.3526,-6.3526,-6.7474,-6.78,-6.8162,-6.8669,-6.8995,-6.9176,-6.9176,-6.9611,-6.9937,-6.9937,-6.9937,-6.9937,-6.9937,-7.0335,0.0,-6.9973,-6.9937,0.0,-6.8778,-6.8017,-6.7184,-6.6388,-6.5591,-6.4541,-6.32,0.0,0.0,-5.8854,-5.7659,-5.5667,-5.2951,-5.2625,-5.2226,-5.1756,-5.1765,-5.2009,-5.248,-5.248,-5.2516,-5.2552,-5.2581,-5.268,-5.285,-5.2937,-5.306,-5.3219,-5.3732,-5.4473,-5.528,-5.6088,-5.6895,-5.7703,-5.851,-5.84,-5.8107,-5.8731,-5.9832,-6.075,-6.0236,-6.1447,-6.2695,-6.2181,-6.2438,-6.2805,-6.2805,-6.2805,-6.2805,-6.2805,-6.2585,-6.2365,-6.2365,-6.1447,-6.0713,-6.0713,0.0,0.0,0.0,0.0,0.0,0.0,0.0,0.0,0.0,-5.9061,0.0,0.0,0.0,0.0,0.0,0.0,0.0,-6.0382,-6.119,0.0,-6.4053,-6.4383,-6.4934,-6.5778,-6.6549,-6.6865,-6.6624,-6.6438,-6.5591,-6.4266,-6.4266,-6.3482,-6.2151,-6.2151,-6.2461,-6.291,-6.291,-6.3186,-6.36,-6.36,-6.36,-6.36,-6.6786,-6.7402,0.0,0.0,-6.8525,0.0,-6.8995,-6.9068,-6.9104,-6.9104,-6.9104,-6.9104,-6.9104,-6.9068,-6.8995,-6.8995,0.0,0.0,0.0,-6.7148,-6.6351,-6.5482,-6.4722,0.0,-6.3128,-6.3056,-6.186,-5.9542,-5.6464,-5.4581,-5.3784,-5.2951,-5.2552,-5.248,-5.248,-5.248,-5.248,-5.248,-5.248,-5.248,-5.2581,-5.259,-5.2635,-5.2893,-5.298,-5.3017,-5.3146,-5.3739,-5.4583,-5.5354,-5.6161,-5.7042,-5.7813,-5.807,-5.8364,-5.9795,-6.0786,-6.141,-6.141,-6.2071,-6.2732,-6.2732,-6.2768,-6.2805,-6.2805,-6.2805,-6.2805,-6.2805,-6.2218,-6.1667,-6.1594,-6.0346,-5.9281,-5.9208,-5.9171,-5.8584,-5.7042,0.0,0.0,0.0,0.0,0.0,0.0,-6.0456,-6.0162,0.0,0.0,0.0,0.0,0.0,0.0,-6.0493,-6.13,-6.2548,-6.4163,-6.4971,-6.5778,-6.6586,-6.732,-6.7283,-6.6623,-6.7357,-6.6967,-6.559,-6.559,-6.4838,-6.36,-6.3639,-6.3639,-6.3639,-6.3712,-6.3712,-6.3639,-6.3639,-6.3673,-6.36,0.0,0.0,-6.7076,-6.7076,-6.7257,-6.7366,-6.7366,-6.7873,-6.8271,-6.8271,-6.8271,-6.8271,-6.8271,-6.7728,-6.7366,-6.7366,-6.7945,-6.7692,-6.6243,-6.5989,-6.5229,-6.3816,-6.3563,-6.3092,-6.2295,-6.1679,-6.0484,-5.8673,-5.6717,-5.5341,-5.4617,-5.3784,-5.3096,-5.248,-5.248,-5.248,-5.248,-5.248,-5.248,-5.248,-5.2526,-5.2536,-5.2635,-5.2806,-5.2893,-5.3017,-5.3146,-5.4106,-5.5354,-5.5537,-5.6528,-5.785,-5.8657,-5.8914,-5.8877,-5.8657,-5.9134,-5.9795,-5.9795,-6.0823,-6.1887,-6.1887,-6.2365,-6.2805,-6.2805,-6.2805,-6.2805,-6.2805,-6.2658,-6.2328,-6.1704,-6.0786,-5.9905,-5.9318,-5.8694,-5.796,-5.6932,0.0,0.0,0.0,-5.8731,-5.9538,-6.0309,-6.097,-6.097,0.0,0.0,0.0,0.0,0.0,-6.13,-6.13,-6.2732,-6.398,-6.5007,-6.5815,-6.6623,-6.7393,-6.7614,-6.7577,-6.7393,-6.7614,-6.6967,-6.559,-6.559,-6.4838,-6.3673,-6.4147,-6.4323,-6.4393,-6.4905,-6.477,-6.4323,-6.4323,-6.4039,-6.36,-6.6786,-6.6786,-6.6786,-6.6786,-6.6786,-6.6786,-6.6786,-6.7184,-6.7474,-6.7474,-6.7474,-6.7474,-6.7474,-6.7076,-6.6786,-6.6786,-6.6858,-6.6533,-6.5663,-6.4903,-6.4106,-6.3237,-6.2512,-6.1897,-6.1462,-6.1027,-6.0194,-5.8963,-5.6971,-5.5631,-5.487,-5.3711,-5.2915,-5.248,-5.248,-5.248,-5.248,-5.248,-5.248,-5.248,-5.248,-5.2526,-5.2581,-5.2672,-5.2806,-5.2893,-5.306,-5.3952,-5.5097,-5.5464,-5.6418,-5.7593,-5.84,-5.8657,-5.8584,-5.8143,-5.8841,-5.9758,-5.9758,-6.0639,-6.1704,-6.2071,-6.2475,-6.2805,-6.2805,-6.2805,-6.2805,-6.2805,-6.2805,-6.2438,-6.1263,-6.0676,-5.9905,-5.8364,-5.774,-5.7042,-5.5868,-5.6345,0.0,-5.7886,-5.9024,-6.0236,-6.1374,-6.1557,-6.141,-6.097,0.0,0.0,-6.1484,-6.2291,-6.2548,-6.2144,-6.3429,-6.464,-6.5852,-6.6659,-6.7063,-6.7136,-6.7504,-6.7504,-6.7136,-6.7504,-6.7117,-6.6064,-6.5752,-6.5171,-6.4532,-6.4601,-6.477,-6.5105,-6.5462,-6.5332,-6.5039,-6.4738,-6.4358,-6.4039,-6.6786,-6.6786,-6.6786,-6.6786,-6.6786,-6.6786,-6.6786,-6.6786,-6.6786,-6.6786,-6.6786,-6.6786,-6.6786,-6.6786,-6.6786,-6.6786,-6.6062,-6.5555,-6.5446,-6.4033,-6.3092,-6.2838,-6.1643,-6.0919,-6.081,-6.0701,-6.0231,-5.9434,-5.7224,-5.5812,-5.5051,-5.3566,-5.2806,-5.2661,-5.2552,-5.248,-5.248,-5.248,-5.248,-5.248,-5.248,-5.248,-5.248,-5.2581,-5.2635,-5.2806,-5.2893,-5.3573,-5.4466,-5.5126,-5.597,-5.6887,-5.7593,-5.7886,-5.7997,-5.7997,-5.8951,-6.0052,-6.0199,-6.0896,-6.1777,-6.2622,-6.2805,-6.2805,-6.2805,-6.2805,-6.2805,-6.2805,-6.2805,-6.2328,-6.0713,-6.0309,-5.9465,-5.7189,-5.6712,-5.6088,-5.462,0.0,-5.7226,-5.7923,-5.9538,-6.1227,-6.2842,-6.2254,-6.1851,-6.1961,-6.1961,0.0,0.0,-6.3796,-6.4016,-6.3392,-6.409,-6.5154,-6.6659,-6.7357,-6.7357,-6.6696,-6.7357,-6.732,-6.6696,-6.7393,-6.7322,-6.6677,-6.594,-6.559,-6.5526,-6.4972,-6.5171,-6.5815,-6.5878,-6.5878,-6.5653,-6.4972,-6.4669,-6.4532,-6.6786,-6.6786,-6.6786,-6.6786,-6.6786,-6.6786,-6.6786,-6.6786,-6.6786,-6.6786,-6.6786,-6.6786,-6.6786,-6.6786,-6.6786,-6.6786,-6.6062,-6.5301,-6.4613,-6.3708,-6.2585,-6.1245,-6.1607,-6.1498,-6.081,-6.0122,-5.9398,-5.8601,-5.7514,-5.6609,-5.5812,-5.4943,-5.4146,-5.3494,-5.2806,-5.248,-5.248,-5.248,-5.248,-5.248,-5.248,-5.248,-5.248,-5.2581,-5.259,-5.2635,-5.2806,-5.3361,-5.4099,-5.4334,-5.5404,-5.6649,-5.6887,-5.7446,-5.7997,-5.7997,-5.818,-5.851,-5.9208,-6.0456,-6.1777,-6.2622,-6.2805,-6.2805,-6.2805,-6.2805,-6.2805,-6.2805,-6.2805,-6.2328,-6.0713,-5.9832,-5.8841,-5.7079,-5.6235,-5.5464,0.0,0.0,-5.785,-5.7997,-6.0015,-6.2071,-6.3723,-6.3135,-6.2915,-6.3649,-6.3686,-6.3759,-6.387,-6.4677,-6.5375,-6.5925,-6.6072,-6.6549,-6.7504,-6.7614,-6.7614,-6.7504,-6.7614,-6.7614,-6.7504,-6.7614,-6.7322,-6.6677,-6.594,-6.559,-6.559,-6.5462,-6.5878,-6.6618,-6.7174,-6.7061,-6.6404,-6.5752,-6.5105,-6.4532,-6.6714,-6.6786,-6.6786,-6.6786,-6.6786,-6.6786,-6.6786,-6.6786,-6.6786,-6.6786,-6.6786,-6.6786,-6.6786,-6.6786,-6.6786,-6.6786,-6.5663,-6.4613,-6.3816,-6.2983,-6.2041,-6.0846,-6.0339,-5.9905,-5.9506,-5.9144,-5.8565,-5.7732,-5.6935,-5.5921,-5.4725,-5.3965,-5.3422,-5.3023,-5.2661,-5.248,-5.248,-5.248,-5.248,-5.248,-5.248,-5.248,-5.248,-5.2526,-5.2581,-5.259,-5.2635,-5.298,-5.3425,-5.3908,-5.4866,-5.5925,-5.6502,-5.7244,-5.7904,-5.7997,-5.8621,-5.9391,-5.9758,-6.1043,-6.2365,-6.2732,-6.2805,-6.2805,-6.2805,-6.2805,-6.2805,-6.2805,-6.2805,-6.2438,-6.1263,-6.0382,-5.9465,-5.829,-5.6675,0.0,0.0,-5.7005,-5.8327,-5.9208,-6.1447,-6.3429,-6.464,-6.4383,-6.431,-6.4714,-6.5154,-6.5375,-6.5375,-6.6145,-6.6769,-6.7136,-6.7136,-6.732,-6.7687,-6.7687,-6.7687,-6.7687,-6.7687,-6.7687,-6.7687,-6.7687,-6.7542,-6.7174,-6.6523,-6.6404,-6.67,-6.6344,-6.6582,-6.7266,-6.7579,-6.7322,-6.6618,-6.5878,-6.5171,-6.4532,-6.6388,-6.6677,-6.6786,-6.6786,-6.6786,-6.6786,-6.6786,-6.6786,-6.6786,-6.6786,-6.6786,-6.6786,-6.6786,-6.6641,-6.6605,-6.6786,-6.5156,-6.3852,-6.3237,-6.2114,-6.11,-6.0303,-5.9253,-5.8782,-5.8963,-5.8601,-5.8094,-5.7478,-5.6464,-5.5486,-5.4508,-5.3675,-5.3204,-5.307,-5.2842,-5.2661,-5.248,-5.248,-5.248,-5.248,-5.248,-5.248,-5.248,-5.248,-5.2526,-5.2581,-5.2581,-5.2627,-5.2862,-5.3672,-5.4474,-5.5312,-5.6254,-5.7152,-5.7894,-5.8124,-5.9381,-6.0628,-6.0676,-6.1741,-6.2805,-6.2805,-6.2952,-6.3099,-6.3099,-6.3099,-6.3099,-6.3099,-6.2952,-6.2548,-6.1741,-6.0786,-5.9869,-5.9061,0.0,0.0,0.0,-5.7813,-5.9098,-6.0529,-6.2879,-6.4714,-6.5521,-6.5411,-6.5375,-6.5558,-6.6145,-6.6512,-6.6512,-6.7247,-6.7687,-6.7687,-6.7687,-6.7687,-6.7687,-6.7687,-6.7687,-6.7687,-6.7687,-6.7687,-6.7687,-6.7687,-6.7687,-6.7633,-6.6794,-6.691,-6.7633,-6.6794,-6.691,-6.7687,-6.7687,-6.7322,-6.6618,-6.5878,-6.5171,-6.4532,-6.5663,-6.6279,-6.6786,-6.6786,-6.6786,-6.6786,-6.6786,-6.6786,-6.6786,-6.6786,-6.6786,-6.6786,-6.6786,-6.6134,-6.5989,-6.675,-6.4649,-6.3237,-6.32,-6.1064,-5.9434,-5.8601,-5.918,-5.9868,-6.0629,-5.918,-5.8383,-5.8311,-5.6767,-5.6332,-5.6935,-5.6151,-5.5354,-5.4676,-5.394,-5.3204,-5.248,-5.248,-5.248,-5.248,-5.248,-5.248,-5.248,-5.248,-5.248,-5.248,-5.248,-5.248,-5.2635,-5.3489,-5.4335,-5.5218,-5.6113,-5.7058,-5.7956,-5.8688,-6.0079,-6.1372,-6.1471,-6.2144,-6.2805,-6.2805,-6.3429,-6.398,-6.398,-6.398,-6.398,-6.398,-6.3356,-6.2548,-6.1741,-6.0346,-5.9024,-5.8217,0.0,0.0,-5.6712,-5.8767,-6.0529,-6.141,-6.3686,-6.5521,-6.6329,-6.5742,-6.5632,-6.6366,-6.6476,-6.6512,-6.6512,-6.7247,-6.7687,-6.7687,-6.7687,-6.7687,-6.7687,-6.7687,-6.7687,-6.7687,-6.7687,-6.7687,-6.7687,-6.7687,-6.7687,-6.7633,-6.6247,-6.6464,-6.7633,-6.6247,-6.6523,-6.7687,-6.7687,-6.7322,-6.6618,-6.5878,-6.5171,-6.4532,-6.4758,-6.5482,-6.6062,-6.6062,-6.646,-6.6786,-6.6786,-6.6786,-6.6786,-6.6786,-6.6786,-6.6605,-6.6098,-6.5772,-6.5518,-6.5337,-6.3563,-6.2259,-6.1752,-5.9941,-5.8709,-5.842,-5.8709,-5.9253,-6.005,-5.8963,-5.7913,-5.6899,-5.5835,-5.493,-5.4291,-5.3942,-5.37,-5.3396,-5.3059,-5.277,-5.248,-5.248,-5.248,-5.248,-5.248,-5.248,-5.248,-5.248,-5.2806,-5.3313,-5.382,-5.4291,-5.4689,-5.5027,-5.5728,-5.6345,-5.6309,-5.7195,-5.8555,-5.9967,-6.077,-6.1514,-6.2691,-6.2801,-6.2851,-6.3466,-6.387,-6.4237,-6.4714,-6.4861,-6.4861,-6.4861,-6.4604,-6.4273,-6.3943,-6.2989,-6.2291,-6.2511,0.0,-5.9795,-6.1153,-6.1667,-6.2401,-6.3723,-6.5191,-6.6366,-6.7173,-6.6953,-6.6916,-6.721,-6.7247,-6.7247,-6.7247,-6.7504,-6.7687,-6.7687,-6.7687,-6.7687,-6.7687,-6.7687,-6.7687,-6.7687,-6.7687,-6.7687,-6.7687,-6.7687,-6.7687,-6.7687,-6.7137,-6.6967,-6.7061,-6.6967,-6.6967,-6.7061,-6.7061,-6.6641,-6.594,-6.5237,-6.4532,-6.3967,-6.3925,-6.4649,-6.5229,-6.5229,-6.5663,-6.6062,-6.6062,-6.6062,-6.6062,-6.6062,-6.5844,-6.5446,-6.4903,-6.4396,-6.3961,-6.3671,-6.1933,-6.0738,-6.0448,-5.8927,-5.813,-5.8383,-5.8383,-5.8673,-5.9216,-5.842,-5.7369,-5.598,-5.5269,-5.4327,-5.3241,-5.3277,-5.3132,-5.2852,-5.2878,-5.2733,-5.248,-5.248,-5.248,-5.248,-5.248,-5.248,-5.248,-5.248,-5.2987,-5.382,-5.4617,-5.5377,-5.6029,-5.6283,-5.6717,-5.7116,-5.6635,-5.7629,-5.9241,-6.069,-6.1506,-6.2178,-6.3414,-6.3539,-6.357,-6.4259,-6.4677,-6.5007,-6.5558,-6.5705,-6.5705,-6.5705,-6.5485,-6.5301,-6.5301,-6.464,-6.4273,-6.4824,-6.3282,-6.2475,-6.3906,-6.3796,-6.4127,-6.5521,-6.6402,-6.71,-6.765,-6.7687,-6.7687,-6.7687,-6.7687,-6.7687,-6.7687,-6.7944,-6.7944,-6.7687,-6.7687,-6.7687,-6.7687,-6.7687,-6.7834,-6.8054,-6.7797,-6.7687,-6.7687,-6.7687,-6.7687,-6.7687,-6.7488,-6.723,-6.7004,-6.7024,-6.7024,-6.7004,-6.6523,-6.6064,-6.5526,-6.4838,-6.4147,-6.3565,-6.3164,-6.3816,-6.4396,-6.4396,-6.4396,-6.4396,-6.4396,-6.4396,-6.4396,-6.4396,-6.3708,-6.32,-6.3164,-6.1752,-6.1136,-6.1933,-5.9796,-5.8746,-5.9542,-5.8094,-5.755,-5.8347,-5.8383,-5.8383,-5.842,-5.7623,-5.6812,-5.6024,-5.528,-5.4927,-5.4907,-5.4891,-5.4464,-5.3717,-5.3686,-5.3241,-5.248,-5.248,-5.248,-5.248,-5.248,-5.248,-5.2516,-5.2516,-5.3023,-5.382,-5.4653,-5.5414,-5.6138,-5.6935,-5.7224,-5.7188,-5.7224,-5.8413,-5.9968,-6.0804,-6.2255,-6.36,-6.36,-6.4327,-6.5144,-6.5286,-6.5925,-6.6512,-6.6512,-6.6512,-6.6512,-6.6512,-6.5888,-6.5338,-6.5338,-6.4677,-6.4127,-6.4127,-6.3392,-6.3135,-6.4016,-6.4824,-6.5632,-6.6402,-6.721,-6.7687,-6.7687,-6.7687,-6.7687,-6.7687,-6.7687,-6.7687,-6.7687,-6.8458,-6.8531,-6.7724,-6.7687,-6.7687,-6.7687,-6.7687,-6.8091,-6.8898,-6.8091,-6.7687,-6.7687,-6.7687,-6.7687,-6.7687,-6.7004,-6.7061,-6.7542,-6.6186,-6.6464,-6.7542,-6.6186,-6.559,-6.5526,-6.4838,-6.4147,-6.3496,-6.2093,-6.2964,-6.3563,-6.3563,-6.3997,-6.4396,-6.4396,-6.4396,-6.4178,-6.3635,-6.3345,-6.2766,-6.1643,-6.11,-6.0665,-6.0339,-5.9144,-5.8275,-5.7949,-5.7478,-5.7297,-5.755,-5.8094,-5.8673,-5.9253,-5.8456,-5.7659,-5.6848,-5.5511,-5.4626,-5.407,-5.3479,-5.308,-5.2852,-5.2842,-5.2733,-5.248,-5.248,-5.248,-5.248,-5.248,-5.2842,-5.3385,-5.3965,-5.4991,-5.6358,-5.7746,-5.8362,-5.8544,-5.8782,-5.8528,-5.813,-5.8709,-6.0013,-6.148,-6.244,-6.3475,-6.4476,-6.5277,-6.5713,-6.5986,-6.6093,-6.6329,-6.6659,-6.721,-6.732,-6.732,-6.732,-6.7136,-6.699,-6.699,-6.6769,-6.6623,-6.6623,-6.6402,-6.6329,-6.6586,-6.6806,-6.7063,-6.7283,-6.754,-6.7687,-6.7687,-6.7687,-6.7687,-6.7687,-6.8201,-6.8311,-6.7724,-6.8458,-6.8531,-6.7724,-6.7687,-6.7944,-6.8531,-6.7981,-6.7797,-6.8054,-6.7797,-6.7687,-6.7687,-6.7687,-6.7687,-6.7687,-6.7488,-6.723,-6.7004,-6.7024,-6.7024,-6.6946,-6.6559,-6.6064,-6.5526,-6.4838,-6.4147,-6.3565,-6.164,-6.2237,-6.2674,-6.273,-6.3128,-6.3454,-6.3454,-6.3164,-6.2802,-6.2295,-6.1679,-6.0919,-5.9977,-5.9579,-5.918,-5.8709,-5.8202,-5.7732,-5.7224,-5.7188,-5.7188,-5.7188,-5.7659,-5.8166,-5.8637,-5.8166,-5.7406,-5.6269,-5.5341,-5.4302,-5.3189,-5.2744,-5.248,-5.248,-5.248,-5.2661,-5.2951,-5.2625,-5.2661,-5.2987,-5.2987,-5.3277,-5.3784,-5.4581,-5.5874,-5.7351,-5.829,-5.9087,-5.9574,-5.9216,-5.8818,-5.8528,-5.9361,-6.0701,-6.215,-6.3057,-6.4184,-6.5332,-6.6007,-6.6482,-6.6846,-6.6953,-6.6953,-6.71,-6.7577,-6.7687,-6.7687,-6.7687,-6.7687,-6.7687,-6.7687,-6.7687,-6.7687,-6.7687,-6.7687,-6.7687,-6.7687,-6.7687,-6.7687,-6.7687,-6.7687,-6.7834,-6.8128,-6.8164,-6.8311,-6.8605,-6.9082,-6.9009,-6.8201,-6.8935,-6.8862,-6.7724,-6.7687,-6.7907,-6.8421,-6.7944,-6.7834,-6.8164,-6.7834,-6.7687,-6.7687,-6.7687,-6.7687,-6.7687,-6.7687,-6.7488,-6.7117,-6.723,-6.723,-6.7061,-6.6464,-6.6125,-6.594,-6.5237,-6.4601,-6.3933,-6.142,-6.1748,-6.184,-6.195,-6.1914,-6.1897,-6.1897,-6.1208,-6.0665,-6.0593,-5.9325,-5.8383,-5.8311,-5.7623,-5.7188,-5.7188,-5.7188,-5.7188,-5.7188,-5.7188,-5.7188,-5.7188,-5.7188,-5.7188,-5.7188,-5.7188,-5.6486,-5.5098,-5.499,-5.417,-5.2697,-5.2552,-5.248,-5.248,-5.2589,-5.3023,-5.3675,-5.2987,-5.3132,-5.382,-5.382,-5.3856,-5.4001,-5.487,-5.6128,-5.7424,-5.7492,-5.8435,-5.9465,-5.8637,-5.8456,-5.8637,-5.947,-6.0883,-6.2367,-6.3092,-6.462,-6.6116,-6.6116,-6.6884,-6.7687,-6.7687,-6.7687,-6.7687,-6.7687,-6.7687,-6.7687,-6.7687,-6.7687,-6.7687,-6.7687,-6.7687,-6.7687,-6.7687,-6.7687,-6.7687,-6.7687,-6.7687,-6.7687,-6.7687,-6.776,-6.8091,-6.8825,-6.8972,-6.9302,-7.0036,-7.0183,-6.9816,-6.8972,-6.9669,-6.9339,-6.7724,-6.7687,-6.7687,-6.7687,-6.7687,-6.8054,-6.8788,-6.8054,-6.7687,-6.7687,-6.7687,-6.7687,-6.7687,-6.7687,-6.7687,-6.7633,-6.7061,-6.7117,-6.7542,-6.6307,-6.6125,-6.6618,-6.594,-6.5303,-6.4564,-6.0331,-6.1184,-6.1784,-6.184,-6.1389,-6.1064,-6.1064,-6.0375,-5.9651,-5.8999,-5.8637,-5.8166,-5.7514,-5.7297,-5.7188,-5.7188,-5.7188,-5.7188,-5.7188,-5.7188,-5.7188,-5.7188,-5.7188,-5.7188,-5.7188,-5.7188,-5.7043,-5.6717,-5.5473,-5.4689,-5.435,-5.3106,-5.248,-5.2516,-5.3168,-5.353,-5.3748,-5.4182,-5.4472,-5.4653,-5.4653,-5.4979,-5.5667,-5.7116,-5.8282,-5.9197,-5.9776,-5.9828,-5.9474,-5.8652,-5.8818,-5.947,-6.0303,-6.2078,-6.3889,-6.4238,-6.5456,-6.6842,-6.7103,-6.736,-6.7579,-6.7687,-6.7687,-6.7687,-6.7687,-6.7687,-6.7687,-6.7687,-6.7687,-6.7687,-6.7687,-6.7687,-6.7687,-6.7687,-6.7687,-6.7687,-6.7687,-6.7687,-6.7687,-6.7687,-6.8238,-6.8715,-6.8898,-6.9486,-6.9926,-7.0073,-7.0697,-7.0403,-6.8972,-6.9669,-6.9339,-6.7724,-6.7687,-6.7687,-6.7687,-6.7687,-6.7797,-6.7944,-6.776,-6.7687,-6.7687,-6.7687,-6.7687,-6.7687,-6.7687,-6.7687,-6.7687,-6.7542,-6.7579,-6.7687,-6.7341,-6.7061,-6.6677,-6.6559,-6.6002,-6.5161,-5.9394,-6.01,-6.05,-6.0555,-6.025,-6.007,-6.0124,-5.9437,-5.8838,-5.8456,-5.8058,-5.7659,-5.7261,-5.7188,-5.7188,-5.7188,-5.7188,-5.7188,-5.7188,-5.7188,-5.7188,-5.7188,-5.7188,-5.7188,-5.7188,-5.7188,-5.7007,-5.6609,-5.5812,-5.5064,-5.4302,-5.3458,-5.2878,-5.2516,-5.2951,-5.3566,-5.4291,-5.4303,-5.4737,-5.5414,-5.5414,-5.5667,-5.6138,-5.7369,-5.8326,-5.9045,-5.9087,-5.8797,-5.8428,-5.8435,-5.918,-6.0339,-6.1136,-6.3019,-6.4975,-6.5089,-6.5981,-6.7076,-6.719,-6.7359,-6.7561,-6.7579,-6.7633,-6.7687,-6.7687,-6.7687,-6.7687,-6.7687,-6.7687,-6.7687,-6.7687,-6.7687,-6.7687,-6.7687,-6.7687,-6.7687,-6.7687,-6.7687,-6.7687,-6.7687,-6.8421,-6.9192,-6.9963,-7.044,-7.0844,-7.1211,-7.1284,-7.0954,-7.011,-7.0073,-6.9522,-6.8311,-6.7907,-6.7871,-6.8274,-6.7871,-6.7871,-6.8274,-6.7871,-6.7687,-6.7687,-6.7687,-6.7687,-6.7687,-6.7687,-6.7687,-6.7687,-6.7687,-6.7687,-6.7687,-6.7687,-6.7488,-6.7174,-6.7174,-6.6523,-6.549,-5.8586,-5.8892,-5.902,-5.913,-5.9078,-5.9024,-5.9132,-5.8447,-5.7995,-5.8151,-5.7572,-5.7188,-5.7188,-5.7188,-5.7188,-5.7188,-5.7188,-5.7188,-5.7188,-5.7188,-5.7188,-5.7188,-5.7188,-5.7188,-5.7188,-5.7188,-5.6862,-5.621,-5.5921,-5.516,-5.3892,-5.3639,-5.3132,-5.2516,-5.2625,-5.3494,-5.487,-5.4327,-5.4905,-5.621,-5.621,-5.621,-5.6283,-5.708,-5.784,-5.8296,-5.7659,-5.7333,-5.7333,-5.8311,-5.9562,-6.0937,-6.177,-6.3651,-6.5591,-6.5591,-6.6286,-6.6961,-6.6983,-6.719,-6.7414,-6.7506,-6.7579,-6.7687,-6.7687,-6.7687,-6.7687,-6.7687,-6.7687,-6.7687,-6.7687,-6.7797,-6.7834,-6.7724,-6.7907,-6.7981,-6.7724,-6.7797,-6.7907,-6.7907,-6.8752,-6.9779,-7.0991,-7.1358,-7.1725,-7.2275,-7.1798,-7.1394,-7.1138,-7.0477,-6.9669,-6.8715,-6.8054,-6.8017,-6.8678,-6.8017,-6.8017,-6.8678,-6.8017,-6.7687,-6.7687,-6.7687,-6.7687,-6.7687,-6.7687,-6.7687,-6.7687,-6.7687,-6.7687,-6.7687,-6.7687,-6.7687,-6.7687,-6.7687,-6.6858,-6.5663,-5.7759,-5.8443,-5.9,-5.902,-5.8556,-5.8143,-5.8196,-5.7513,-5.7061,-5.7165,-5.7108,-5.7087,-5.7188,-5.7188,-5.7188,-5.7188,-5.7188,-5.7188,-5.7188,-5.7188,-5.7188,-5.7188,-5.7188,-5.7188,-5.7188,-5.7188,-5.7152,-5.7043,-5.5703,-5.4943,-5.4725,-5.3313,-5.2589,-5.2516,-5.3241,-5.4049,-5.493,-5.545,-5.621,-5.7043,-5.7043,-5.7043,-5.7116,-5.7913,-5.829,-5.8428,-5.829,-5.7804,-5.7442,-5.8947,-6.0052,-6.0973,-6.1744,-6.3625,-6.5591,-6.5591,-6.617,-6.6845,-6.6961,-6.7019,-6.7134,-6.7414,-6.747,-6.7524,-6.7687,-6.7687,-6.7687,-6.7687,-6.7687,-6.7687,-6.7687,-6.8274,-6.8495,-6.7797,-6.8862,-6.9265,-6.7871,-6.8311,-6.8752,-6.8752,-7.0073,-7.0807,-7.0293,-7.1505,-7.2092,-7.1541,-7.2018,-7.1725,-7.033,-7.0146,-6.9412,-6.7907,-6.776,-6.7724,-6.7834,-6.7724,-6.7724,-6.7834,-6.7724,-6.7687,-6.7687,-6.7687,-6.7687,-6.7687,-6.7687,-6.7687,-6.7687,-6.7687,-6.7687,-6.7687,-6.7687,-6.7687,-6.7687,-6.7687,-6.7139,-6.6263,-5.6918,-5.7259,-5.7564,-5.7564,-5.7297,-5.7137,-5.7245,-5.6975,-5.6865,-5.6984,-5.7036,-5.7138,-5.7188,-5.7188,-5.7188,-5.7188,-5.7188,-5.7188,-5.7188,-5.7188,-5.7188,-5.7188,-5.7188,-5.7188,-5.7188,-5.7188,-5.7188,-5.7188,-5.65,-5.5957,-5.5486,-5.4363,-5.3603,-5.3204,-5.3566,-5.4146,-5.4955,-5.569,-5.645,-5.7188,-5.7188,-5.7188,-5.7224,-5.7587,-5.7746,-5.7782,-5.8239,-5.7876,-5.7514,-5.9562,-6.081,-6.1679,-6.298,-6.4679,-6.6279,-6.6279,-6.6533,-6.6786,-6.6845,-6.6961,-6.7076,-6.719,-6.7303,-6.7414,-6.7524,-6.7579,-6.7579,-6.7687,-6.7687,-6.7834,-6.8274,-6.8678,-6.8935,-6.9009,-6.9265,-6.9192,-6.8458,-6.8678,-6.9082,-6.9522,-7.022,-7.0477,-7.011,-7.0734,-7.1211,-7.1321,-7.1651,-7.1541,-7.0807,-7.033,-6.9559,-6.8421,-6.7907,-6.7907,-6.8385,-6.7907,-6.7907,-6.8348,-6.7907,-6.7687,-6.7687,-6.7687,-6.7687,-6.7687,-6.7687,-6.7687,-6.7687,-6.7687,-6.7687,-6.7687,-6.7687,-6.7687,-6.7687,-6.7687,-6.7213,-6.6478]}]]